     2.11           OBSERVATION DATA    G (GPS)             RINEX VERSION / TYPE
teqc 2010Oct21 OPUS Account 20111027 14:27:44UTC            PGM / RUN BY / DATE
N 1524                                                      MARKER NAME
1217                                                        MARKER NUMBER
CSMIDDLETON NGS                                             OBSERVER / AGENCY
0220390614 TRIMBLE R7 2.32                                  REC # / TYPE / VERS
12611996 TRM41249.00 NONE                                   ANT # / TYPE
  -760046.7233 -5531296.8935  3073251.9739                  APPROX POSITION XYZ
        2.0000        0.0000        0.0000                  ANTENNA: DELTA H/E/N
     1     1                                                WAVELENGTH FACT L1/2
     5    L1    L2    C1    P1    P2                        # / TYPES OF OBSERV
    15                                                      LEAP SECONDS
  2011     8    13    17    59   30.0000000     GPS         TIME OF FIRST OBS
                                                            END OF HEADER
 11  8 13 17 59 30.0000000  0  9G11G07G08G23G13G19G03G28G24
  -1200558.59457   -889152.60954  22544762.0314                   22544760.3444
  -1007291.51658   -764348.05556  20648117.9694                   20648115.0784
  -1273042.96958   -905704.28955  21897052.2114                   21897050.3204
     80622.31657     60041.90254  23180769.6174                   23180767.7384
   -130962.96158    -99737.07055  21337375.1724                   21337373.1254
   -293352.64558   -223003.85556  21613093.8134                   21613089.7544
     41072.50056     31380.93853  23551965.9774                   23551966.3554
   -975225.52057   -761676.36755  22935796.4384                   22935794.2154
   -560626.85957   -400642.95753  24031209.9844                   24031212.8284
 11  8 13 18  0  0.0000000  0  9G11G07G08G23G13G19G03G28G24
  -1366519.11347  -1018472.47344  22513181.0004                   22513178.8714
  -1141814.19148   -869170.92646  20622518.9144                   20622516.0784
  -1444050.40248  -1038956.82045  21864510.2664                   21864508.6214
     91556.12147     68561.55543  23182850.7114                   23182848.8984
   -147678.48048   -112762.21546  21334194.3134                   21334192.1294
   -331484.84448   -252717.28146  21605837.7894                   21605833.7464
     46732.31646     35791.07443  23553042.8054                   23553043.4024
  -1116641.80147   -871870.83245  22908885.3674                   22908883.4774
   -735289.99647   -536743.95744  23997972.3674                   23997975.6134
 11  8 13 18  0 30.0000000  0  9G11G07G08G23G13G19G03G28G24
  -1532455.09847  -1147773.18744  22481603.8524                   22481602.6604
  -1276334.50848   -973991.97746  20596920.8284                   20596918.0204
  -1615246.13348  -1172356.07045  21831932.7194                   21831931.5164
    102360.93847     76980.72344  23184906.2424                   23184905.0944
   -164254.15247   -125678.38345  21331039.9694                   21331037.9654
   -369396.51647   -282258.86346  21598622.8674                   21598619.1914
     52299.43046     40129.05143  23554101.8594                   23554102.9264
  -1258149.66047   -982136.66845  22881958.5474                   22881956.2114
   -910212.54747   -673047.11743  23964685.1174                   23964688.4384
 11  8 13 18  1  0.0000000  0  9G11G07G08G23G13G19G03G28G24
  -1698264.35547  -1276975.19145  22450052.0474                   22450050.2894
  -1410750.87148  -1078731.99646  20571341.8524                   20571338.9774
  -1786528.51248  -1305822.85945  21799338.9534                   21799337.2234
    113133.87147     85375.01244  23186957.2034                   23186955.7384
   -180592.75047   -138409.80545  21327930.9144                   21327929.3444
   -406990.31648   -311552.75046  21591468.9774                   21591465.1684
     57870.73446     44470.27743  23555162.8134                   23555162.9104
  -1399649.96147  -1092396.62145  22855031.0314                   22855029.1214
  -1085291.68047   -809472.24244  23931369.1644                   23931372.1024
 11  8 13 18  1 30.0000000  0  9G11G07G08G23G13G19G03G28G24
  -1863857.74647  -1406008.95345  22418540.0944                   22418538.8594
  -1544975.71148  -1183322.78546  20545800.0314                   20545797.3284
  -1957809.91048  -1439288.87145  21766745.2584                   21766743.5474
    123957.87147     93809.11344  23189017.0004                   23189015.7194
   -196611.56648   -150892.05146  21324882.6334                   21324880.8714
   -444182.56648   -340533.75046  21584391.7814                   21584387.6334
     63529.30946     48879.43843  23556240.3204                   23556239.0594
  -1541057.88347  -1202584.57845  22828122.0784                   22828120.4734
  -1260438.80546   -945950.33643  23898040.0314                   23898042.5904
 11  8 13 18  2  0.0000000  0  9G11G07G08G23G13G19G03G28G24
  -2029249.41047  -1534885.53545  22387067.1954                   22387065.5004
  -1679024.23047  -1287776.15246  20520291.2734                   20520288.5664
  -2129105.92648  -1572766.26645  21734148.8284                   21734147.0744
    134812.75447    102267.26644  23191082.6334                   23191081.2814
   -212330.02048   -163140.25445  21321891.8984                   21321889.7624
   -480993.12547   -369217.33246  21577386.8444                   21577383.3634
     69255.52346     53341.37543  23557329.0164                   23557328.8324
  -1682391.11747  -1312714.34445  22801227.0784                   22801224.9304
  -1435667.75847  -1082492.26643  23864694.4924                   23864696.5704
 11  8 13 18  2 30.0000000  0  9G11G07G08G23G13G19G03G28G24
  -2194457.73047  -1663619.25045  22355628.7274                   22355627.2774
  -1812915.93748  -1392107.35946  20494812.3594                   20494809.4454
  -2300436.12948  -1706270.32045  21701545.6254                   21701543.8594
    145673.94147    110730.32444  23193149.1564                   23193147.9494
   -227772.48448   -175173.41045  21318953.2424                   21318951.0984
   -517446.12148   -397622.28546  21570450.3754                   21570446.2854
     75024.92246     57836.95343  23558427.1414                   23558426.8014
  -1823672.05147  -1422803.36345  22774342.0394                   22774339.9494
  -1610997.24247  -1219112.54743  23831330.1804                   23831332.4454
 11  8 13 18  3  0.0000000  0  9G11G07G08G23G13G19G03G28G24
  -2359492.87547  -1792218.03144  22324223.7424                   22324222.0434
  -1946661.73448  -1496324.87146  20469361.5234                   20469358.9064
  -2471811.52048  -1839809.56245  21668933.8134                   21668932.0474
    156525.84046    119186.15244  23195214.4614                   23195213.2074
   -242954.32048   -187003.47345  21316063.6174                   21316062.4734
   -553556.25847   -425760.07846  21563578.6954                   21563575.0474
     80822.12546     62354.17643  23559530.7974                   23559529.7774
  -1964914.21947  -1532862.17645  22747464.4064                   22747462.5904
  -1786436.89547  -1355818.62143  23797945.4144                   23797947.5634
 11  8 13 18  3 30.0000000  0  9G11G07G08G23G13G19G03G28G24
  -2524357.98047  -1920684.30945  22292851.5234                   22292849.2154
  -2080266.19948  -1600432.25846  20443937.1254                   20443934.4844
  -2643236.37548  -1973387.35545  21636313.0554                   21636311.6724
    167359.50446    127627.76244  23197275.7034                   23197275.1374
   -257884.93048   -198637.76645  21313222.4924                   21313220.8834
   -589332.57448   -453637.74646  21556770.5004                   21556766.6644
     86637.68046     66885.67243  23560637.5704                   23560637.5824
  -2106125.01247  -1642896.54345  22720593.2344                   22720591.1844
  -1961990.62147  -1492613.60943  23764538.1334                   23764540.3524
 11  8 13 18  4  0.0000000  0  9G11G07G08G23G13G19G03G28G24
  -1113627.80547   -821414.00444  22561304.0164                   22561302.1884
   -638305.85548   -476826.80146  20718333.4224                   20718330.4454
  -1239286.43448   -879400.37145  21903475.7894                   21903473.9024
   1753588.67647   1363650.28544  23499125.5634                   23499124.9694
   1302850.97347   1017520.01245  21610221.1644                   21610219.5084
    950640.93848    746341.58646  21849817.6024                   21849814.0124
   1667886.23846   1299027.34043  23861538.6484                   23861538.5944
   -671883.52747   -525305.75044  22993520.1094                   22993518.0274
   -562232.42647   -401892.82043  24030903.6484                   24030905.6134
 11  8 13 18  4 30.0000000  0  9G11G07G08G23G13G19G03G28G24
  -1278151.92647   -949614.59445  22529996.2814                   22529993.8634
   -771629.22748   -580715.14146  20692962.8204                   20692960.1214
  -1410812.84848  -1013057.30145  21870835.4774                   21870833.7274
   1764369.17247   1372050.46543  23501178.0394                   23501175.9454
   1288407.55948   1006265.33245  21607472.2974                   21607470.8984
    915517.59448    718972.72346  21843134.4924                   21843130.8284
   1673723.66046   1303575.87143  23862650.1804                   23862649.7384
   -813041.46947   -635298.93045  22966658.9304                   22966656.6174
   -738012.80546   -538864.35243  23997453.7344                   23997456.5084
 11  8 13 18  5  0.0000000  0  9G11G07G08G23G13G19G03G28G24
  -1442499.12147  -1077677.30144  22498722.0554                   22498720.0164
   -904807.47348   -684490.40646  20667620.0164                   20667617.1214
  -1582385.22348  -1146750.03945  21838186.3054                   21838184.7584
   1775120.53547   1380427.93844  23503223.5164                   23503222.3364
   1274205.01647    995198.35545  21604770.0474                   21604768.1054
    880718.66048    691856.64846  21836511.7894                   21836508.1024
   1679569.86746   1308131.28544  23863762.4844                   23863762.4144
   -954172.30947   -745270.99245  22939802.7344                   22939800.3794
   -913900.13347   -675919.30543  23963982.5164                   23963985.3244
 11  8 13 18  5 30.0000000  0  9G11G07G08G23G13G19G03G28G24
  -1606670.60947  -1205603.10244  22467480.7664                   22467479.1804
  -1037842.64148   -788154.17646  20642303.8204                   20642301.1954
  -1754005.49648  -1280480.10245  21805527.6644                   21805526.2234
   1785835.66447   1388777.19144  23505262.4304                   23505261.2664
   1260236.79747    984313.96145  21602111.9304                   21602110.1724
    846237.72348    664988.35546  21829950.9614                   21829946.8914
   1685418.00847   1312688.23043  23864876.2504                   23864874.4454
  -1095280.97347   -855225.78145  22912950.2034                   22912948.2774
  -1089895.59046   -813058.45343  23930491.9844                   23930494.3794
 11  8 13 18  6  0.0000000  0  9G11G07G08G23G13G19G03G28G24
  -1770667.71947  -1333393.01245  22436273.3754                   22436271.7734
  -1170737.18748   -891708.36346  20617015.3204                   20617012.4574
  -1925676.31248  -1414249.55945  21772859.9144                   21772858.2074
   1796508.18447   1397093.24243  23507293.8914                   23507292.6174
   1246496.17647    973606.91445  21599497.4534                   21599495.4534
    812068.16048    638362.69546  21823448.7034                   21823444.4264
   1691261.23446   1317241.30543  23865986.0004                   23865986.9964
  -1236372.41047   -965167.14545  22886101.2734                   22886099.2274
  -1266000.13746   -950282.63743  23896979.5944                   23896983.1134
 11  8 13 18  6 30.0000000  0  9G11G07G08G23G13G19G03G28G24
  -1934487.26247  -1461044.57045  22405099.7114                   22405097.5634
  -1303488.87548   -995151.25046  20591753.1174                   20591750.3014
  -2097395.82448  -1548056.95745  21740182.7114                   21740180.8284
   1807134.52047   1405373.30944  23509316.1254                   23509314.8984
   1232980.35248    963075.03945  21596925.2034                   21596924.0744
    778207.55148    611977.77746  21817004.9384                   21817001.2934
   1697096.90246   1321788.48443  23867097.8754                   23867097.7234
  -1377447.25447  -1075095.57045  22859255.5944                   22859253.5234
  -1442210.60246  -1087589.48443  23863448.9304                   23863449.0664
 11  8 13 18  7  0.0000000  0  9G11G07G08G23G13G19G03G28G24
  -2098133.07047  -1588560.75045  22373959.3914                   22373956.5864
  -1436102.60248  -1098486.62146  20566517.3674                   20566514.2304
  -2269168.79348  -1681906.00845  21707495.2664                   21707493.6484
   1817705.40647   1413610.16844  23511328.1804                   23511327.1374
   1219679.75448    952710.87145  21594394.4614                   21594392.7974
    744646.67648    585826.42646  21810618.9614                   21810615.1174
   1702916.07046   1326322.77043  23868204.7504                   23868205.3524
  -1518513.03547  -1185016.94145  22832411.8914                   22832409.9454
  -1618530.89547  -1224981.77743  23829896.5394                   23829897.2344
 11  8 13 18  7 30.0000000  0  9G11G07G08G23G13G19G03G28G24
  -2261607.83247  -1715943.62945  22342850.5234                   22342848.7774
  -1568582.00848  -1201717.32846  20541307.2344                   20541304.6294
  -2440998.82848  -1815799.52745  21674797.2584                   21674795.4534
   1828212.49647   1421797.28944  23513327.2584                   23513326.7774
   1206585.61348    942507.57445  21591902.4064                   21591901.3094
    711377.08648    559902.04345  21804287.8444                   21804283.7974
   1708710.11746   1330837.57042  23869307.5004                   23869307.0984
  -1659576.46147  -1294936.48444  22805568.1334                   22805566.1564
  -1794963.67647  -1362461.67643  23796322.5474                   23796323.8524
 11  8 13 18  8  0.0000000  0  9G11G07G08G23G13G19G03G28G24
  -2424910.26647  -1843192.23845  22311775.3054                   22311773.0434
  -1700926.82448  -1304843.15646  20516123.3204                   20516120.3204
  -2612885.76648  -1949737.39145  21642088.0944                   21642086.5634
   1838651.31347   1429931.19544  23515313.6254                   23515313.5434
   1193693.82848    932461.97345  21589449.7034                   21589448.0824
    678394.79748    534201.53946  21798011.5084                   21798007.5864
   1714474.72346   1335329.38343  23870405.0164                   23870404.3484
  -1800639.79747  -1404855.93745  22778724.9224                   22778722.9734
  -1971507.54346  -1500028.26643  23762726.8444                   23762728.0634
 11  8 13 18  8 30.0000000  0  9G11G07G08G23G13G19G03G28G24
  -2588040.20347  -1970306.44545  22280732.4924                   22280730.4534
  -1833138.00448  -1407864.85946  20490964.3914                   20490961.4844
  -2784830.12948  -2083720.00045  21609368.2584                   21609366.6024
   1849016.20746   1438007.49244  23517286.7504                   23517286.0164
   1180998.92648    922569.78545  21587034.4774                   21587032.5944
    645694.92248    508721.09046  21791788.4924                   21791784.9064
   1720205.04746   1339794.45342  23871495.2114                   23871494.8914
  -1941706.69547  -1514778.18045  22751880.8674                   22751878.5514
  -2148161.95747  -1637680.90243  23729110.3754                   23729112.3834
 11  8 13 18  9  0.0000000  0  9G11G07G08G23G13G19G03G28G24
  -2750999.87947  -2097287.96545  22249722.2974                   22249719.9774
  -1965218.85548  -1510785.00046  20465830.3754                   20465827.4454
  -2956835.62148  -2217750.23845  21576637.2584                   21576634.4734
   1859298.85946   1446019.70743  23519242.9144                   23519243.1334
   1168492.60247    912824.52745  21584654.4064                   21584652.0234
    613269.34048    483454.37145  21785618.5704                   21785614.7424
   1725892.71146   1344226.34542  23872577.8364                   23872576.9414
  -2082783.04747  -1624707.78545  22725034.7274                   22725032.9264
  -2324929.10546  -1775421.40243  23695472.8594                   23695475.1564
 11  8 13 18  9 30.0000000  0  9G11G07G08G23G13G19G03G28G24
  -2913793.75847  -2224140.31245  22218743.5864                   22218741.8834
  -2097174.53548  -1613607.60946  20440719.8914                   20440717.0394
  -3128906.92648  -2351831.77046  21543892.7584                   21543890.6644
   1869489.64546   1453960.34444  23521182.5634                   23521182.8284
   1156165.73047    903219.12545  21582308.3594                   21582306.5434
    581108.44548    458393.89545  21779498.4534                   21779494.5554
   1731528.19946   1348617.58243  23873650.3444                   23873650.1134
  -2223876.91047  -1734651.03145  22698185.0704                   22698183.0664
  -2501813.22746  -1913253.09043  23661811.4064                   23661814.3874
 11  8 13 18 10  0.0000000  0  9G11G07G08G23G13G19G03G28G24
  -3076420.74647  -2350862.59445  22187796.7974                   22187794.8874
  -2229005.20348  -1716332.80546  20415633.3054                   20415630.7934
  -3301044.17248  -2485964.68045  21511136.1024                   21511133.9924
   1879583.52346   1461825.44943  23523104.1954                   23523103.4654
   1144012.48847    893748.99645  21579995.6174                   21579994.4534
    549207.57848    433536.05945  21773428.0314                   21773424.3164
   1737106.87546   1352964.53142  23874711.5784                   23874712.2894
  -2364991.17647  -1844610.16845  22671332.1254                   22671329.9344
  -2678813.08647  -2051174.96543  23628130.0314                   23628132.2034
 11  8 13 18 10 30.0000000  0  9G11G07G08G23G13G19G03G28G24
  -3238883.66847  -2477457.03945  22156880.7344                   22156879.5004
  -2360714.11348  -1818963.12946  20390569.9694                   20390567.3954
  -3473250.85948  -2620151.69145  21478366.2424                   21478364.2304
   1889572.10247   1469608.54744  23525005.3284                   23525004.2894
   1132024.68047    884407.78945  21577714.7734                   21577712.5274
    517558.72748    408874.59045  21767404.8754                   21767401.6414
   1742620.68846   1357260.91843  23875760.7274                   23875760.9694
  -2506132.09847  -1954590.08645  22644473.8444                   22644472.0594
  -2855931.27347  -2189189.02043  23594425.4534                   23594428.2974
 11  8 13 18 11  0.0000000  0  9G11G07G08G23G13G19G03G28G24
  -3401184.28947  -2603925.03145  22125996.6804                   22125994.7154
  -2492304.43448  -1921501.03146  20365529.3204                   20365526.3834
  -3645529.93448  -2754395.10945  21445582.5474                   21445580.3754
   1899448.14147   1477303.92244  23526884.6564                   23526884.1844
   1120194.96147    875189.77045  21575463.5944                   21575461.9574
    486154.50848    384403.74245  21761429.1564                   21761425.4184
   1748062.15246   1361500.95343  23876796.8054                   23876796.6914
  -2647305.40647  -2064595.22745  22617609.5004                   22617607.3404
  -3033169.53947  -2327296.67643  23560698.4694                   23560700.8754
 11  8 13 18 11 30.0000000  0  9G11G07G08G23G13G19G03G28G24
  -1987899.12547  -1502663.82445  22394935.1724                   22394933.8794
  -1048354.41048   -796345.18046  20640303.7584                   20640300.7544
  -2242458.29748  -1661092.52745  21712578.0234                   21712576.1374
   3484623.47347   2712505.26244  23828533.6644                   23828532.6884
   2683936.08247   2093689.28145  21873033.8134                   21873032.3874
   2030408.76648   1587718.71946  22055291.2504                   22055287.6054
   3328844.17246   2593279.05543  24177609.3204                   24177609.5044
  -1213091.64147   -947026.03945  22890531.0554                   22890529.0434
  -1635103.50047  -1237894.50044  23826741.4384                   23826742.8054
 11  8 13 18 12  0.0000000  0  9G11G07G08G23G13G19G03G28G24
  -2149883.58647  -1628885.45345  22364110.9774                   22364109.1094
  -1179718.74248   -898706.99646  20615306.1094                   20615303.0634
  -2414893.02048  -1795457.23045  21679765.4924                   21679763.2664
   3494248.40647   2720004.98843  23830365.6334                   23830364.5004
   2672396.54348   2084697.36745  21870837.5704                   21870836.0314
   1999468.97348   1563609.75845  22049403.5314                   22049399.7624
   3334116.68046   2597387.41043  24178612.8134                   24178613.1564
  -1354348.87547  -1057096.59045  22863651.1644                   22863649.0124
  -1812589.74647  -1376195.34843  23792967.2504                   23792967.9534
 11  8 13 18 12 30.0000000  0  9G11G07G08G23G13G19G03G28G24
  -2311716.78947  -1754989.22745  22333315.0084                   22333313.0664
  -1310978.38748  -1000987.25046  20590327.7974                   20590325.3404
  -2587413.53148  -1929888.77745  21646935.5164                   21646933.1134
   3503732.48047   2727394.96943  23832169.9534                   23832169.8014
   2660987.03947   2075806.78145  21868667.1174                   21868664.9224
   1968746.41848   1539670.07845  22043557.3524                   22043553.7814
   3339289.84046   2601418.38343  24179597.2034                   24179597.3914
  -1495660.57447  -1167209.57045  22836760.3134                   22836758.2934
  -1990206.50047  -1514597.88343  23759166.8674                   23759169.4844
 11  8 13 18 13  0.0000000  0  9G11G07G08G23G13G19G03G28G24
  -2473398.18747  -1880974.68045  22302548.0234                   22302545.9024
  -1442133.34048  -1103185.92246  20565370.2344                   20565367.2734
  -2760020.01648  -2064387.31646  21614089.4454                   21614087.5084
   3513070.52346   2734671.13743  23833947.1334                   23833947.2704
   2649701.93048   2067013.12945  21866518.8444                   21866517.7194
   1938236.38748   1515896.00845  22037751.2114                   22037747.6844
   3344358.68846   2605368.03943  24180562.5084                   24180561.5204
  -1637029.60247  -1277367.24245  22809858.4454                   22809856.1684
  -2167952.85247  -1653101.43444  23725343.0474                   23725345.4184
 11  8 13 18 13 30.0000000  0  9G11G07G08G23G13G19G03G28G24
  -2634932.57447  -2006845.60545  22271808.7194                   22271807.0514
  -1573189.78948  -1205307.84046  20540430.7114                   20540427.8164
  -2932718.02748  -2198957.17646  21581225.9694                   21581224.2234
   3522252.02746   2741825.32843  23835694.5704                   23835693.9344
   2638530.87948   2058308.33645  21864393.7894                   21864392.1994
   1907928.19948   1492279.21545  22031983.9694                   22031980.1684
   3349313.13746   2609228.60544  24181505.6564                   24181504.6054
  -1778464.75047  -1387576.41845  22782944.4454                   22782942.3954
  -2345833.66847  -1791709.75444  23691493.1484                   23691494.9734
 11  8 13 18 14  0.0000000  0  9G11G07G08G23G13G19G03G28G24
  -2796319.31648  -2132601.48045  22241097.8204                   22241095.8484
  -1704148.13348  -1307353.31646  20515510.2814                   20515507.3094
  -3105507.80948  -2333598.55546  21548345.2894                   21548343.5594
   3531272.20346   2748853.77743  23837411.1094                   23837410.7344
   2627468.57048   2049688.28945  21862288.4614                   21862287.1764
   1877817.10548   1468816.00845  22026254.2274                   22026250.3484
   3354148.18446   2612996.12543  24182425.1564                   24182424.3094
  -1919969.11747  -1497839.54745  22756016.7194                   22756015.0514
  -2523847.78946  -1930421.94943  23657618.5394                   23657620.2544
 11  8 13 18 14 30.0000000  0  9G11G07G08G23G13G19G03G28G24
  -2957559.13347  -2258242.87145  22210414.8054                   22210413.3164
  -1835009.61348  -1409323.31646  20490607.9534                   20490605.2774
  -3278391.34448  -2468312.98046  21515446.4924                   21515444.8524
   3540124.30546   2755751.28943  23839095.5634                   23839095.4924
   2616508.82448   2041148.17645  21860203.3914                   21860201.2074
   1847897.27348   1445501.82446  22020560.3054                   22020556.2504
   3358858.04346   2616666.03943  24183321.6724                   24183320.6054
  -2061547.09447  -1608160.02045  22729075.4064                   22729073.2854
  -2701995.62147  -2069238.30144  23623717.7344                   23623719.6914
 11  8 13 18 15  0.0000000  0  8G11G07G08G23G13G19G28G24
  -3118654.83648  -2383771.96145  22179759.7664                   22179757.5204
  -1965777.84048  -1511220.64546  20465724.0084                   20465721.0594
  -3451371.75848  -2603102.88746  21482529.3674                   21482527.7504
   3548800.10246   2762511.37943  23840746.0944                   23840746.9224
   2605643.09448   2032681.30545  21858135.4224                   21858134.2274
   1818160.10548   1422329.97745  22014901.8524                   22014897.7504
  -2203204.77347  -1718542.60945  22702118.8674                   22702117.0474
  -2880279.68046  -2208160.84444  23589791.3914                   23589793.5744
 11  8 13 18 15 30.0000000  0  8G11G07G08G23G13G19G28G24
  -3279602.94547  -2509186.03945  22149131.9774                   22149130.0984
  -2096450.78548  -1613043.73446  20440857.5234                   20440854.8984
  -3624446.13748  -2737966.02745  21449594.4844                   21449592.7384
   3557297.73446   2769132.63743  23842363.9694                   23842364.0704
   2594869.45348   2024286.17645  21856085.5314                   21856083.4104
   1788603.84448   1399299.10245  22009277.3914                   22009273.7114
  -2344942.57847  -1828987.64545  22675147.1174                   22675145.4414
  -3058696.34047  -2347186.71944  23555839.7664                   23555841.2624
 11  8 13 18 16  0.0000000  0  8G11G07G08G23G13G19G28G24
  -3440390.30948  -2634474.85945  22118535.0784                   22118533.4264
  -2227016.02348  -1714782.88346  20416011.5704                   20416009.1294
  -3797602.55148  -2872893.08646  21416644.0164                   21416641.8754
   3565624.86747   2775621.03143  23843948.0864                   23843949.0314
   2584194.93448   2015968.31345  21854053.9694                   21854052.4144
   1759235.94148   1376414.99245  22003688.8674                   22003684.8834
  -2486751.01647  -1939487.70745  22648161.8444                   22648159.8954
  -3237232.30147  -2486305.58643  23521865.4144                   23521867.1484
 11  8 13 18 16 30.0000000  0  8G11G07G08G23G13G19G28G24
  -3601011.11347  -2759633.90645  22087970.4384                   22087967.9694
  -2357468.19148  -1816433.93446  20391187.7034                   20391185.0044
  -3970834.98048  -3007879.37945  21383679.1724                   21383676.9964
   3573781.71547   2781976.75043  23845501.6024                   23845501.5044
   2573619.77747   2007727.86745  21852041.7194                   21852040.3954
   1730057.16848   1353678.25045  21998136.5634                   21998132.4884
  -2628627.57847  -2050040.85945  22621163.4534                   22621161.4774
  -3415880.84446  -2625512.10243  23487869.1414                   23487870.4494
 11  8 13 18 17  0.0000000  0  8G11G07G08G23G13G19G28G24
  -3761458.13747  -2884657.53145  22057438.1024                   22057435.6764
  -2487801.02348  -1917991.99646  20366386.2274                   20366383.5664
  -4144137.08248  -3142919.95746  21350700.7194                   21350698.5234
   3581769.50447   2788200.75443  23847021.3674                   23847021.8594
   2563145.52048   1999566.02745  21850048.2034                   21850047.3754
   1701069.10948   1331090.13345  21992620.0474                   21992616.4734
  -2770568.79747  -2160644.38745  22594152.7584                   22594151.0904
  -3594634.62146  -2764800.65243  23453854.2344                   23453855.7304
 11  8 13 18 17 30.0000000  0  8G11G07G08G23G13G19G28G24
  -3921721.70747  -3009538.21545  22026940.8984                   22026938.6684
  -2618005.93748  -2019450.37946  20341608.9614                   20341606.7074
  -4317499.85248  -3278007.80946  21317710.6644                   21317708.8594
   3589592.63347   2794296.42643  23848510.3204                   23848510.3134
   2552776.26647   1991486.01245  21848075.3834                   21848073.8134
   1672276.21148   1308654.08245  21987141.0004                   21987137.1134
  -2912568.64547  -2271293.61345  22567131.2274                   22567129.3754
  -3773483.57046  -2904163.34443  23419818.4304                   23419821.3914
 11  8 13 18 18  0.0000000  0  8G11G07G08G23G13G19G28G24
  -4081797.93748  -3134272.91845  21996478.7114                   21996476.6684
  -2748080.07848  -2120806.85246  20316856.8754                   20316854.2704
  -4490920.21148  -3413140.53546  21284710.1174                   21284707.8524
   3597249.33247   2800262.41043  23849967.4924                   23849967.8634
   2542509.89548   1983486.16445  21846121.9304                   21846120.5084
   1643676.49247   1286368.55545  21981698.5394                   21981694.2624
  -3054627.28147  -2381988.63345  22540098.4224                   22540096.5234
  -3952423.76647  -3043597.14543  23385768.8134                   23385770.8594
 11  8 13 18 18 30.0000000  0  8G11G07G08G23G13G19G28G24
  -4241683.45347  -3258859.00445  21966053.8364                   21966051.5164
  -2878020.62948  -2222059.23046  20292129.7034                   20292127.1724
  -4664395.23048  -3548315.85546  21251698.5164                   21251696.5474
   3604737.90646   2806097.41043  23851392.9384                   23851392.7464
   2532344.58247   1975565.06645  21844187.4384                   21844186.0784
   1615268.16047   1264232.18045  21976292.8284                   21976288.8444
  -3196744.23047  -2492729.10945  22513054.8674                   22513052.5704
  -4131451.10947  -3183098.90243  23351701.0004                   23351702.8134
 11  8 13 18 19  0.0000000  0  8G11G07G08G23G13G19G28G24
  -2825946.98847  -2155687.70345  22235459.7584                   22235457.6134
  -1432398.30948  -1095600.28146  20567222.5634                   20567219.7234
  -3262494.20748  -2455925.43046  21518471.5554                   21518469.4804
   5187478.28546   4039401.35543  24152578.5234                   24152578.1994
   4097700.48447   3195322.84445  22142064.7894                   22142063.5744
   3162472.43848   2469845.86745  22270715.9924                   22270711.7894
  -1763492.68447  -1375909.70345  22785793.6024                   22785791.0984
  -2735133.40647  -2095059.08243  23617411.8134                   23617413.0904
 11  8 13 18 19 30.0000000  0  8G11G07G08G23G13G19G28G24
  -2985432.73047  -2279962.26645  22205110.4924                   22205108.6054
  -1562055.86748  -1196632.14146  20542549.7504                   20542547.0204
  -3436062.21548  -2591173.21546  21485442.6484                   21485440.6524
   5194632.27346   4044975.65243  24153940.3134                   24153940.7384
   4087737.90248   3187559.72345  22140169.0084                   22140167.3674
   3134448.80148   2448009.23845  22265383.2734                   22265379.4884
  -1905719.16447  -1486735.51245  22758728.8444                   22758726.5474
  -2914315.55947  -2234681.44943  23583314.5234                   23583314.7934
 11  8 13 18 20  0.0000000  0  8G11G07G08G23G13G19G28G24
  -3144717.21947  -2404080.03545  22174799.9224                   22174797.3594
  -1691572.23048  -1297553.98846  20517903.7194                   20517900.8404
  -3609675.94948  -2726456.63346  21452404.6724                   21452402.7974
   5201611.78546   4050413.99642  24155268.2034                   24155268.5084
   4077869.49647   3179869.96545  22138290.8914                   22138289.7114
   3106610.68847   2426317.17645  22260085.8754                   22260082.1334
  -2048004.59847  -1597607.25845  22731652.4694                   22731650.5634
  -3093573.33647  -2374362.75043  23549202.6724                   23549203.8134
 11  8 13 18 20 30.0000000  0  8G11G07G08G23G13G19G28G24
  -3303802.47747  -2528042.53545  22144526.3444                   22144524.2154
  -1820949.84848  -1398367.70746  20493283.6564                   20493280.7774
  -3783338.20748  -2861777.85946  21419358.6254                   21419355.9304
   5208409.58646   4055710.71943  24156562.2114                   24156562.3164
   4068087.77747   3172247.77345  22136429.8134                   22136428.6374
   3078950.97747   2404764.13345  22254822.3364                   22254818.7274
  -2190354.25047  -1708529.04745  22704563.9064                   22704562.3554
  -3272908.29747  -2514104.21144  23515076.9844                   23515077.5124
 11  8 13 18 21  0.0000000  0  9G11G07G08G23G13G19G17G28G24
  -3462688.51247  -2651849.81645  22114291.3134                   22114289.4694
  -1950189.44948  -1499073.89546  20468690.1724                   20468687.6764
  -3957049.29748  -2997137.13746  21386302.0864                   21386300.2854
   5215020.32446   4060861.64543  24157820.7664                   24157821.0824
   4058387.10947   3164688.72745  22134583.9694                   22134582.8674
   3051464.16847   2383345.81345  22249591.8984                   22249588.0554
   4304785.98456   3398594.81653  24675009.3284                   24675012.2114
  -2332771.48447  -1819503.48045  22677463.0474                   22677461.1374
  -3452319.76647  -2653905.29343  23480935.2894                   23480935.8754
 11  8 13 18 21 30.0000000  0  9G11G07G08G23G13G19G17G28G24
  -3621382.34047  -2775507.31245  22084092.8914                   22084091.3874
  -2079299.14848  -1599678.85246  20444121.5314                   20444118.7114
  -4130816.44948  -3132540.10946  21353235.3754                   21353233.4614
   5221431.66547   4065857.25443  24159040.8834                   24159041.4024
   4048754.83647   3157182.98845  22132750.7814                   22132749.8984
   3024137.67647   2362052.41045  22244391.6334                   22244387.6764
   4091738.85946   3232584.29743  24634467.5314                   24634470.8404
  -2475267.09047  -1930538.98445  22650347.3284                   22650345.0944
  -3631814.03947  -2793770.85543  23446778.3594                   23446779.6914
 11  8 13 18 22  0.0000000  0  9G11G07G08G23G13G19G17G28G24
  -3779885.52047  -2899016.25045  22053931.2664                   22053929.5044
  -2208281.29748  -1700184.42646  20419577.0164                   20419574.0204
  -4304642.47748  -3267988.94946  21320157.2194                   21320155.1564
   5227636.64847   4070692.00843  24160222.0944                   24160222.6564
   4039183.69547   3149724.87145  22130929.6174                   22130928.8094
   2996964.56647   2340878.52345  22239221.2584                   22239217.6564
   3878576.18046   3066483.74643  24593904.3984                   24593907.0664
  -2617846.34447  -2041639.68045  22623215.2974                   22623212.8014
  -3811392.66847  -2933702.19543  23412605.4924                   23412606.1764
 11  8 13 18 22 30.0000000  0  9G11G07G08G23G13G19G17G28G24
  -3938193.79348  -3022373.32045  22023806.4304                   22023803.6844
  -2337132.16448  -1800587.72346  20395057.5084                   20395055.0084
  -4478522.97748  -3403480.24246  21287069.1174                   21287066.8524
   5233633.84046   4075364.88743  24161363.2194                   24161364.3484
   4029672.21547   3142313.24245  22129119.8524                   22129118.8554
   2969943.84047   2319823.38745  22234079.0634                   22234075.2664
   3665301.61346   2900296.03143  24553318.9304                   24553321.6764
  -2760508.13347  -2152804.66845  22596067.4454                   22596065.6644
  -3991050.92647  -3073695.56244  23378418.0784                   23378419.0234
 11  8 13 18 23  0.0000000  0  9G11G07G08G23G13G19G17G28G24
  -4096303.33247  -3145575.54345  21993718.7194                   21993716.7814
  -2465848.84048  -1900886.39846  20370563.5944                   20370560.8874
  -4652454.34448  -3539011.17646  21253971.0944                   21253968.8634
   5239422.05947   4079874.87944  24162465.0314                   24162465.8914
   4020218.78947   3134946.85545  22127320.9454                   22127319.8714
   2943074.17647   2298885.94545  22228965.9144                   22228962.4104
   3451918.81346   2734024.01643  24512713.0394                   24512715.8834
  -2903252.05547  -2264033.66445  22568904.1564                   22568902.0744
  -4170784.22347  -3213747.43743  23344216.0704                   23344216.0354
 11  8 13 18 23 30.0000000  0  9G11G07G08G23G13G19G17G28G24
  -4254212.80147  -3268621.85945  21963669.7424                   21963667.4064
  -2594430.77048  -2001080.11346  20346095.2814                   20346092.4534
  -4826435.75848  -3674581.10246  21220862.9924                   21220861.3954
   5244997.14547   4084218.80544  24163526.0314                   24163527.1454
   4010819.16447   3127622.39545  22125532.4224                   22125531.4734
   2916351.09447   2278062.73445  22223880.9064                   22223877.3524
   3238428.38746   2567668.13743  24472087.1024                   24472090.1454
  -3046080.57447  -2375328.58245  22541724.6334                   22541722.7814
  -4350590.79747  -3353856.38344  23309999.5474                   23310000.5434
 11  8 13 18 24  0.0000000  0  9G11G07G08G23G13G19G17G28G24
  -4411917.28147  -3391508.44545  21933659.5864                   21933657.5634
  -2722873.82848  -2101165.61346  20321652.9614                   20321650.7344
  -5000462.82448  -3810186.60546  21187747.0084                   21187745.0594
   5250358.73046   4088396.34843  24164546.2814                   24164547.2544
   4001472.64147   3120339.30545  22123753.8914                   22123752.9264
   2889774.21547   2257353.44145  22218823.3594                   22218820.0394
   3024834.58646   2401231.67244  24431441.8984                   24431444.7154
  -3188992.00047  -2486688.09045  22514529.5394                   22514527.5354
  -4530465.13347  -3494018.11344  23275770.3284                   23275772.1994
 11  8 13 18 24 30.0000000  0  9G11G07G08G23G13G19G17G28G24
  -4569412.45347  -3514231.93445  21903689.0314                   21903687.1024
  -2851174.41448  -2201140.10546  20297238.7664                   20297235.9414
  -5174531.71548  -3945824.69146  21154622.9534                   21154621.0044
   5255505.87546   4092406.86743  24165526.0704                   24165527.4064
   3992177.74247   3113096.44545  22121985.4224                   22121983.6884
   2863342.77747   2236757.48445  22213793.9304                   22213790.2774
   2811141.17246   2234717.57444  24390777.3054                   24390779.8364
  -3331985.70347  -2598111.71945  22487318.7664                   22487316.6174
  -4710402.48847  -3634228.98444  23241529.6804                   23241531.0554
 11  8 13 18 25  0.0000000  0  9G11G07G08G23G13G19G17G28G24
  -4726692.70347  -3636787.95745  21873759.2504                   21873757.5594
  -2979327.92648  -2301000.00046  20272851.3754                   20272848.5164
  -5348636.60548  -4081490.82846  21121491.8204                   21121489.8324
   5260439.07046   4096250.57843  24166464.8284                   24166466.2074
   3982934.89847   3105894.14145  22120226.3984                   22120224.8634
   2837057.16447   2216275.17245  22208791.8204                   22208787.9264
   2597353.55946   2068130.11744  24350094.2584                   24350097.1094
  -3475059.28547  -2709597.59045  22460092.7814                   22460090.4654
  -4890396.60247  -3774484.04744  23207277.9144                   23207278.9774
 11  8 13 18 25 30.0000000  0  9G11G07G08G23G13G19G17G28G24
  -4883750.43047  -3759170.58245  21843872.9614                   21843870.7894
  -3107326.90648  -2400739.50447  20248494.2814                   20248491.4304
  -5522769.83648  -4217179.04746  21088355.2894                   21088353.2194
   5265160.85546   4099929.56642  24167362.3754                   24167365.2384
   3973746.13747   3098733.98445  22118478.1644                   22118476.3554
   2810919.64847   2195908.25845  22203817.9534                   22203814.4534
   2383479.31346   1901475.11344  24309395.4534                   24309397.7934
  -3618208.42647  -2821142.34045  22432852.5314                   22432850.0594
  -5070438.77747  -3914776.57044  23173016.9144                   23173017.7194
 11  8 13 18 26  0.0000000  0  9G11G07G08G23G13G19G17G28G24
  -3465145.72748  -2653764.29345  22113824.0394                   22113822.1884
  -1659733.59448  -1272744.72746  20523962.2894                   20523959.3094
  -4121491.96948  -3125274.21146  21355009.9614                   21355007.4224
   6845100.04746   5331050.71942  24468015.5944                   24468017.2894
   5540040.41847   4319222.93845  22416533.9694                   22416532.7664
   4360360.01647   3403264.35245  22498666.3754                   22498662.7894
   3744959.13747   2962368.71944  24568476.2274                   24568478.5004
  -2185997.18447  -1705133.55145  22705393.1644                   22705390.8404
  -3675088.31247  -2827490.44144  23438542.9384                   23438544.4964
 11  8 13 18 26 30.0000000  0  9G11G07G08G23G13G19G17G28G24
  -3621715.03947  -2775766.32845  22084029.9534                   22084027.8484
  -1787383.25048  -1372212.00046  20499671.4304                   20499668.4384
  -4295641.05548  -3260974.78546  21321870.0084                   21321868.2664
   6849426.10546   5334421.34842  24468840.0394                   24468841.8244
   5530985.94147   4312167.43445  22414810.9774                   22414809.7234
   4334545.45747   3383149.09445  22493754.2664                   22493750.5784
   3530952.83646   2795610.80544  24527751.9454                   24527754.0354
  -2329264.66447  -1816770.51645  22678129.8834                   22678128.1994
  -3855182.69547  -2967823.64143  23404272.2894                   23404273.1884
 11  8 13 18 27  0.0000000  0  9G11G07G08G23G13G19G17G28G24
  -3778017.74247  -2897560.63345  22054286.2034                   22054284.0204
  -1914836.88748  -1471526.54746  20475417.6724                   20475414.6454
  -4469775.57448  -3396664.00446  21288733.4304                   21288731.3134
   6853568.77046   5337649.17242  24469628.2974                   24469629.5204
   5522012.75447   4305175.23844  22413103.1484                   22413102.4924
   4308907.07047   3363171.09845  22488875.7734                   22488871.6454
   3316902.05546   2628818.21544  24487019.8524                   24487021.2384
  -2472573.98047  -1928440.09045  22650859.1254                   22650856.9224
  -4035279.71947  -3108158.92643  23370000.5394                   23370001.8134
 11  8 13 18 27 30.0000000  0  9G11G07G08G23G13G19G17G28G24
  -3934035.68047  -3019133.02745  22024597.2584                   22024595.0354
  -2042076.78148  -1570674.53146  20451204.6644                   20451201.8284
  -4643877.38348  -3532327.74646  21255602.7114                   21255601.1884
   6857541.12146   5340744.19543  24470385.4384                   24470386.0044
   5513133.89847   4298256.55545  22411413.7504                   22411413.0004
   4283457.95747   3343340.58645  22484032.6724                   22484029.1024
   3102825.04346   2462005.17643  24446281.0314                   24446283.3014
  -2615910.24247  -2040130.66445  22623583.5164                   22623580.4494
  -4215360.49247  -3248481.51243  23335732.1024                   23335733.5084
 11  8 13 18 28  0.0000000  0  9G11G07G08G23G13G19G17G28G24
  -4089746.08647  -3140465.79345  21994966.2894                   21994964.1054
  -2169081.07048  -1669638.92646  20427036.4454                   20427033.9534
  -4817924.28548  -3667948.69146  21222482.5164                   21222481.1294
   6861360.87146   5343720.35543  24471111.7974                   24471112.9654
   5504366.25047   4291424.53145  22409745.7734                   22409744.1294
   4258215.47347   3323671.07845  22479229.3754                   22479225.2974
   2888744.21146   2295189.14843  24405543.3364                   24405545.2464
  -2759253.89847  -2151826.99645  22596305.9614                   22596303.6374
  -4395401.51247  -3388773.14544  23301472.0234                   23301472.6564
 11  8 13 18 28 30.0000000  0  9G11G07G08G23G13G19G17G28G24
  -4245131.87148  -3261545.62145  21965397.4534                   21965395.4804
  -2295833.29348  -1768406.90246  20402916.4144                   20402913.7304
  -4991899.56648  -3803513.83646  21189376.3674                   21189374.6884
   6865040.01246   5346586.93043  24471812.2814                   24471814.1764
   5495721.46547   4284688.24245  22408100.3754                   22408099.4184
   4233191.17647   3304171.61745  22474466.8914                   22474463.6094
   2674676.02046   2128382.92243  24364807.6884                   24364808.6484
  -2902591.60547  -2263518.69945  22569029.3594                   22569027.3204
  -4575385.38747  -3529020.25444  23267221.6884                   23267223.5864
 11  8 13 18 29  0.0000000  0  9G11G07G08G23G13G19G17G28G24
  -4400178.03947  -3382360.78945  21935893.2894                   21935891.2194
  -2422319.56248  -1866967.64546  20378847.1484                   20378844.4804
  -5165788.02348  -3939011.32046  21156286.7114                   21156284.6604
   6868588.46546   5349351.66443  24472487.9224                   24472489.8094
   5487209.07047   4278055.11744  22406480.8754                   22406479.2624
   4208394.91847   3284849.82445  22469748.7424                   22469744.7774
   2460634.87946   1961597.79744  24324075.6484                   24324078.2774
  -3045911.51247  -2375196.52745  22541756.3674                   22541754.2934
  -4755296.16447  -3669210.39544  23232985.8914                   23232987.5354
 11  8 13 18 29 30.0000000  0  8G11G07G08G13G19G17G28G24
  -4554867.10947  -3502897.71145  21906456.7664                   21906455.2154
  -2548522.79348  -1965307.83646  20354831.3754                   20354828.5904
  -5339572.60248  -4074427.86346  21123216.7894                   21123214.5984
   5478840.85247   4271534.32044  22404888.2504                   22404887.3164
   4183839.07847   3265715.36745  22465075.9064                   22465072.4534
   2246638.12946   1794847.24244  24283354.1254                   24283355.9494
  -3189199.32447  -2486849.33645  22514489.7194                   22514487.5044
  -4935115.60247  -3809329.34844  23198767.5164                   23198768.3054
 11  8 13 18 30  0.0000000  0  8G11G07G08G13G19G17G28G24
  -4709178.61347  -3623140.42245  21877092.2894                   21877090.2274
  -2674423.09848  -2063411.98446  20330873.0394                   20330870.4844
  -5513232.40248  -4209747.18046  21090170.5234                   21090168.4304
   5470632.25847   4265137.91844  22403325.9844                   22403325.8404
   4159538.95747   3246780.17645  22460451.7504                   22460448.5904
   2032706.16046   1628147.17643  24242644.0234                   24242645.8484
  -3332437.87147  -2598463.76645  22487232.5784                   22487230.0124
  -5114822.60947  -3949360.70744  23164570.2274                   23164572.0004
 11  8 13 18 30 30.0000000  0  8G11G07G08G13G19G17G28G24
  -4863093.07448  -3743073.75045  21847803.5314                   21847801.2074
  -2800001.68048  -2161265.43446  20306976.4454                   20306973.9694
  -5686748.49648  -4344954.51246  21057151.0634                   21057149.3204
   5462597.12547   4258876.65244  22401797.2274                   22401796.6524
   4135508.75847   3228055.32045  22455879.2274                   22455875.1884
   1818857.95046   1461512.36643  24201950.1954                   24201951.7424
  -3475610.98447  -2710027.19945  22459987.5944                   22459985.3364
  -5294396.94947  -4089288.67244  23130398.3754                   23130399.3014
 11  8 13 18 31  0.0000000  0  8G11G07G08G13G19G17G28G24
  -5016593.34847  -3862684.33245  21818593.3914                   21818590.6764
  -2925242.07448  -2258855.36747  20283143.7664                   20283141.2544
  -5860103.73448  -4480036.51646  21024162.6334                   21024160.6844
   5454746.88347   4252759.49244  22400303.7584                   22400302.7584
   4111760.23847   3209549.94145  22451360.3594                   22451356.7344
   1605110.21546   1294955.80943  24161274.6414                   24161276.3404
  -3618704.68047  -2821528.76245  22432757.8444                   22432755.1954
  -5473820.84047  -4229099.44944  23096255.0944                   23096255.9344
 11  8 13 18 31 30.0000000  0  8G11G07G08G13G19G17G28G24
  -5169670.48848  -3981965.20345  21789463.6174                   21789461.3954
  -3050135.45748  -2356174.89146  20259377.6174                   20259374.9774
  -6033288.59848  -4614985.75846  20991206.5234                   20991204.4614
   5447085.75447   4246789.68845  22398845.5554                   22398844.7424
   4088297.68047   3191267.39545  22446895.3914                   22446891.7854
   1391471.89846   1128484.57444  24120620.0944                   24120623.0394
  -3761713.18747  -2932963.93045  22405544.0234                   22405542.0664
  -5653084.20747  -4368785.12144  23062142.7424                   23062143.1214
 11  8 13 18 32  0.0000000  0  8G11G07G08G13G19G17G28G24
  -5322319.48448  -4100912.45745  21760415.4924                   21760412.9844
  -3174678.33648  -2453221.27046  20235677.9924                   20235675.0784
  -6206298.97748  -4749799.03546  20958284.1334                   20958282.1254
   5439613.00047   4240966.64844  22397424.2034                   22397422.7854
   4065120.65647   3173207.33245  22442484.4924                   22442481.7624
   1177947.52346    962102.08244  24079987.8594                   24079989.9224
  -3904634.73447  -3044331.34845  22378346.8754                   22378344.7664
  -5832181.41447  -4508341.30943  23028061.4224                   23028061.5124
 11  8 13 18 32 30.0000000  0  9G11G07G08G26G13G19G17G28G24
  -5474543.57048  -4219528.60245  21731448.3054                   21731445.9104
  -3298874.57448  -2549997.56246  20212043.9844                   20212041.3094
  -6379137.73848  -4884478.57846  20925393.7114                   20925391.7464
   5904965.72756   4642970.49253  24102450.3134                   24102450.2154
   5432319.77747   4235283.50844  22396036.2664                   22396035.2154
   4042220.60247   3155363.11345  22438127.4384                   22438124.0824
    964533.34846    795805.47743  24039377.1954                   24039378.0514
  -4047475.93447  -3155636.15245  22351164.9454                   22351162.8204
  -6011115.04747  -4647770.02344  22994011.7034                   22994011.5124
 11  8 13 18 33  0.0000000  0  9G11G07G08G26G13G19G17G28G24
  -4050923.55147  -3110214.27745  22002353.6024                   22002351.5474
  -1847306.02348  -1418905.19146  20488268.2734                   20488265.8244
  -4976384.74248  -3791424.28946  21192328.6724                   21192326.7814
   7280520.83646   5714831.71143  24364209.3754                   24364210.0634
   7000615.59447   5457332.07844  22694473.2114                   22694471.9224
   5595007.62947   4365326.98445  22733612.4064                   22733609.3324
   2326650.93946   1857195.92343  24298578.8284                   24298580.3014
  -2614821.03547  -2039281.66045  22623790.1254                   22623787.5124
  -4614464.15247  -3559470.56244  23259784.7664                   23259785.9574
 11  8 13 18 33 30.0000000  0  9G11G07G08G26G13G19G17G28G24
  -4202319.44147  -3228185.07445  21973544.1484                   21973542.3134
  -1970831.24248  -1515158.60946  20464762.3754                   20464759.7274
  -5148900.97748  -3925852.52346  21159499.9924                   21159497.8834
   7080973.54746   5559340.36743  24326237.5394                   24326237.5704
   6993644.64147   5451900.06644  22693146.8674                   22693145.5904
   5572625.42247   4347886.28145  22729353.1414                   22729350.1024
   2113435.84447   1691054.44944  24258005.2194                   24258007.4924
  -2757532.19147  -2150485.11745  22596633.1254                   22596630.4454
  -4793089.41847  -3698658.99644  23225793.7344                   23225793.5824
 11  8 13 18 34  0.0000000  0  9G11G07G08G26G13G19G17G28G24
  -4353307.80147  -3345838.30945  21944812.2344                   21944809.8554
  -2094028.69948  -1611156.65246  20441318.6954                   20441315.9844
  -5321262.82848  -4060160.44946  21126700.6414                   21126698.7544
   6881749.03146   5404100.55143  24288325.7034                   24288326.2114
   6986819.74647   5446581.84044  22691847.9614                   22691847.3634
   5550487.62147   4330635.99645  22725141.1724                   22725137.2814
   1900313.13746   1524984.94944  24217448.5944                   24217451.2934
  -2900190.09048  -2261647.10945  22569486.3674                   22569484.0744
  -4971565.92247  -3837731.56644  23191830.6334                   23191830.5784
 11  8 13 18 34 30.0000000  0  9G11G07G08G26G13G19G17G28G24
  -4503886.09047  -3463172.02045  21916157.8364                   21916155.5904
  -2216896.74648  -1706897.99246  20417937.7734                   20417935.0514
  -5493468.02048  -4194346.29746  21093931.2814                   21093929.2384
   6682850.14146   5249114.41043  24250477.0234                   24250477.4344
   6980138.21547   5441375.33644  22690576.9534                   22690575.4454
   5528591.59047   4313574.13345  22720974.0864                   22720971.0434
   1687284.95346   1358989.11344  24176911.3364                   24176913.3324
  -3042794.90247  -2372767.69945  22542349.4774                   22542347.4494
  -5149890.55147  -3976685.76244  23157896.9224                   23157896.9574
 11  8 13 18 35  0.0000000  0  9G11G07G08G26G13G19G17G28G24
  -4654056.11747  -3580187.58645  21887581.5004                   21887579.2194
  -2339437.12148  -1802384.00446  20394619.0474                   20394616.1524
  -5665517.47348  -4328410.79346  21061190.8674                   21061188.8954
   6484276.12145   5094381.52043  24212688.8134                   24212690.0314
   6973593.44147   5436275.37944  22689330.9304                   22689330.6334
   5506930.82847   4296695.57845  22716852.4144                   22716848.5784
   1474349.55146   1193065.59444  24136390.4064                   24136392.9344
  -3185351.21547  -2483850.52745  22515222.0004                   22515219.3364
  -5328063.74247  -4115521.95743  23123991.0944                   23123992.1724
 11  8 13 18 35 30.0000000  0  9G11G07G08G26G13G19G17G28G24
  -4803822.52747  -3696888.66445  21859082.0704                   21859079.3754
  -2461655.20748  -1897618.85546  20371361.8524                   20371358.7304
  -5837415.58648  -4462357.37146  21028480.3284                   21028477.9064
   6286022.76246   4939898.38743  24174964.1094                   24174963.4024
   6967175.23447   5431274.05544  22688110.2114                   22688109.5474
   5485495.65247   4279992.80945  22712773.0394                   22712769.5394
   1261502.19946   1027210.64844  24095886.9534                   24095889.1254
  -3327867.24247  -2594901.96145  22488102.3914                   22488100.0124
  -5506089.60547  -4254243.31644  23090113.9064                   23090115.2664
 11  8 13 18 36  0.0000000  0  9G11G07G08G26G13G19G17G28G24
  -4953189.30147  -3813278.34445  21830658.4614                   21830655.9184
  -2583555.91448  -1992606.43747  20348164.9384                   20348162.2854
  -6009166.52748  -4596189.26646  20995797.1024                   20995795.3014
   6088086.14545   4785662.18043  24137296.8914                   24137297.5594
   6960874.26247   5426364.08244  22686911.2274                   22686910.5514
   5464276.70747   4263458.53145  22708735.3834                   22708732.2074
   1048738.26647    861420.71944  24055399.1804                   24055400.8404
  -3470350.23447  -2705927.63745  22460988.3524                   22460985.9264
  -5683971.39147  -4392852.43044  23056264.0784                   23056264.7624
 11  8 13 18 36 30.0000000  0  9G11G07G08G26G13G19G17G28G24
  -5102160.87147  -3929360.05545  21802309.8914                   21802307.9384
  -2705144.24648  -2087350.59846  20325027.3444                   20325024.4304
  -6180774.58648  -4729909.82046  20963141.0784                   20963138.8874
   5890463.07446   4631670.23443  24099689.8754                   24099690.2664
   6954680.89147   5421537.94944  22685732.7974                   22685731.5984
   5443264.80147   4247085.59845  22704736.9454                   22704733.7304
    836053.10247    695692.17244  24014926.7584                   24014928.4414
  -3612807.19147  -2816933.03945  22433879.8054                   22433877.5234
  -5861712.25047  -4531351.73444  23022441.4384                   23022442.0314
 11  8 13 18 37  0.0000000  0  9G11G07G08G26G13G19G17G28G24
  -5250745.62948  -4045140.35545  21774035.0784                   21774032.7304
  -2826428.71948  -2181857.99246  20301947.7584                   20301944.6994
  -6352247.72348  -4863525.24646  20930510.7894                   20930508.7624
   5693145.68446   4477916.47743  24062142.4144                   24062142.9774
   6948581.57847   5416785.09844  22684571.9614                   22684571.6294
   5422446.59047   4230863.57045  22700775.7664                   22700772.4774
    623438.62947    530018.68844  23974467.6024                   23974469.3754
  -3755249.44947  -2927926.98445  22406773.8054                   22406771.5784
  -6039319.46147  -4669746.91044  22988643.3284                   22988644.3984
 11  8 13 18 37 30.0000000  0  9G11G07G08G26G13G19G17G28G24
  -5398944.16047  -4160619.71945  21745833.6254                   21745831.5164
  -2947410.49648  -2276129.51646  20278925.5784                   20278923.1134
  -6523585.98848  -4997035.57446  20897905.8364                   20897904.0784
   5496133.88746   4324400.82843  24024652.5554                   24024652.2034
   6942570.60247   5412101.09044  22683428.3364                   22683427.4774
   5401816.39147   4214788.06345  22696849.8204                   22696846.5004
    410894.11746    364399.72744  23934021.5554                   23934023.2424
  -3897680.73047  -3038912.38745  22379670.3914                   22379667.6914
  -6216792.95346  -4808037.87944  22954871.6254                   22954872.1684
 11  8 13 18 38  0.0000000  0  9G11G07G08G26G13G19G17G28G24
  -5546762.69548  -4275802.96945  21717705.2114                   21717702.5664
  -3068096.73448  -2370170.74646  20255959.8834                   20255956.8164
  -6694795.78148  -5130445.79346  20865325.9304                   20865323.9844
   5299422.02346   4171118.89544  23987218.7114                   23987218.9924
   6936636.29747   5407476.82044  22682299.0084                   22682298.6914
   5381363.24647   4198850.50445  22692957.4844                   22692953.9614
    198412.89846    198830.09444  23893587.3754                   23893589.4694
  -4040110.21547  -3149896.37945  22352566.5634                   22352564.0394
  -6394137.78547  -4946228.59444  22921123.4384                   22921123.3874
 11  8 13 18 38 30.0000000  0  9G11G07G08G26G13G19G17G28G24
  -5694206.50448  -4390694.22345  21689647.3914                   21689644.6334
  -3188493.28948  -2463986.25047  20233048.8984                   20233046.5124
  -6865882.03548  -5263759.75846  20832769.3834                   20832767.2664
   5103005.31647   4018066.98044  23949841.9384                   23949842.5274
   6930768.31647   5402904.23844  22681182.8914                   22681181.7974
   5361076.63747   4183042.73045  22689097.2424                   22689093.9734
    -14010.39846     33305.59844  23853164.5164                   23853166.1294
  -4182546.62947  -3260885.78145  22325461.7424                   22325459.2814
  -6571358.67246  -5084322.70344  22887399.7114                   22887400.2344
 11  8 13 18 39  0.0000000  0  9G11G07G08G26G13G19G17G28G24
  -5841272.20347  -4505290.85245  21661661.7814                   21661659.0204
  -3308596.82848  -2557573.43447  20210193.7584                   20210191.2704
  -7036840.56648  -5396974.19546  20800237.4224                   20800234.7704
   4906888.30147   3865248.53944  23912522.3914                   23912522.7704
   6924965.06347   5398382.07044  22680078.4454                   22680077.8714
   5340955.46547   4167363.86345  22685268.5864                   22685264.7704
   -226371.67646   -132170.57044  23812753.1024                   23812755.2034
  -4324988.78947  -3371879.64845  22298356.0944                   22298353.4454
  -6748450.72346  -5222316.45744  22853700.4774                   22853701.1804
 11  8 13 18 39 30.0000000  0  9G11G07G08G26G13G19G17G28G24
  -5987960.90648  -4619593.71145  21633748.0234                   21633744.9924
  -3428408.89848  -2650933.49646  20187394.4774                   20187391.9534
  -7207672.56248  -5530090.02346  20767728.7664                   20767726.7854
   4711070.21547   3712663.07843  23875259.5474                   23875259.4964
   6919220.08647   5393905.32044  22678985.0864                   22678984.2384
   5320993.33647   4151808.91845  22681469.5394                   22681466.4534
   -438673.12146   -297600.10944  23772353.7034                   23772354.8674
  -4467441.24247  -3482881.53545  22271247.5234                   22271245.2734
  -6925414.18047  -5360209.98844  22820024.8364                   22820026.2114
 11  8 13 18 40  0.0000000  0  9G11G07G08G26G13G19G17G28G24
  -6134270.06247  -4733600.82845  21605905.7974                   21605903.6374
  -3547927.65648  -2744065.00446  20164650.8204                   20164648.0204
  -7378375.41848  -5663105.23046  20735244.9924                   20735242.9494
   4515554.19947   3560312.99243  23838054.1414                   23838054.2114
   6913531.07847   5389472.20344  22677902.6884                   22677901.7974
   5301188.21947   4136376.31345  22677700.9924                   22677697.5784
   -650911.87547   -462980.82444  23731965.5944                   23731966.8054
  -4609904.06647  -3593891.51245  22244138.4774                   22244136.0744
  -7102245.57447  -5498000.61744  22786375.3524                   22786376.1564
 11  8 13 18 40 30.0000000  0  9G11G07G08G26G13G19G17G28G24
  -4704772.98047  -3619706.97745  21877930.1954                   21877927.7074
  -2091727.81648  -1609363.84046  20441756.6334                   20441754.0514
  -5973521.06248  -4568413.52746  21002580.0474                   21002578.2544
   5895769.24247   4635805.27743  24100700.6644                   24100700.5204
   8483314.78947   6612680.14544  22976623.0554                   22976622.6294
   6856957.76247   5348664.23445  22973754.0084                   22973751.0824
    712340.77747    599294.10544  23991384.4224                   23991385.4804
  -3176953.60247  -2477306.71145  22516819.6724                   22516817.3754
  -5703516.11347  -4408081.50044  23052544.5164                   23052545.1484
 11  8 13 18 41  0.0000000  0  9G11G07G08G26G13G19G17G28G24
  -4850313.54747  -3733115.18745  21850234.8984                   21850232.7344
  -2210651.96948  -1702032.02346  20419126.2114                   20419123.5784
  -6143954.32848  -4701218.66446  20970147.6174                   20970145.8404
   5700868.82847   4483934.88343  24063611.4614                   24063612.0664
   8477731.46947   6608329.35544  22975560.6254                   22975559.8754
   6837461.62547   5333472.39145  22970044.3674                   22970040.5664
    500236.48846    434018.19544  23951021.8284                   23951022.8054
  -3319436.60947  -2588332.40645  22489706.1174                   22489704.0274
  -5880070.59847  -4545656.34044  23018947.1334                   23018948.0354
 11  8 13 18 41 30.0000000  0  9G11G07G08G26G13G19G17G28G24
  -4995463.59847  -3846219.11745  21822613.4614                   21822611.0354
  -2329273.42648  -1794464.35246  20396553.0784                   20396550.2934
  -6314245.78948  -4833913.30146  20937742.4534                   20937740.0704
   5506283.57447   4332310.03543  24026582.6724                   24026583.2154
   8472199.74247   6604018.79744  22974507.7734                   22974506.9344
   6818118.69147   5318399.92245  22966363.3594                   22966360.6994
    288205.77046    268799.59044  23910673.7734                   23910674.6954
  -3461927.48447  -2699364.24645  22462590.9454                   22462588.7304
  -6056478.78547  -4683117.19944  22985378.0394                   22985378.4844
 11  8 13 18 42  0.0000000  0  9G11G07G08G26G13G19G17G28G24
  -5140209.68447  -3959008.25045  21795069.0784                   21795067.3164
  -2447578.98048  -1886650.51246  20374040.2034                   20374037.5164
  -6484381.44148  -4966486.55146  20905366.8444                   20905364.4534
   5312027.61347   4180941.80143  23989618.4844                   23989617.0274
   8466728.16447   6599755.06644  22973466.7734                   22973465.9224
   6798937.98847   5303453.87544  22962713.9614                   22962709.5824
     76261.89847    103648.65244  23870341.5554                   23870343.7274
  -3604415.75847  -2810394.05145  22435476.0394                   22435474.2894
  -6232726.02047  -4820452.67644  22951840.0704                   22951839.5274
 11  8 13 18 42 30.0000000  0  9G11G07G08G26G13G19G17G28G24
  -5284539.81648  -4071473.27045  21767604.6484                   21767601.6414
  -2565557.19548  -1978581.60246  20351589.7114                   20351587.0354
  -6654349.23848  -5098928.98846  20873022.8754                   20873020.6254
   5118113.62146   4029840.03943  23952716.4304                   23952717.0354
   8461323.64547   6595543.60944  22972438.3914                   22972438.2854
   6779926.21547   5288639.47745  22959095.7504                   22959091.8834
   -135582.92247    -61425.07444  23830029.6644                   23830030.6024
  -3746892.24247  -2921414.67245  22408364.1254                   22408361.8094
  -6408799.44547  -4957652.68444  22918333.7584                   22918333.6254
 11  8 13 18 43  0.0000000  0  9G11G07G08G26G13G19G17G28G24
  -5428435.17248  -4183599.51245  21740222.2274                   21740219.7074
  -2683189.83247  -2070243.40646  20329205.3674                   20329202.2704
  -6824129.52748  -5231225.31646  20840714.4144                   20840712.3984
   4924560.94946   3879019.85543  23915884.9774                   23915884.4454
   8455999.90647   6591395.09044  22971425.5084                   22971425.4104
   6761098.39147   5273968.38345  22955513.3834                   22955509.4144
   -347310.11747   -226407.15244  23789738.4924                   23789740.3364
  -3889341.02347  -3032413.70345  22381257.0394                   22381254.6844
  -6584679.14547  -5094701.71144  22884865.1334                   22884865.3954
 11  8 13 18 43 30.0000000  0  9G11G07G08G26G13G19G17G28G24
  -5571888.32447  -4295381.17645  21712923.6884                   21712921.2034
  -2800469.87147  -2161630.46146  20306887.1724                   20306884.7154
  -6993714.21148  -5363369.22746  20808443.7424                   20808441.5784
   4731378.10546   3728487.80143  23879123.1094                   23879123.2814
   8450759.42247   6587311.43844  22970428.5314                   22970428.4494
   6742456.78147   5259442.41445  22951965.9224                   22951961.7114
   -558912.04747   -391291.64144  23749472.2584                   23749472.6764
  -4031757.38347  -3143387.46545  22354155.8054                   22354153.2114
  -6760356.55947  -5231593.15244  22851434.3984                   22851434.6684
 11  8 13 18 44  0.0000000  0  9G11G07G08G26G13G19G17G28G24
  -5714890.33248  -4406811.28945  21685711.0164                   21685708.5204
  -2917388.28548  -2252735.75846  20284638.8444                   20284635.8524
  -7163093.73048  -5495353.27046  20776211.9844                   20776209.9414
   4538574.60246   3578251.33643  23842434.2034                   23842433.8754
   8445606.53947   6583296.05944  22969448.0634                   22969447.7304
   6724005.55547   5245064.79345  22948454.5474                   22948450.5234
   -770379.67647   -556071.49244  23709231.2344                   23709232.1294
  -4174134.84447  -3254330.91845  22327061.9534                   22327060.2934
  -6935821.18747  -5368318.75044  22818044.2504                   22818044.7854
 11  8 13 18 44 30.0000000  0  9G11G07G08G26G13G19G17G28G24
  -5857429.17647  -4517880.50845  21658587.2034                   21658584.7274
  -3033933.82048  -2343550.46946  20262460.7974                   20262458.2034
  -7332255.97348  -5627167.99646  20744021.2974                   20744019.3204
   4346163.12546   3428320.38743  23805818.5474                   23805818.7384
   8440547.67247   6579353.93844  22968485.8524                   22968484.8834
   6705751.85547   5230841.09845  22944981.1254                   22944977.5394
   -981701.24647   -720737.49644  23669017.7734                   23669018.5234
  -4316464.07447  -3365236.79345  22299977.6954                   22299975.9924
  -7111060.08647  -5504868.50844  22784697.7034                   22784697.6374
 11  8 13 18 45  0.0000000  0  9G11G07G08G26G13G19G17G28G24
  -5999500.57047  -4628585.46945  21631551.3054                   21631549.2814
  -3150102.64548  -2434071.64546  20240354.5164                   20240351.8244
  -7501195.65248  -5758809.30146  20711873.1954                   20711871.1604
   4154148.83246   3278698.88343  23769280.0314                   23769280.1844
   8435582.77347   6575485.03544  22967540.7034                   22967540.7194
   6687695.65247   5216771.28544  22941544.5394                   22941541.8794
  -1192871.96547   -885285.97744  23628833.5784                   23628834.1954
  -4458743.71147  -3476104.02745  22272902.8674                   22272900.4344
  -7286067.54747  -5641237.89844  22751394.1954                   22751394.4494
 11  8 13 18 45 30.0000000  0  9G11G07G08G26G13G19G17G28G24
  -6141101.06647  -4738923.50445  21604605.9384                   21604603.5354
  -3265892.03148  -2524297.15247  20218320.4844                   20218317.9884
  -7669908.91848  -5890274.18046  20679768.2114                   20679766.0434
   3962535.65246   3129389.96543  23732817.1254                   23732817.7114
   8430709.94547   6571687.87944  22966613.6254                   22966613.9104
   6669835.50447   5202854.25444  22938145.9224                   22938142.7504
  -1403888.99247  -1049714.66844  23588677.8674                   23588679.4844
  -4600973.04347  -3586932.05945  22245837.6254                   22245835.3404
  -7460839.45347  -5777423.74244  22718136.1804                   22718136.6914
 11  8 13 18 46  0.0000000  0  9G11G07G08G26G13G19G17G28G24
  -6282231.95747  -4848895.61345  21577749.6804                   21577747.3714
  -3381303.35548  -2614228.06646  20196358.4614                   20196356.0274
  -7838396.11348  -6021562.89546  20647706.0784                   20647703.8594
   3771323.10546   2980393.24643  23696430.6174                   23696431.0164
   8425923.42247   6567957.95344  22965703.2734                   22965703.1294
   6652166.00047   5189085.77044  22934783.5394                   22934780.3524
  -1614752.97347  -1214024.11744  23548551.8284                   23548552.5314
  -4743155.67647  -3697723.70345  22218781.1804                   22218778.5474
  -7635375.45747  -5913425.76244  22684923.3914                   22684923.1094
 11  8 13 18 46 30.0000000  0  9G11G07G08G26G13G19G17G28G24
  -6422892.79747  -4958501.44545  21550982.8284                   21550980.0084
  -3496336.59848  -2703864.36747  20174468.4534                   20174466.0744
  -8006656.62548  -6152674.98446  20615687.4384                   20615684.8634
   3580512.64146   2831709.80943  23660120.9224                   23660120.6844
   8421218.56347   6564291.66444  22964807.8444                   22964807.9144
   6634682.46947   5175462.18444  22931457.0554                   22931453.8874
  -1825463.43747  -1378213.94944  23508455.2114                   23508455.5514
  -4885294.12547  -3808480.92645  22191732.8984                   22191730.9774
  -7809674.25047  -6049242.93444  22651754.9614                   22651755.8204
 11  8 13 18 47  0.0000000  0  9G11G07G08G26G13G19G17G28G24
  -4987662.84848  -3840140.43445  21824098.3754                   21824095.7384
  -2035571.95348  -1565606.20746  20452442.6334                   20452439.9804
  -6599267.57048  -5056008.17246  20883504.6644                   20883502.4844
   4965527.47347   3910942.22743  23923680.2664                   23923680.1724
   9992007.13347   7788282.59044  23263718.9924                   23263719.4574
   8192797.46147   6389577.70344  23227956.8364                   23227953.1024
   -460597.19147   -314681.70744  23768180.7504                   23768181.2704
  -3451969.63347  -2691604.68445  22464485.8674                   22464483.2774
  -6408312.41847  -4957272.59844  22918426.1254                   22918426.1414
 11  8 13 18 47 30.0000000  0  9G11G07G08G26G13G19G17G28G24
  -5127393.16847  -3949021.17645  21797507.7344                   21797505.7664
  -2149859.03548  -1654661.09846  20430694.7814                   20430691.8244
  -6767081.39148  -5186772.19146  20851570.7894                   20851568.4414
   4775513.91447   3762879.76243  23887522.0634                   23887521.9574
   9987442.30547   7784725.41844  23262850.3754                   23262850.4184
   8175663.42647   6376226.46144  23224695.8284                   23224692.7234
   -671009.77347   -478639.42244  23728139.7114                   23728140.6294
  -3594036.08647  -2802305.80545  22437451.3054                   22437449.0004
  -6582141.87147  -5092724.06644  22885347.0634                   22885347.3324
 11  8 13 18 48  0.0000000  0  9G11G07G08G26G13G19G17G28G24
  -5266658.66447  -4057539.72745  21771006.6954                   21771004.3984
  -2263774.56648  -1743426.44947  20409017.3524                   20409014.6604
  -6934671.14548  -5317361.60546  20819679.2274                   20819677.2704
   4585899.44147   3615128.27343  23851439.1094                   23851439.3054
   9982939.57447   7781216.63344  23261993.7424                   23261993.6484
   8158696.92647   6363005.76245  23221467.4304                   23221464.1604
   -881273.71947   -642481.32044  23688127.8834                   23688128.4884
  -3736071.12147  -2912982.44545  22410423.1644                   22410420.2734
  -6755735.32847  -5227991.63344  22852313.0394                   22852312.9264
 11  8 13 18 48 30.0000000  0  9G11G07G08G26G13G19G17G28G24
  -5405458.77047  -4165695.62945  21744594.0784                   21744591.5044
  -2377318.06648  -1831901.91446  20387411.1414                   20387407.8364
  -7102035.53948  -5447775.41446  20787830.8914                   20787829.3914
   4396685.57047   3467688.97743  23815432.8054                   23815433.1094
   9978495.23447   7777753.33244  23261147.7974                   23261148.5634
   8141893.74247   6349912.33245  23218270.1174                   23218267.0204
  -1091388.14847   -806206.72344  23648144.0314                   23648145.1454
  -3878076.55948  -3023636.02345  22383400.3054                   22383397.9344
  -6929090.91047  -5363073.83644  22819324.8834                   22819324.3164
 11  8 13 18 49  0.0000000  0  9G11G07G08G26G13G19G17G28G24
  -5543800.11748  -4273494.05545  21718268.3204                   21718266.3594
  -2490496.25848  -1920092.71947  20365873.7974                   20365870.6054
  -7269180.27048  -5578018.06246  20756024.1334                   20756021.8794
   4207866.49246   3320557.26643  23779501.6414                   23779502.0744
   9974097.77347   7774326.57444  23260311.4534                   23260312.1094
   8125243.16447   6336937.80945  23215101.2664                   23215098.1764
  -1301359.77747   -969820.85544  23608188.6884                   23608188.9144
  -4020061.46947  -3134273.60545  22356381.5234                   22356379.1994
  -7102214.19947  -5497975.04344  22786380.3054                   22786380.4924
 11  8 13 18 49 30.0000000  0  9G11G07G08G26G13G19G17G28G24
  -5681687.15648  -4380938.48845  21692029.3204                   21692027.3754
  -2603314.25048  -2008002.84847  20344404.8754                   20344402.3404
  -7436109.28948  -5708092.62546  20724258.5554                   20724256.3284
   4019438.23447   3173730.09043  23743644.9534                   23743645.0084
   9969737.83247   7770929.04344  23259481.4694                   23259481.9184
   8108736.14547   6324075.13745  23211960.6254                   23211957.4344
  -1511192.57447  -1133326.80944  23568257.8054                   23568259.0514
  -4162032.90648  -3244900.69145  22329365.6094                   22329363.0164
  -7275108.28547  -5632697.65244  22753479.8364                   22753479.5314
 11  8 13 18 50  0.0000000  0  9G11G07G08G26G13G19G17G28G24
  -5819123.14148  -4488031.44145  21665876.6024                   21665873.8634
  -2715775.51248  -2095635.00846  20323004.3834                   20323001.6994
  -7602824.90648  -5838000.90246  20692533.8284                   20692531.9104
   3831398.31647   3027205.52044  23707862.1484                   23707862.5234
   9965407.31347   7767554.43044  23258657.9694                   23258659.0234
   8092364.89547   6311318.27345  23208845.1334                   23208841.8014
  -1720889.93447  -1296727.23044  23528353.3834                   23528354.1764
  -4303996.44948  -3355521.62945  22302350.3914                   22302348.0984
  -7447774.88347  -5767243.00044  22720622.7734                   22720622.6684
 11  8 13 18 50 30.0000000  0  9G11G07G08G26G13G19G17G28G24
  -5956118.09848  -4594780.73045  21639806.9694                   21639804.3164
  -2827890.34048  -2182997.22747  20301669.7344                   20301667.4304
  -7769335.97348  -5967749.77746  20660847.5634                   20660845.6174
   3643738.00047   2880976.75444  23672151.6024                   23672151.6804
   9961092.12547   7764191.76643  23257836.6884                   23257837.4104
   8076115.64547   6298656.46944  23205752.8834                   23205749.7274
  -1930460.66847  -1460028.97344  23488473.9384                   23488474.2274
  -4445964.18047  -3466145.82045  22275334.7034                   22275332.2114
  -7620222.55547  -5901617.75444  22687806.6724                   22687806.3554
 11  8 13 18 51  0.0000000  0  9G11G07G08G26G13G19G17G28G24
  -6092678.65648  -4701191.53545  21613820.6024                   21613817.5164
  -2939665.82048  -2270095.00846  20280399.4694                   20280396.8984
  -7935648.45748  -6097343.92246  20629199.3204                   20629197.4344
   3456451.09447   2735038.93844  23636512.3524                   23636512.4184
   9956780.30547   7760831.72343  23257016.5314                   23257016.3954
   8059976.77347   6286080.68044  23202682.2114                   23202678.1334
  -2139912.45747  -1623238.06244  23448616.7034                   23448616.7384
  -4587945.41448  -3576780.53145  22248316.9454                   22248314.2704
  -7792456.79347  -6035826.20344  22655031.2584                   22655031.4774
 11  8 13 18 51 30.0000000  0  9G11G07G08G26G13G19G17G28G24
  -6228817.69148  -4807273.87145  21587913.8834                   21587911.5554
  -3051115.02048  -2356938.54746  20259191.5784                   20259188.6334
  -8101774.46548  -6226792.75446  20597587.1724                   20597584.9694
   3269525.66847   2589382.83244  23600941.6174                   23600941.2544
   9952455.08247   7757461.24243  23256193.1024                   23256194.2934
   8043931.07447   6273577.46944  23199628.2814                   23199624.9924
  -2349257.29747  -1786363.82444  23408778.6954                   23408779.5234
  -4729955.63748  -3687437.83645  22221292.9534                   22221290.7034
  -7964489.05147  -6169877.25844  22622294.3674                   22622294.8874
 11  8 13 18 52  0.0000000  0  9G11G07G08G26G13G19G17G28G24
  -6364541.71948  -4913032.84045  21562086.2424                   21562084.0164
  -3162244.58248  -2443533.02046  20238044.0084                   20238041.1994
  -8267719.65248  -6356100.68046  20566008.3754                   20566006.1484
   3082956.17647   2444004.05544  23565438.5314                   23565438.9614
   9948105.02047   7754071.39843  23255366.1564                   23255365.6644
   8027968.33647   6261138.94544  23196591.2274                   23196587.4024
  -2558501.13347  -1949410.85244  23368961.7034                   23368962.1024
  -4872003.13347  -3798124.18045  22194262.5004                   22194259.6604
  -8136324.26247  -6303774.78544  22589595.5474                   22589595.1644
 11  8 13 18 52 30.0000000  0  9G11G07G08G26G13G19G17G28G24
  -6499859.16848  -5018474.99245  21536336.4534                   21536333.7114
  -3273062.87948  -2529884.95746  20216956.3134                   20216953.5664
  -8433490.48448  -6485272.75446  20534463.5784                   20534461.2544
   2896735.55147   2298897.11744  23530001.5314                   23530001.6374
   9943717.81347   7750652.60943  23254531.5634                   23254531.5124
   8012076.05147   6248755.29344  23193566.7424                   23193563.2664
  -2767652.14147  -2112385.56244  23329161.6804                   23329161.8484
  -5014098.43747  -3908847.77745  22167222.3444                   22167220.2274
  -8307969.30147  -6437524.12144  22556932.4304                   22556932.2934
 11  8 13 18 53  0.0000000  0  9G11G07G08G26G13G19G17G28G24
  -6634774.53548  -5123603.83245  21510662.8054                   21510660.4804
  -3383575.44948  -2615998.65646  20195926.1724                   20195923.3834
  -8599091.34448  -6614312.38346  20502950.3914                   20502948.5634
   2710859.34447   2154058.59044  23494630.6804                   23494631.0354
   9939283.51647   7747197.11744  23253687.7734                   23253688.0784
   7996244.48447   6236418.93844  23190554.3914                   23190550.5234
  -2976715.17247  -2275291.70744  23289377.8204                   23289378.0744
  -5156249.34047  -4019614.70745  22140171.7734                   22140169.3754
  -8479427.90647  -6571128.16444  22524305.1094                   22524305.4304
 11  8 13 18 53 30.0000000  0  9G11G07G08G26G13G19G17G28G24
  -6769296.46548  -5228426.10245  21485063.7344                   21485061.5664
  -3493790.80548  -2701880.77046  20174953.3054                   20174950.2464
  -8764529.64848  -6743225.35246  20471468.9224                   20471466.5824
   2525320.25847   2009482.73043  23459323.9304                   23459323.6334
   9934789.71547   7743695.24244  23252832.8524                   23252833.3164
   7980461.31347   6224120.33644  23187550.8524                   23187546.9454
  -3185698.10947  -2438135.47744  23249609.2584                   23249609.9534
  -5298465.93047  -4130432.81245  22113108.9304                   22113106.7464
  -8650706.67647  -6704592.09044  22491712.2974                   22491712.2384
 11  8 13 18 54  0.0000000  0  9G11G07G08G26G13G19G17G28G24
  -5327994.43447  -4105333.59445  21759334.8364                   21759332.7424
  -2028279.54348  -1559923.96147  20453830.6254                   20453828.0044
  -7354372.77748  -5644401.80946  20739812.8674                   20739810.6764
   3915551.23047   3092779.61343  23723875.8134                   23723875.4614
  11505657.76647   8967748.07444  23551759.2974                   23551759.5864
   9540148.93046   7439461.28544  23484349.5234                   23484345.6414
  -1819167.62547  -1373306.41044  23509651.5554                   23509651.9104
  -3865319.75847  -3013695.52345  22385827.6954                   22385825.3594
  -7246372.71147  -5610305.81644  22758947.6414                   22758948.0864
 11  8 13 18 54 30.0000000  0  9G11G07G08G26G13G19G17G28G24
  -5461722.19548  -4209537.02745  21733887.1954                   21733884.5004
  -2137893.95348  -1645337.80546  20432971.9844                   20432968.9844
  -7519475.61348  -5773053.36746  20708394.4534                   20708392.7814
   3730696.04347   2948736.64144  23688699.1564                   23688698.5394
  11501038.40647   8964148.37544  23550880.0234                   23550880.9924
   9524457.30947   7427233.99644  23481363.6094                   23481360.2664
  -2027982.02047  -1536018.82045  23469915.4534                   23469916.0744
  -4007667.35547  -3124615.70745  22358739.8134                   22358737.5514
  -7417280.66847  -5743480.78944  22726424.7734                   22726425.0004
 11  8 13 18 55  0.0000000  0  9G11G07G08G26G13G19G17G28G24
  -5595051.24647  -4313429.79345  21708515.3754                   21708513.1484
  -2247206.50848  -1730516.41446  20412170.2814                   20412167.4224
  -7684407.22348  -5901571.51246  20677009.0704                   20677006.7974
   3546186.01647   2804962.61343  23653587.4384                   23653587.8524
  11496351.51647   8960496.03144  23549988.3284                   23549988.9614
   9508806.95347   7415038.87944  23478385.4694                   23478381.7704
  -2236709.78547  -1698663.72744  23430195.8754                   23430196.2154
  -4150081.98847  -3235588.13345  22331639.3054                   22331636.9344
  -7587999.16847  -5876508.14144  22693937.8204                   22693938.2734
 11  8 13 18 55 30.0000000  0  9G11G07G08G26G13G19G17G28G24
  -5727981.05948  -4417011.44945  21683219.8444                   21683217.6214
  -2356217.07848  -1815459.72347  20391426.3364                   20391423.6334
  -7849166.43048  -6029955.29746  20645656.7504                   20645654.2114
   3362022.14846   2661458.35543  23618543.2734                   23618542.8524
  11491592.91047   8956787.81644  23549082.6254                   23549084.0084
   9493194.35247   7402873.14144  23475414.6174                   23475411.8244
  -2445350.38347  -1861240.69544  23390492.7274                   23390493.2114
  -4292565.87147  -3346614.51645  22304525.4064                   22304523.2194
  -7758526.30147  -6009386.39144  22661487.6174                   22661487.6804
 11  8 13 18 56  0.0000000  0  9G11G07G08G26G13G19G17G28G24
  -5860513.61748  -4520283.56245  21657999.3444                   21657997.4924
  -2464927.92648  -1900169.49246  20370739.3674                   20370736.4884
  -8013754.20348  -6158205.51646  20614336.3364                   20614334.4844
   3178203.57447   2518223.11343  23583563.4224                   23583562.7464
  11486756.36347   8953018.86343  23548163.2894                   23548163.5554
   9477613.15647   7390731.91444  23472449.6804                   23472446.6334
  -2653905.20347  -2023750.84844  23350805.9064                   23350806.7774
  -4435122.35247  -3457697.49245  22277397.8674                   22277395.2194
  -7928862.66447  -6142115.98044  22629073.4454                   22629074.0984
 11  8 13 18 56 30.0000000  0  9G11G07G08G26G13G19G17G28G24
  -5992652.68747  -4623249.06245  21632854.1884                   21632851.8164
  -2573342.82048  -1984648.64546  20350108.4924                   20350105.8674
  -8178172.86348  -6286323.94546  20583048.8914                   20583046.6374
   2994727.34046   2375254.67643  23548648.6254                   23548648.6644
  11481834.11347   8949183.12943  23547226.3754                   23547227.6724
   9462055.80147   7378609.24644  23469489.4144                   23469485.4064
  -2862377.64847  -2186196.80144  23311135.0394                   23311135.1564
  -4577757.69548  -3568841.90245  22250255.2894                   22250252.8914
  -8099010.25847  -6274698.46544  22596695.9844                   22596695.8914
 11  8 13 18 57  0.0000000  0  9G11G07G08G26G13G19G17G28G24
  -6124399.02347  -4725908.52345  21607783.9694                   21607781.6914
  -2681462.63348  -2068897.85546  20329534.2584                   20329531.2304
  -8342421.83648  -6414310.14546  20551793.0554                   20551791.0634
   2811593.55146   2232553.06343  23513799.7114                   23513798.8914
  11476821.03947   8945276.60943  23546272.3914                   23546274.0704
   9446517.48847   7366501.41444  23466532.3364                   23466529.5314
  -3070768.08647  -2348578.85945  23271479.3914                   23271479.6174
  -4720474.46147  -3680049.75045  22223096.9064                   22223094.2344
  -8268968.67647  -6407133.53944  22564354.0704                   22564354.0864
 11  8 13 18 57 30.0000000  0  9G11G07G08G26G13G19G17G28G24
  -6255758.77348  -4828266.75845  21582786.7734                   21582784.8714
  -2789293.88348  -2152922.22746  20309014.5704                   20309011.8244
  -8506505.85948  -6542167.82846  20520568.9144                   20520566.4884
   2628797.52346   2090114.63343  23479014.3054                   23479013.9694
  11471706.16047   8941290.76643  23545299.5864                   23545300.5354
   9430988.30946   7354400.68844  23463577.5554                   23463573.5314
  -3279081.82447  -2510901.16044  23231838.6334                   23231839.2304
  -4863280.60548  -3791327.25845  22195921.9144                   22195919.5084
  -8438742.15247  -6539424.52044  22532046.7504                   22532046.8364
 11  8 13 18 58  0.0000000  0  9G11G07G08G26G13G19G17G28G24
  -6386728.99247  -4930321.46145  21557863.8674                   21557862.2194
  -2896833.63348  -2236719.44546  20288550.5474                   20288547.5084
  -8670421.14848  -6669894.02346  20489377.0944                   20489374.7624
   2446342.61746   1947942.00043  23444294.2584                   23444294.2424
  11466488.70747   8937224.97343  23544306.7194                   23544307.6054
   9415467.10946   7342306.17644  23460623.4384                   23460620.4344
  -3487315.82447  -2673161.32844  23192212.7194                   23192213.2974
  -5006175.35948  -3902673.80545  22168730.0474                   22168727.3914
  -8608326.42247  -6671568.07044  22499776.3834                   22499776.3954
 11  8 13 18 58 30.0000000  0  9G11G07G08G26G13G19G17G28G24
  -6517310.50048  -5032073.27045  21533015.4384                   21533013.1454
  -3004082.89548  -2320290.31246  20268141.7344                   20268138.7544
  -8834167.38348  -6797488.48846  20458217.2584                   20458215.2464
   2264229.27747   1806035.54743  23409639.4534                   23409639.3094
  11461163.67647   8933075.37943  23543293.2664                   23543294.5554
   9399949.15646   7330214.20744  23457670.8364                   23457667.6764
  -3695470.40247  -2835359.58644  23152602.7584                   23152602.5164
  -5149161.54748  -4014091.59845  22141520.5634                   22141517.9924
  -8777720.46147  -6803563.37144  22467541.1884                   22467541.3794
 11  8 13 18 59  0.0000000  0  9G11G07G08G26G13G19G17G28G24
  -6647499.10247  -5133518.91445  21508241.0634                   21508238.7194
  -3111037.66448  -2403631.70746  20247788.6414                   20247785.9924
  -8997738.70748  -6924946.66446  20427090.3594                   20427088.5164
   2082462.41046   1664399.05543  23375050.2344                   23375050.2814
  11455730.92647   8928841.85543  23542259.1414                   23542260.5084
   9384434.58246   7318124.85544  23454718.4384                   23454715.1294
  -3903540.84447  -2997492.32845  23113007.6094                   23113008.0044
  -5292236.89548  -4125578.87545  22114294.1254                   22114291.6254
  -8946918.62947  -6935406.07044  22435343.7194                   22435343.8634
 11  8 13 18 59 30.0000000  0  9G11G07G08G26G13G19G17G28G24
  -6777285.89148  -5234651.47345  21483543.7974                   21483541.6454
  -3217689.19548  -2486736.80946  20227493.1484                   20227490.6844
  -9161125.12548  -7052260.75046  20395998.7974                   20395996.8444
   1901052.20347   1523040.47343  23340528.9224                   23340528.2304
  11450195.42247   8924528.22343  23541206.8834                   23541207.7774
   9368928.84446   7306042.40644  23451767.0704                   23451764.1024
  -4111517.72747  -3159552.15244  23073431.3674                   23073431.0394
  -5435394.67248  -4237130.37145  22087052.2194                   22087049.9734
  -9115910.22347  -7067087.79744  22403185.9224                   22403185.7384
 11  8 13 19  0  0.0000000  0  9G11G07G08G26G13G19G17G28G24
  -6906660.21948  -5335462.61745  21458924.3204                   21458922.1524
  -3324027.00448  -2569597.45346  20207258.3914                   20207255.6094
  -9324314.41048  -7179421.23446  20364945.1564                   20364942.9454
   1720009.90647   1381968.59043  23306077.7734                   23306077.3134
  11444563.65647   8920139.57443  23540135.9144                   23540136.2304
   9353438.58246   7293972.01244  23448820.1954                   23448816.5594
  -4319389.74247  -3321530.24644  23033874.5234                   23033874.6914
  -5578625.72348  -4348738.96145  22059796.3984                   22059794.1454
  -9284682.83247  -7198598.87944  22371069.7504                   22371069.5164
 11  8 13 19  0 30.0000000  0  9G11G07G08G26G13G19G17G28G24
  -7035610.81248  -5435943.57845  21434385.9534                   21434383.5824
  -3430040.08248  -2652205.05947  20187084.4064                   20187082.0234
  -9487294.52048  -7306418.72746  20333931.3134                   20333928.8554
   1539347.51246   1241192.72344  23271698.9454                   23271698.7154
  11438842.63347   8915681.44143  23539046.5004                   23539047.6174
   9337971.02746   7281919.33244  23445876.6024                   23445873.6374
  -4527145.34447  -3483417.65645  22994339.4774                   22994339.7344
  -5721920.91448  -4460397.52745  22032528.1644                   22032525.9264
  -9453223.91047  -7329929.56644  22338997.2734                   22338997.0704
 11  8 13 19  1  0.0000000  0  9G11G07G08G26G13G19G17G28G24
  -5588699.57048  -4308480.25845  21709724.1804                   21709721.6374
  -1960290.98048  -1506946.03147  20466768.4304                   20466765.7774
  -8074624.14848  -6205636.61746  20602753.2974                   20602751.3794
   2934506.60947   2328329.71143  23537189.2194                   23537188.3554
  13008462.54346  10138761.64143  23837735.5314                   23837737.2384
  10897957.42246   8497493.08644  23742732.7194                   23742729.2854
  -3159342.75047  -2417597.35244  23254623.3914                   23254623.5704
  -4289842.98848  -3344492.63745  22305043.2504                   22305040.9494
  -8046092.16047  -6233463.21944  22606765.6334                   22606765.7664
 11  8 13 19  1 30.0000000  0  9G11G07G08G26G13G19G17G28G24
  -5716767.76248  -4408273.62945  21685353.6804                   21685351.2384
  -2065619.53148  -1589020.24246  20446724.9774                   20446722.6724
  -8237145.99248  -6332277.02346  20571826.5784                   20571824.6954
   2754642.88347   2188176.18044  23502961.9224                   23502961.2234
  13002585.97747  10134182.25443  23836617.5314                   23836618.7464
  10882559.85947   8485494.97344  23739802.9224                   23739799.2154
  -3366828.37147  -2579274.35945  23215140.6174                   23215140.1334
  -4433236.28148  -3456227.65645  22277756.0704                   22277754.0864
  -8214130.31247  -6364401.99644  22574789.1564                   22574788.4024
 11  8 13 19  2  0.0000000  0  9G11G07G08G26G13G19G17G28G24
  -5844377.02348  -4507709.39845  21661069.9304                   21661067.9144
  -2170588.12948  -1670813.96146  20426750.5634                   20426747.5634
  -8399418.89148  -6458723.44146  20540946.9064                   20540944.9734
   2575197.75847   2048348.82844  23468814.7504                   23468814.3244
  12996643.63747  10129551.60243  23835486.9924                   23835488.6644
  10867209.41047   8473533.53944  23736881.1174                   23736878.0124
  -3574160.06247  -2740831.43445  23175686.0554                   23175686.4454
  -4576663.12148  -3567988.81245  22250463.7034                   22250460.6604
  -8381896.48447  -6495128.85544  22542863.8594                   22542863.8674
 11  8 13 19  2 30.0000000  0  9G11G07G08G26G13G19G17G28G24
  -5971528.17648  -4606788.20345  21636874.0234                   21636871.9184
  -2275198.14148  -1752328.25846  20406843.6564                   20406841.1414
  -8561442.57448  -6584975.67246  20510115.0314                   20510112.4804
   2396171.14147   1908847.62144  23434746.9064                   23434747.0474
  12990630.29747  10124865.63743  23834343.2194                   23834344.2774
  10851901.25847   8461605.03144  23733968.0554                   23733965.5634
  -3781338.73847  -2902269.27045  23136261.2114                   23136261.3134
  -4720127.23448  -3679779.01245  22223162.7814                   22223160.7624
  -8549390.13747  -6625643.35945  22510991.1174                   22510990.7584
 11  8 13 19  3  0.0000000  0  9G11G07G08G26G13G19G17G28G24
  -6098214.59848  -4705504.87545  21612766.3754                   21612763.9454
  -2379442.67648  -1833557.77746  20387006.8674                   20387003.8324
  -8723208.85548  -6711027.33246  20479331.8984                   20479329.4494
   2217570.54747   1769678.33644  23400760.4694                   23400760.3364
  12984548.95347  10120126.64543  23833185.9694                   23833187.8754
  10836638.50847   8449711.92244  23731064.3754                   23731061.2624
  -3988356.76247  -3063581.90245  23096867.3134                   23096866.7774
  -4863622.89548  -3791593.80945  22195856.7814                   22195854.3014
  -8716602.63747  -6755938.77344  22479171.2664                   22479171.2194
 11  8 13 19  3 30.0000000  0  9G11G07G08G26G13G19G17G28G24
  -6224434.25448  -4803857.82845  21588747.7274                   21588745.4414
  -2483319.78948  -1914500.99646  20367239.4774                   20367236.7854
  -8884713.74248  -6836875.30146  20448598.3594                   20448596.4414
   2039399.25847   1630843.58644  23366855.7814                   23366855.3164
  12978397.84846  10115333.32443  23832014.9844                   23832017.0824
  10821419.65646   8437853.03944  23728168.2274                   23728165.0904
  -4195211.62947  -3224767.41445  23057503.7894                   23057503.7974
  -5007149.65648  -3903432.82845  22168544.2664                   22168541.9384
  -8883530.22747  -6886012.16844  22447406.0944                   22447406.0514
 11  8 13 19  4  0.0000000  0  9G11G07G08G26G13G19G17G28G24
  -6350192.32848  -4901851.11745  21564816.6564                   21564814.4344
  -2586834.98848  -1995162.20746  20347541.2504                   20347538.5354
  -9045961.16448  -6962522.64546  20417914.0864                   20417911.6884
   1861653.36347   1492340.32044  23333031.5474                   23333031.3244
  12972167.64146  10110478.31343  23830829.2584                   23830832.1374
  10806236.18846   8426021.69144  23725278.6484                   23725276.3134
  -4401907.65247  -3385829.14545  23018170.5084                   23018170.8364
  -5150714.49248  -4015301.52345  22141224.7894                   22141222.6054
  -9050176.46147  -7015866.34045  22415694.4454                   22415694.0704
 11  8 13 19  4 30.0000000  0  9G11G07G08G26G13G19G17G28G24
  -6475486.21147  -4999482.69545  21540974.2974                   21540971.5434
  -2689985.37948  -2075539.14146  20327912.4924                   20327909.6174
  -9206947.02048  -7087966.18046  20387279.5784                   20387277.4064
   1684336.08247   1354171.00844  23299289.1954                   23299289.5784
  12965857.29346  10105560.85243  23829629.2974                   23829631.6884
  10791087.13346   8414217.15644  23722395.8204                   23722393.0634
  -4608441.57447  -3546764.56245  22978868.5784                   22978868.5164
  -5294316.50848  -4127199.18745  22113898.2194                   22113896.3054
  -9216536.93747  -7145497.84845  22384036.9614                   22384036.8754
 11  8 13 19  5  0.0000000  0  9G11G07G08G26G13G19G17G28G24
  -6600323.32048  -5096758.35245  21517218.3984                   21517215.9534
  -2792778.93448  -2155638.02746  20308351.3834                   20308348.6484
  -9367677.33248  -7213210.58246  20356693.4694                   20356691.1724
   1507441.00446   1216330.70344  23265627.1174                   23265627.2114
  12959455.17246  10100571.92643  23828410.9384                   23828413.8794
  10775961.25446   8402430.68044  23719518.0864                   23719515.2854
  -4814820.28147  -3707579.04745  22939596.1254                   22939595.8554
  -5437964.93448  -4239133.00845  22086562.8914                   22086560.6684
  -9382617.62947  -7274911.33645  22352432.7734                   22352432.6524
 11  8 13 19  5 30.0000000  0  9G11G07G08G26G13G19G17G28G24
  -6724706.88348  -5193680.59045  21493548.6564                   21493546.3674
  -2895218.21948  -2235460.86346  20288858.0784                   20288855.2304
  -9528153.59848  -7338257.02046  20326155.9454                   20326153.6214
   1330966.35246   1078818.02344  23232044.8984                   23232044.6764
  12952954.93046  10095506.49243  23827174.8054                   23827177.1484
  10760852.06646   8390657.21544  23716642.4304                   23716639.6174
  -5021045.93447  -3868274.26645  22900352.8594                   22900352.3754
  -5581663.82848  -4351106.15645  22059218.2114                   22059215.6024
  -9548419.62547  -7404107.66445  22320882.0084                   22320881.5354
 11  8 13 19  6  0.0000000  0  9G11G07G08G26G13G19G17G28G24
  -6848636.76247  -5290249.30945  21469965.5944                   21469963.6604
  -2997303.51248  -2315007.85246  20269431.6334                   20269429.0554
  -9688374.03148  -7463104.10546  20295666.9384                   20295664.6214
   1154912.86747    941633.51644  23198543.5004                   23198543.1484
  12946352.68446  10090361.60943  23825918.3204                   23825920.1564
  10745756.30946   8378894.20744  23713769.7974                   23713767.1374
  -5227118.08247  -4028849.86745  22861138.4844                   22861138.0394
  -5725414.94548  -4463120.01245  22031863.2584                   22031860.7304
  -9713941.19947  -7533085.46144  22289383.5004                   22289383.9024
 11  8 13 19  6 30.0000000  0  9G11G07G08G26G13G19G17G28G24
  -6972115.29348  -5386466.32845  21446468.7584                   21446466.3524
  -3099037.07848  -2394280.78147  20250072.1644                   20250069.7894
  -9848339.59848  -7587752.59046  20265226.4064                   20265224.1954
    979279.26247    804776.17644  23165121.4384                   23165120.9804
  12939642.29346  10085132.44543  23824642.5234                   23824643.2624
  10730668.33246   8367137.27344  23710898.7814                   23710896.1134
  -5433037.98847  -4189306.84045  22821953.1644                   22821953.1294
  -5869222.10248  -4575177.52345  22004497.0164                   22004494.8134
  -9879182.90247  -7661845.19945  22257940.0164                   22257939.4414
 11  8 13 19  7  0.0000000  0  9G11G07G08G26G13G19G17G28G24
  -7095147.33648  -5482335.44545  21423056.2894                   21423054.1844
  -3200423.93448  -2473283.54346  20230779.1334                   20230776.2344
 -10008053.35948  -7712204.87546  20234834.0704                   20234831.9964
    804062.03547    668243.28144  23131778.1254                   23131778.3014
  12932815.23046  10079812.36743  23823342.7814                   23823344.4924
  10715579.50447   8355379.69144  23708027.3914                   23708024.6994
  -5638809.80147  -4349648.43745  22782795.5164                   22782795.8674
  -6013091.68748  -4687283.68446  21977120.3834                   21977117.7464
 -10044147.68047  -7790389.14545  22226547.9454                   22226547.7894
 11  8 13 19  7 30.0000000  0  9G11G07G08G26G13G19G17G28G24
  -5642307.08647  -4350252.12945  21699522.7664                   21699520.3954
  -1726038.73048  -1324411.96946  20511345.3204                   20511342.7274
  -8592086.61748  -6608854.15646  20504283.5234                   20504281.4344
   2204689.60547   1759641.42644  23398308.6724                   23398308.5004
  14501290.09046  11302000.28943  24121813.9774                   24121815.9104
  12275909.27747   9571221.00844  24004948.3524                   24004946.1724
  -4269004.32447  -3282267.46545  23043461.1564                   23043461.3714
  -4581597.95748  -3571834.01245  22249523.9534                   22249521.2504
  -8633406.30947  -6691110.11345  22495002.7814                   22495003.3484
 11  8 13 19  8  0.0000000  0  9G11G07G08G26G13G19G17G28G24
  -5764451.82047  -4445429.83245  21676279.4694                   21676276.8164
  -1826737.35948  -1402878.45346  20492183.1414                   20492180.5984
  -8751297.39848  -6732914.50446  20473986.5084                   20473984.4304
   2030302.25447   1623755.19944  23365124.6724                   23365123.8874
  14494213.47346  11296485.77343  24120467.3444                   24120469.2624
  12260804.16447   9559450.74244  24002074.0164                   24002071.1454
  -4474483.50847  -3442381.03145  23004359.8674                   23004359.5824
  -4725601.55948  -3684044.60245  22222121.2504                   22222118.3284
  -8797817.16447  -6819222.42645  22463716.4224                   22463716.8914
 11  8 13 19  8 30.0000000  0  9G11G07G08G26G13G19G17G28G24
  -5886162.73448  -4540269.50845  21653118.4614                   21653116.3284
  -1927101.88348  -1481084.58246  20473084.2974                   20473081.7274
  -8910264.12948  -6856784.68746  20443736.6884                   20443734.2774
   1856321.56347   1488185.85944  23332017.2194                   23332016.3324
  14486996.58246  11290861.96143  24119093.8984                   24119096.6884
  12245675.52747   9547662.13744  23999195.5784                   23999192.1844
  -4679825.30147  -3602387.53945  22965284.4384                   22965284.3324
  -4869684.58648  -3796317.07045  22194702.8524                   22194700.1484
  -8961958.51247  -6947124.73845  22432481.8284                   22432481.4884
 11  8 13 19  9  0.0000000  0  9G11G07G08G26G13G19G17G28G24
  -6007446.99648  -4634776.72345  21630038.4774                   21630036.7934
  -2027139.39148  -1559035.93447  20454048.0084                   20454045.3874
  -9068992.36348  -6980469.02746  20413530.9224                   20413529.0204
   1682741.41847   1352928.63344  23298985.7974                   23298985.3524
  14479628.88746  11285120.61343  24117692.6724                   24117694.3444
  12230513.27347   9535847.38744  23996310.3134                   23996306.7934
  -4885035.55947  -3762291.55945  22926234.5554                   22926233.7894
  -5013855.04748  -3908657.67245  22167268.2274                   22167265.7584
  -9125835.34047  -7074820.92645  22401296.6174                   22401296.7234
 11  8 13 19  9 30.0000000  0  9G11G07G08G26G13G19G17G28G24
  -6128310.31648  -4728955.93745  21607039.0084                   21607036.6884
  -2126855.57848  -1636736.87946  20435072.3134                   20435070.1254
  -9227485.89848  -7103970.48046  20383371.1334                   20383368.6564
   1509557.11747   1217979.82444  23266029.7344                   23266029.3834
  14472101.23846  11279254.62543  24116259.8914                   24116262.4414
  12215308.69947   9523999.58643  23993416.6884                   23993414.0594
  -5090119.56647  -3922097.21545  22887208.0944                   22887207.5824
  -5158120.00848  -4021071.91445  22139815.6484                   22139813.3594
  -9289451.37947  -7202313.89845  22370161.2814                   22370161.6644
 11  8 13 19 10  0.0000000  0  9G11G07G08G26G13G19G17G28G24
  -6248762.02347  -4822814.41445  21584118.0944                   21584115.9534
  -2226259.85948  -1714194.77746  20416156.4224                   20416153.7584
  -9385752.07448  -7227294.77346  20353254.1254                   20353251.3834
   1336760.24246   1083332.94544  23233147.8524                   23233146.9574
  14464400.61746  11273253.80143  24114794.7664                   24114797.1054
  12200049.19147   9512109.02744  23990513.2194                   23990510.1764
  -5295085.64547  -4081810.96545  22848204.0234                   22848203.9694
  -5302490.18448  -4133568.14545  22112342.7344                   22112340.4804
  -9452814.45347  -7329609.77744  22339074.6564                   22339073.9304
 11  8 13 19 10 30.0000000  0  9G11G07G08G26G13G19G17G28G24
  -6368802.46947  -4916352.41045  21561275.4454                   21561273.1564
  -2325352.47748  -1791409.82046  20397299.8364                   20397297.3914
  -9543790.05148  -7350441.25446  20323180.4614                   20323178.1134
   1164351.68846    948988.62144  23200339.0474                   23200338.7734
  14456523.27746  11267115.24243  24113295.8524                   24113298.3524
  12184731.19147   9500172.89844  23987597.8594                   23987594.6294
  -5499933.17247  -4241432.33645  22809222.7894                   22809222.3834
  -5446967.05148  -4246147.50845  22084850.1414                   22084847.0044
  -9615922.84047  -7456707.16845  22308035.8674                   22308036.0634
 11  8 13 19 11  0.0000000  0  9G11G07G08G26G13G19G17G28G24
  -6488438.87147  -5009575.58645  21538509.1564                   21538506.7734
  -2424140.53548  -1868387.55146  20378501.3914                   20378498.7194
  -9701604.52748  -7473413.57046  20293148.9694                   20293147.1024
    992325.41846    814942.16844  23167603.2344                   23167603.2974
  14448458.66046  11260830.78943  24111762.0394                   24111765.0784
  12169344.27746   9488183.00844  23984670.3674                   23984667.7074
  -5704668.30147  -4400966.13745  22770262.5864                   22770262.1524
  -5591558.92248  -4358816.48445  22057335.1564                   22057332.3794
  -9778781.89147  -7583610.28145  22277044.8284                   22277045.1994
 11  8 13 19 11 30.0000000  0  9G11G07G08G26G13G19G17G28G24
  -6607676.62547  -5102488.11345  21515818.9064                   21515816.6254
  -2522629.46148  -1945132.18746  20359759.0864                   20359756.8524
  -9859199.60248  -7596214.93446  20263160.1884                   20263158.1604
    820677.02347    681190.18443  23134940.3524                   23134939.5234
  14440197.72746  11254393.35543  24110190.7344                   24110193.2854
  12153880.15646   9476132.94544  23981727.3284                   23981724.9534
  -5909295.72747  -4560416.00045  22731323.1254                   22731323.2624
  -5736272.53147  -4471580.32045  22029796.9694                   22029794.0474
  -9941394.96547  -7710321.71544  22246100.3364                   22246100.7384
 11  8 13 19 12  0.0000000  0  9G11G07G08G26G13G19G17G28G24
  -6726516.69547  -5195090.75045  21493204.1564                   21493202.0474
  -2620819.95348  -2021644.27046  20341074.1254                   20341072.0944
 -10016574.51248  -7718844.74246  20233212.7504                   20233210.0274
    649406.64147    547732.74244  23102348.7734                   23102347.5664
  14431736.53546  11247799.89143  24108580.2734                   24108583.8094
  12138335.11347   9464019.83244  23978769.6564                   23978767.1804
  -6113815.64547  -4719782.09445  22692404.9064                   22692404.5594
  -5881109.90648  -4584440.60545  22002235.0164                   22002232.5164
 -10103761.09447  -7836840.74245  22215203.4064                   22215202.8484
 11  8 13 19 12 30.0000000  0  9G11G07G08G26G13G19G17G28G24
  -6844968.56247  -5287390.91045  21470663.7034                   21470661.1804
  -2718721.27348  -2097931.03146  20322444.3834                   20322441.8014
 -10173736.68048  -7841308.76246  20203305.5634                   20203303.5784
    478505.87147    414563.31344  23069826.8594                   23069826.7344
  14423062.12146  11241040.25443  24106930.0394                   24106933.0634
  12122696.33246   9451833.68044  23975793.2504                   23975791.0514
  -6318236.61747  -4879071.07845  22653504.5554                   22653504.2384
  -6026081.61748  -4697405.55545  21974647.9844                   21974645.4414
 -10265888.04747  -7963173.38344  22184351.6414                   22184351.7464
 11  8 13 19 13  0.0000000  0  9G11G07G08G26G13G19G17G28G24
  -6963034.61747  -5379390.40645  21448196.3594                   21448193.9024
  -2816336.31248  -2173994.71546  20303868.8364                   20303866.2704
 -10330686.27048  -7963607.15246  20173438.7344                   20173436.9104
    307973.45747    281680.91444  23037375.9614                   23037375.5744
  14414168.62946  11234109.93444  24105238.1724                   24105241.2934
  12106958.53547   9439570.41044  23972799.2664                   23972796.3164
  -6522559.84847  -5038283.92245  22614622.7504                   22614622.7344
  -6171190.86747  -4810477.69145  21947034.4224                   21947031.8014
 -10427776.17247  -8089319.93745  22153545.0634                   22153544.9184
 11  8 13 19 13 30.0000000  0  9G11G07G08G26G13G19G17G28G24
  -7080713.97347  -5471088.59445  21425802.7114                   21425800.7234
  -2913663.62148  -2249834.19546  20285347.7664                   20285345.4184
 -10487420.71948  -8085737.89146  20143613.2894                   20143611.5634
    137811.28547    149087.00044  23004995.4924                   23004994.8714
  14405053.93446  11227007.25043  24103503.9844                   24103507.0004
  12091119.75846   9427228.44144  23969784.8284                   23969781.9304
  -6726783.72747  -5197419.31645  22575760.4924                   22575760.1564
  -6316438.06248  -4923657.30545  21919394.7504                   21919392.0984
 -10589422.40647  -8215278.01644  22122784.9614                   22122784.4614
 11  8 13 19 14  0.0000000  0  9G11G07G08G26G13G19G17G28G24
  -5622588.89147  -4334887.22745  21703274.5634                   21703272.3054
  -1435286.25048  -1097851.84446  20566673.6024                   20566671.4964
  -9068519.08648  -6980100.25846  20413621.1254                   20413619.3834
   1543439.96947   1244382.09444  23272477.7734                   23272476.5164
  15971129.03146  12447325.16443  24401518.2814                   24401521.5004
  13650591.38347  10642401.02344  24266542.1414                   24266539.5824
  -5355486.48447  -4128875.94545  22836709.5704                   22836709.3634
  -4886405.48447  -3809346.19145  22191520.9144                   22191518.5824
  -9175405.74247  -7113446.81245  22391863.5004                   22391863.2854
 11  8 13 19 14 30.0000000  0  9G11G07G08G26G13G19G17G28G24
  -5739508.25048  -4425993.22345  21681025.7034                   21681023.1174
  -1532051.46148  -1173253.32446  20548260.2424                   20548257.4884
  -9224830.81648  -7101901.60546  20383876.2584                   20383874.2894
   1374008.27047   1112357.37944  23240235.7504                   23240235.0394
  15961548.83246  12439859.73043  24399695.6094                   24399698.7814
  13634528.53147  10629884.49244  24263485.7344                   24263482.2544
  -5559521.58247  -4287864.25445  22797882.7424                   22797882.7774
  -5031944.74648  -3922753.39145  22163825.9924                   22163823.2774
  -9336575.91448  -7239033.92245  22361193.5784                   22361193.5234
 11  8 13 19 15  0.0000000  0  9G11G07G08G26G13G19G17G28G24
  -5856045.78948  -4516801.67645  21658849.5314                   21658846.7234
  -1628533.59848  -1248434.23046  20529899.9304                   20529897.5434
  -9380926.53148  -7223534.62946  20354172.1094                   20354170.2704
   1204945.23847    980619.97344  23208064.0634                   23208063.4804
  15951733.14146  12432210.77043  24397827.6954                   24397830.7384
  13618351.30147  10617278.78144  24260406.8444                   24260405.3054
  -5763458.95347  -4446776.40645  22759074.8594                   22759074.3204
  -5177629.44548  -4036273.91845  22136103.3054                   22136100.5904
  -9497503.21147  -7364431.78945  22330570.2814                   22330569.9614
 11  8 13 19 15 30.0000000  0  9G11G07G08G26G13G19G17G28G24
  -5972198.61347  -4607310.36345  21636746.0314                   21636743.6374
  -1724729.53948  -1323392.13346  20511594.7274                   20511592.6094
  -9536801.56648  -7344995.69546  20324510.0474                   20324508.1914
   1036255.00047    849173.02743  23175962.9774                   23175962.5594
  15941681.45346  12424377.97742  24395915.1024                   24395918.4454
  13602059.72747  10604583.98444  24257307.4064                   24257304.9184
  -5967294.92647  -4605609.56245  22720286.1484                   22720285.6094
  -5323457.71548  -4149906.32045  22108353.0634                   22108350.7624
  -9658182.91447  -7489636.71145  22299993.6884                   22299994.2894
 11  8 13 19 16  0.0000000  0  9G11G07G08G26G13G19G17G28G24
  -6087963.79348  -4697516.98845  21614716.7344                   21614714.9384
  -1820636.50048  -1398124.85946  20493344.1484                   20493341.8324
  -9692451.21948  -7466281.14146  20294891.1884                   20294888.5824
    867941.21947    718019.43844  23143934.1484                   23143933.9654
  15931393.52046  12416361.04742  24393958.4694                   24393961.7504
  13585653.78947  10591800.06344  24254185.2974                   24254183.3674
  -6171025.50447  -4764360.57445  22681517.3754                   22681517.3554
  -5469427.68048  -4263649.14545  22080575.4774                   22080572.7624
  -9818610.37147  -7614645.09445  22269465.4384                   22269465.5984
 11  8 13 19 16 30.0000000  0  9G11G07G08G26G13G19G17G28G24
  -6203338.31647  -4787419.20345  21592761.6334                   21592759.4694
  -1916251.25048  -1472629.87146  20475149.1334                   20475146.9574
  -9847870.01648  -7587386.69946  20265315.8054                   20265313.9614
    700008.44147    587162.72344  23111977.7424                   23111977.1764
  15920869.23046  12408159.96142  24391955.5944                   24391959.8674
  13569133.50846  10578927.06643  24251041.5704                   24251038.7504
  -6374646.47347  -4923026.17245  22642769.4064                   22642768.9774
  -5615537.06248  -4377500.59446  22052772.0234                   22052769.3364
  -9978780.15647  -7739452.69945  22238985.8444                   22238986.0554
 11  8 13 19 17  0.0000000  0  9G11G07G08G26G13G19G17G28G24
  -6318323.89847  -4877018.35945  21570880.4224                   21570878.0004
  -2011574.83648  -1546908.02046  20457009.8204                   20457007.5824
 -10003057.54748  -7708312.04746  20235784.4534                   20235782.7304
    532456.05547    456602.44144  23080093.7584                   23080092.7504
  15910104.37546  12399771.42642  24389906.7814                   24389911.4184
  13552495.32846  10565962.18843  24247875.7734                   24247872.6174
  -6578158.47747  -5081606.87945  22604042.6884                   22604042.2894
  -5761787.95748  -4491462.31245  22024941.3134                   22024938.4024
 -10138691.67647  -7864059.05545  22208555.8524                   22208555.6214
 11  8 13 19 17 30.0000000  0  9G11G07G08G26G13G19G17G28G24
  -6432918.67247  -4966312.97745  21549074.1254                   21549071.7114
  -2106606.08248  -1620958.36346  20438925.3984                   20438923.6334
 -10158010.51648  -7829054.62946  20206298.5864                   20206296.3554
    365286.62947    326340.53144  23048282.4454                   23048281.5394
  15899097.42646  12391194.21542  24387812.0474                   24387817.4454
  13535738.14847  10552904.59443  24244686.9454                   24244684.2544
  -6781558.76647  -5240100.52745  22565336.5944                   22565336.2814
  -5908179.87147  -4605533.92645  21997083.5634                   21997081.0864
 -10298341.64548  -7988461.59045  22178176.0004                   22178175.6484
 11  8 13 19 18  0.0000000  0  9G11G07G08G26G13G19G17G28G24
  -6547112.83648  -5055295.44145  21527343.5634                   21527340.9694
  -2201334.24248  -1694772.53946  20420900.1414                   20420897.9614
 -10312716.00448  -7949604.35546  20176858.2034                   20176856.0354
    198511.56347    196385.96144  23016546.2034                   23016545.4224
  15887855.46946  12382433.89843  24385673.8524                   24385678.4184
  13518869.52746  10539760.12543  24241476.6174                   24241474.3794
  -6984835.96147  -5398498.25445  22526654.7194                   22526653.9774
  -6054703.10548  -4719707.87545  21969201.2814                   21969198.6214
 -10457717.46947  -8112650.52745  22147847.3134                   22147846.6374
 11  8 13 19 18 30.0000000  0  9G11G07G08G26G13G19G17G28G24
  -6660903.94947  -5143963.84045  21505689.7734                   21505687.8244
  -2295757.22348  -1768348.91446  20402931.6644                   20402929.3754
 -10467170.31248  -8069958.37146  20147466.6804                   20147464.5904
     32134.25847     66741.31644  22984885.7814                   22984884.8404
  15876377.74646  12373489.87143  24383489.8754                   24383493.7734
  13501888.77346  10526528.30543  24238245.4384                   24238243.2194
  -7187986.86747  -5556797.59845  22487995.8054                   22487995.3284
  -6201356.69548  -4833983.39145  21941294.0784                   21941291.0634
 -10616815.18447  -8236622.73845  22117571.9774                   22117571.5274
 11  8 13 19 19  0.0000000  0  9G11G07G08G26G13G19G17G28G24
  -6774282.52747  -5232310.77345  21484114.4614                   21484112.3444
  -2389865.55548  -1841680.10246  20385023.6954                   20385021.2344
 -10621362.03148  -8190107.77046  20118125.0084                   20118123.1604
   -133835.33647    -62585.64844  22953302.1644                   22953302.0984
  15864670.53946  12364367.01643  24381262.3594                   24381266.6094
  13484802.65246  10513214.35943  24234993.9454                   24234991.5744
  -7391001.22347  -5714990.52745  22449363.6564                   22449363.6054
  -6348131.61748  -4948353.44945  21913363.6334                   21913361.2424
 -10775623.33647  -8360369.33645  22087351.4454                   22087351.2504
 11  8 13 19 19 30.0000000  0  9G11G07G08G26G13G19G17G28G24
  -6887249.96548  -5320337.33245  21462617.3754                   21462615.2664
  -2483659.86348  -1914766.60546  20367175.3364                   20367172.6214
 -10775289.97348  -8310051.62146  20088833.6804                   20088831.7344
   -299396.57447   -191594.39144  22921796.8834                   22921795.8954
  15852730.14547  12355062.51644  24378990.4224                   24378994.9654
  13467607.57847  10499815.55543  24231722.1884                   24231719.6334
  -7593878.64847  -5873076.74645  22410756.7734                   22410756.6764
  -6495029.45348  -5062819.28145  21885409.8594                   21885407.4494
 -10934140.96547  -8483889.53544  22057186.6334                   22057186.0204
 11  8 13 19 20  0.0000000  0  9G11G07G08G26G13G19G17G28G24
  -6999804.74648  -5408042.35245  21441199.1334                   21441196.5474
  -2577138.66048  -1987607.24646  20349387.1564                   20349384.1134
 -10928950.24648  -8429786.90646  20059592.9694                   20059591.2854
   -464547.30147   -320283.26644  22890369.8444                   22890369.4844
  15840555.18447  12345575.15243  24376673.8054                   24376678.5744
  13450302.24246  10486330.81344  24228429.0634                   24228427.0634
  -7796616.88747  -6031054.52045  22372176.9844                   22372176.7544
  -6642049.20348  -5177380.12945  21857433.2894                   21857430.1524
 -11092364.55947  -8607180.61745  22027078.0164                   22027077.4614
 11  8 13 19 20 30.0000000  0  9G11G07G08G26G13G19G17G28G24
  -5536522.05548  -4267822.06645  21719652.8914                   21719650.3324
  -1094877.38348   -832598.49246  20631451.8134                   20631449.6484
  -9506914.70748  -7321707.27746  20330197.3204                   20330195.5634
    946140.55547    778954.02344  23158815.3364                   23158814.3554
  17403564.56646  13563504.19943  24674104.8284                   24674109.7624
  15008306.88747  11700360.28944  24524907.8674                   24524905.5274
  -6423786.52047  -4961316.50045  22633418.2424                   22633417.5864
  -5213765.48048  -4064431.75845  22129226.0554                   22129223.4414
  -9674865.61347  -7502635.94945  22296818.9064                   22296818.5394
 11  8 13 19 21  0.0000000  0  9G11G07G08G26G13G19G17G28G24
  -5648245.08248  -4354878.96545  21698392.3754                   21698390.1994
  -1187718.28548   -904942.09446  20613784.3754                   20613781.8524
  -9660027.56648  -7441016.00446  20301061.0234                   20301058.7704
    781821.06347    650912.85544  23127546.2894                   23127545.2234
  17390918.45347  13553649.76644  24671699.0944                   24671702.8444
  14990781.30546  11686703.92244  24521573.2424                   24521571.0354
  -6626235.97747  -5119069.23445  22594893.3914                   22594892.6214
  -5361024.99648  -4179179.42245  22101204.0944                   22101201.2274
  -9832488.69147  -7625459.09845  22266824.0634                   22266823.8524
 11  8 13 19 21 30.0000000  0  9G11G07G08G26G13G19G17G28G24
  -5759554.39148  -4441613.48845  21677211.0004                   21677208.3204
  -1280241.77048   -977038.33646  20596177.9224                   20596175.5434
  -9812865.64848  -7560110.62546  20271977.1414                   20271974.8984
    617916.64847    523195.17244  23096355.7974                   23096356.0944
  17378030.71546  13543607.01243  24669246.1884                   24669250.8484
  14973139.79346  11672957.22744  24518215.9224                   24518213.4064
  -6828541.01647  -5276709.47745  22556395.7894                   22556395.0984
  -5508406.93448  -4294022.49245  22073158.3444                   22073155.3794
  -9989810.23047  -7748047.28145  22236886.9454                   22236886.6054
 11  8 13 19 22  0.0000000  0  9G11G07G08G26G13G19G17G28G24
  -5870443.26248  -4528020.40245  21656109.8914                   21656107.4024
  -1372441.13748  -1048882.00046  20578632.8754                   20578630.8164
  -9965419.77048  -7678983.97346  20242946.8444                   20242944.9774
    454435.19147    395807.03944  23065246.5474                   23065246.1334
  17364905.48446  13533379.18842  24666748.2664                   24666753.3364
  14955386.79746  11659123.68443  24514837.9384                   24514834.8364
  -7030694.07447  -5434231.26645  22517927.1804                   22517926.8404
  -5655905.24648  -4408956.23845  22045089.9304                   22045087.1764
 -10146821.47347  -7870393.65645  22207008.6094                   22207008.1024
 11  8 13 19 22 30.0000000  0  9G11G07G08G26G13G19G17G28G24
  -5980908.41848  -4614097.13745  21635088.5864                   21635086.4104
  -1464312.87548  -1120470.38746  20561150.6804                   20561148.0984
 -10117684.88748  -7797632.11746  20213971.7894                   20213969.9344
    291380.86347    268751.73844  23034218.5554                   23034217.4694
  17351542.71546  13522966.30542  24664206.1484                   24664211.3404
  14937522.78146  11645203.57443  24511438.4614                   24511435.5314
  -7232690.87547  -5591631.29745  22479488.6804                   22479487.8794
  -5803517.18048  -4523978.51245  22017000.2974                   22016997.9144
 -10303517.16447  -7992494.16845  22177190.3834                   22177190.5394
 11  8 13 19 23  0.0000000  0  9G11G07G08G26G13G19G17G28G24
  -6090953.87148  -4699846.84445  21614148.0084                   21614145.1844
  -1555860.64548  -1191806.33246  20543729.6804                   20543727.2074
 -10269662.20348  -7916056.00846  20185051.2504                   20185049.6644
    128750.85247    142027.07444  23003270.7664                   23003270.4734
  17337936.26245  13512363.47342  24661616.3984                   24661624.1374
  14919542.30946  11631192.74643  24508016.6954                   24508014.0044
  -7434533.58247  -5748911.26645  22441078.8054                   22441078.0634
  -5951246.84847  -4639092.53145  21988888.2274                   21988885.5984
 -10459899.20747  -8114350.28145  22147431.7424                   22147431.8094
 11  8 13 19 23 30.0000000  0  9G11G07G08G26G13G19G17G28G24
  -6200582.14148  -4785271.45745  21593286.1954                   21593283.4184
  -1647087.00848  -1262891.83246  20526369.7504                   20526367.4964
 -10421352.40248  -8034256.16846  20156185.5554                   20156183.8754
    -33456.01247     15632.12944  22972403.8834                   22972403.2974
  17324081.191 6                  24658980.297
  14901440.37946  11617087.27743  24504571.9614                   24504569.5274
  -7636223.71147  -5906072.33645  22402698.5474                   22402698.3594
  -6099097.30548  -4754300.66845  21960753.5944                   21960750.7624
 -10615967.83247  -8235962.15645  22117732.9384                   22117732.6644
 11  8 13 19 24  0.0000000  0  9G11G07G08G26G13G19G17G28G24
  -6309790.00848  -4870368.49645  21572504.7584                   21572502.2584
  -1737988.16848  -1333723.93446  20509072.0164                   20509069.6054
 -10572749.96148  -8152228.29746  20127375.6484                   20127373.9924
   -195235.56247   -110429.85544  22941618.9384                   22941617.9774
  17309977.625 6                  24656297.938
  14883217.88346  11602887.81343  24501104.1254                   24501101.8554
  -7837757.04347  -6063111.23445  22364348.4924                   22364347.4884
  -6247065.73048  -4869600.73045  21932595.9064                   21932592.8674
 -10771717.68747  -8357325.64845  22088094.8284                   22088094.1644
 11  8 13 19 24 30.0000000  0  8G11G07G08G26G19G17G28G24
  -6418577.02048  -4955137.59845  21551802.9144                   21551801.0234
  -1828563.72748  -1404302.30946  20491836.0234                   20491833.7384
 -10723852.21148  -8269970.30946  20098622.0234                   20098619.9304
   -356586.39847   -236157.76644  22910913.6414                   22910913.8164
  14864872.88746  11588592.99243  24497613.0084                   24497610.5984
  -8039131.86747  -6220026.62145  22326028.2664                   22326026.9414
  -6395152.17247  -4984992.75445  21904415.9224                   21904413.1604
 -10927146.48847  -8478438.95745  22058517.9064                   22058517.1134
 11  8 13 19 25  0.0000000  0  8G11G07G08G26G19G17G28G24
  -6526946.60548  -5039581.42245  21531181.2974                   21531178.7274
  -1918816.40248  -1474629.09446  20474661.6724                   20474658.6954
 -10874659.98048  -8387482.86746  20069924.1884                   20069922.0984
   -517510.33647   -361553.01244  22880291.2734                   22880290.8984
  14846400.22346  11574198.59043  24494097.4844                   24494095.5234
  -8240349.89548  -6376819.84045  22287737.1724                   22287736.1764
  -6543359.96947  -5100479.34045  21876212.8204                   21876210.1724
 -11082254.96547  -8599302.66445  22029001.3674                   22029001.4574
 11  8 13 19 25 30.0000000  0  8G11G07G08G26G19G17G28G24
  -6634891.12147  -5123694.03545  21510640.3054                   21510637.9844
  -2008738.86748  -1544698.57846  20457550.0164                   20457547.3524
 -11025163.60948  -8504758.42646  20041284.2424                   20041282.1374
   -677999.09447   -486609.19944  22849751.6884                   22849751.0314
  14827805.36346  11559709.03543  24490559.6644                   24490558.4144
  -8441402.51247  -6533484.15245  22249478.1564                   22249477.3794
  -6691681.78948  -5216054.78545  21847988.2344                   21847985.4614
 -11237033.74247  -8719909.45345  21999548.0234                   21999547.8134
 11  8 13 19 26  0.0000000  0  8G11G07G08G26G19G17G28G24
  -6742409.45348  -5207474.56245  21490179.7194                   21490177.3484
  -2098329.67248  -1614509.62546  20440501.3444                   20440498.8244
 -11175359.95748  -8621794.55146  20012703.0314                   20012701.0514
   -838050.29747   -611324.41444  22819294.8204                   22819294.4224
  14809087.11746  11545123.28943  24486998.3134                   24486995.8484
  -8642287.27347  -6690017.67645  22211251.2424                   22211250.0864
  -6840116.71148  -5331718.35545  21819742.0394                   21819739.3754
 -11391479.56647  -8840256.81245  21970157.5004                   21970157.1294
 11  8 13 19 26 30.0000000  0  8G11G07G08G26G19G17G28G24
  -6849500.00447  -5290921.73845  21469801.1884                   21469799.2504
  -2187586.61348  -1684060.52746  20423516.4144                   20423514.0594
 -11325244.64848  -8738587.82846  19984181.0314                   19984178.7114
   -997661.12147   -735696.48844  22788921.4694                   22788921.3714
  14790245.08246  11530441.18043  24483412.7974                   24483410.0904
  -8843001.03547  -6846417.95745  22173056.2734                   22173055.8204
  -6988663.33647  -5447468.96946  21791474.8284                   21791471.7544
 -11545588.39547  -8960341.56645  21940831.8834                   21940831.3984
 11  8 13 19 27  0.0000000  0  8G11G07G08G26G19G17G28G24
  -5380743.29748  -4146436.00045  21749296.6884                   21749293.8284
   -701090.48848   -525751.88346  20706387.1564                   20706384.3634
  -9899394.55948  -7627535.81246  20255511.1484                   20255509.1054
    418590.53147    367876.21944  23058425.7344                   23058425.1994
  16346694.14546  12743258.55943  24779595.0474                   24779593.5004
  -7468119.97347  -5775082.00045  22434687.7894                   22434687.0664
  -5561900.53547  -4335705.75045  22062978.5004                   22062976.2194
 -10123937.12147  -7852561.31645  22211363.0784                   22211362.9344
 11  8 13 19 27 30.0000000  0  8G11G07G08G26G19G17G28G24
  -5486990.69548  -4229226.17645  21729078.1564                   21729076.1484
   -789691.19548   -594791.42246  20689526.9224                   20689524.4884
 -10048661.31648  -7743847.57446  20227106.5474                   20227104.2034
    259851.29347    244183.30544  23028218.1954                   23028218.1054
  16327586.75046  12728369.62543  24775959.3204                   24775956.5784
  -7668499.81248  -5931222.07045  22396556.6414                   22396555.6844
  -5710683.08247  -4451640.19945  22034666.0314                   22034663.6054
 -10277378.25047  -7972125.78945  22182164.3674                   22182163.8014
 11  8 13 19 28  0.0000000  0  8G11G07G08G26G19G17G28G24
  -5592825.62548  -4311694.95345  21708938.5164                   21708935.9104
   -877972.69548   -663582.23846  20672727.8204                   20672725.5204
 -10197624.57448  -7859922.85546  20198759.4694                   20198757.7194
    101540.39847    120824.17644  22998092.5634                   22998092.0864
  16308334.63746  12713367.91443  24772296.1094                   24772293.3284
  -7868719.92247  -6087237.69545  22358455.7424                   22358454.9184
  -5859592.99247  -4567673.89145  22006329.3674                   22006326.8054
 -10430491.37947  -8091434.69545  22153027.6254                   22153027.3014
 11  8 13 19 28 30.0000000  0  8G11G07G08G26G19G17G28G24
  -5698257.81648  -4393849.91045  21688875.6954                   21688873.0744
   -965944.32048   -732131.59446  20655987.4844                   20655984.6844
 -10346291.90248  -7975767.53146  20170469.2974                   20170467.1024
    -56350.75047     -2207.89144  22968047.1484                   22968047.2704
  16288926.35246  12698244.48843  24768602.3984                   24768600.5394
  -8068788.62547  -6243135.31245  22320383.9224                   22320382.6644
  -6008639.91047  -4683814.34045  21977966.9304                   21977964.1024
 -10583283.83247  -8210493.69945  22123952.3914                   22123951.9614
 11  8 13 19 29  0.0000000  0  8G11G07G08G26G19G17G28G24
  -5803293.01648  -4475695.52045  21668887.7894                   21668885.3834
  -1053611.43048   -800443.66446  20639304.8594                   20639302.2384
 -10494666.75048  -8091384.29346  20142234.5084                   20142232.6454
   -213826.80147   -124916.47344  22938079.9224                   22938080.2194
  16269354.21546  12682993.45743  24764878.0704                   24764875.6174
  -8268710.35948  -6398918.43045  22282339.8674                   22282339.0274
  -6157829.38748  -4800065.87545  21949576.9844                   21949574.5664
 -10735759.48447  -8329305.85945  22094937.0634                   22094936.6174
 11  8 13 19 29 30.0000000  0  8G11G07G08G26G19G17G28G24
  -5907935.80948  -4557235.36345  21648974.9224                   21648972.5044
  -1140978.31648   -868521.78146  20622679.3594                   20622676.9924
 -10642751.39848  -8206774.93746  20114055.2114                   20114053.1564
   -370891.16447   -247304.28144  22908192.3594                   22908191.7234
  16249612.19546  12667609.93843  24761121.5944                   24761119.2074
  -8468488.00848  -6554589.26645  22244323.5234                   22244322.8914
  -6307165.90647  -4916431.99646  21921159.0004                   21921156.5594
 -10887920.62147  -8447872.93745  22065981.5704                   22065981.0784
 11  8 13 19 30  0.0000000  0  8G11G07G08G26G19G17G28G24
  -6012190.60548  -4638472.86345  21629136.0474                   21629133.8754
  -1228048.94548   -936369.05946  20606110.7734                   20606108.0824
 -10790547.39848  -8321940.65646  20085930.2504                   20085928.3634
   -527547.11747   -369373.82044  22878382.3364                   22878380.8634
  16229693.80146  12652089.07443  24757331.1414                   24757328.4614
  -8668124.64848  -6710150.21945  22206333.7344                   22206333.2584
  -6456653.89547  -5032916.14146  21892712.4144                   21892710.2384
 -11039769.15647  -8566196.43445  22037085.6484                   22037085.3634
 11  8 13 19 30 30.0000000  0  8G11G07G08G26G19G17G28G24
  -6116057.66448  -4719408.23445  21609371.0314                   21609368.3714
  -1314823.44948  -1003985.58646  20589598.2584                   20589595.4344
 -10938053.06648  -8436880.14146  20057861.2424                   20057859.0864
   -683794.05547   -491124.68744  22848648.9534                   22848648.5354
  16209596.91447  12636429.12143  24753507.4304                   24753504.4414
  -8867619.28148  -6865600.52346  22168371.2974                   22168370.5004
  -6606293.75448  -5149518.62145  21864237.3054                   21864234.3204
 -11191303.40247  -8684275.03545  22008249.7974                   22008249.6884
 11  8 13 19 31  0.0000000  0  8G11G07G08G26G19G17G28G24
  -6219535.12948  -4800040.02045  21589679.8364                   21589677.1484
  -1401299.32448  -1071369.41046  20573142.4064                   20573139.5944
 -11085263.83248  -8551589.84046  20029847.8134                   20029845.5704
   -839628.68447   -612554.25044  22818994.0474                   22818993.9804
  16189321.86946  12620630.27044  24749648.7194                   24749646.6804
  -9066968.18448  -7020937.26645  22130436.3674                   22130435.3714
  -6756083.29347  -5266237.73845  21835733.0084                   21835730.5824
 -11342519.00047  -8802105.33245  21979474.5164                   21979474.3134
 11  8 13 19 31 30.0000000  0  7G11G07G08G26G17G28G24
  -6322625.69548  -4880370.34045  21570062.4144                   21570059.7934
  -1487479.13748  -1138522.54746  20556742.6174                   20556740.2974
 -11232180.10248  -8666070.06246  20001890.3204                   20001888.4184
   -995052.75847   -733663.90644  22789418.3444                   22789417.5984
  -9266172.78948  -7176161.57445  22092528.8674                   22092528.2894
  -6906025.08648  -5383075.49645  21807199.7114                   21807197.5824
 -11493416.78947  -8919687.98445  21950759.4924                   21950759.0744
 11  8 13 19 32  0.0000000  0  7G11G07G08G26G17G28G24
  -6425323.28548  -4960394.43745  21550519.6254                   21550517.0594
  -1573356.67248  -1205440.15646  20540400.6724                   20540398.3284
 -11378793.26248  -8780314.09846  19973990.9534                   19973989.0434
  -1150059.05547   -854448.03144  22759921.2814                   22759920.7194
  -9465225.31248  -7331267.37545  22054650.6254                   22054649.5664
  -7056112.53548  -5500026.74646  21778639.3984                   21778636.7304
 -11643988.25848  -9037016.36345  21922106.7814                   21922106.1884
 11  8 13 19 32 30.0000000  0  7G11G07G08G26G17G28G24
  -6527613.51248  -5040101.09445  21531053.9384                   21531051.7934
  -1658917.16048  -1272110.70746  20524119.4384                   20524116.5634
 -11525086.16048  -8894308.57046  19946152.2274                   19946150.0514
  -1304632.24647   -974894.64844  22730507.0554                   22730506.5164
  -9664110.12948  -7486242.50045  22016803.8364                   22016803.0664
  -7206331.38348  -5617080.38746  21750053.8444                   21750050.8484
 -11794216.95747  -9154077.64845  21893519.0004                   21893518.4884
 11  8 13 19 33  0.0000000  0  7G11G07G08G26G17G28G24
  -5054052.52748  -3891871.75845  21811463.5944                   21811461.2344
   -168716.53548   -110915.44946  20807694.8594                   20807692.1334
 -10095610.89848  -7780431.74246  20218172.2664                   20218170.0554
    116674.65647    132617.23444  23000972.8364                   23000972.4884
  -8287378.53548  -6413464.57846  22278787.4064                   22278786.2774
  -5781235.66048  -4506616.18046  22021240.3134                   22021237.3054
 -10368655.23447  -8043250.30945  22164794.5004                   22164793.5554
 11  8 13 19 33 30.0000000  0  7G11G07G08G26G17G28G24
  -5155474.23448  -3970901.66045  21792163.3834                   21792160.8164
   -253587.41848   -177048.63346  20791544.3914                   20791542.4964
 -10241202.43048  -7893879.69546  20190466.9924                   20190465.1454
    -36974.78147     12890.39844  22971734.4384                   22971733.7154
  -8485869.21948  -6568132.59845  22241015.8444                   22241014.3134
  -5931662.12947  -4623831.60545  21992614.9384                   21992612.2034
 -10518137.69547  -8159730.12145  22136349.1884                   22136348.4774
 11  8 13 19 34  0.0000000  0  7G11G07G08G26G17G28G24
  -5256440.56648  -4049576.71945  21772950.1884                   21772947.6334
   -338092.09448   -242896.44946  20775463.9534                   20775461.4774
 -10386418.82448  -8007035.32846  20162833.0784                   20162831.4774
   -190139.56647   -106458.80144  22942588.2344                   22942587.2114
  -8684139.70348  -6722629.02745  22203285.9384                   22203284.9774
  -6082171.14547  -4741111.35546  21963974.1954                   21963971.3634
 -10667222.52347  -8275900.09045  22107978.6484                   22107978.5084
 11  8 13 19 34 30.0000000  0  7G11G07G08G26G17G28G24
  -5356934.80548  -4127883.92245  21753826.9924                   21753824.3244
   -422213.25848   -308445.43746  20759456.3284                   20759453.6884
 -10531240.28148  -8119883.21946  20135274.5864                   20135272.6174
   -342802.11347   -225416.62144  22913537.4384                   22913536.5594
  -8882171.45748  -6876939.42645  22165601.7894                   22165600.7034
  -6232745.26248  -4858441.83245  21935320.9064                   21935318.7584
 -10815890.62947  -8391745.35245  22079688.0164                   22079687.6024
 11  8 13 19 35  0.0000000  0  7G11G07G08G26G17G28G24
  -5456944.96548  -4205813.90645  21734795.6644                   21734793.3364
   -505938.49248   -373685.91446  20743523.4534                   20743521.8404
 -10675652.21548  -8232412.01646  20107794.3054                   20107792.0514
   -494949.29747   -343972.89144  22884584.5084                   22884584.0784
  -9079950.91448  -7031053.24246  22127965.7504                   22127964.5784
  -6383372.03148  -4975813.33246  21906657.4614                   21906654.7584
 -10964127.94148  -8507254.92245  22051479.7664                   22051479.3324
 11  8 13 19 35 30.0000000  0  7G11G07G08G26G17G28G24
  -5556443.40248  -4283345.16445  21715861.8594                   21715859.2894
   -589240.08648   -438596.27346  20727671.9694                   20727669.6484
 -10819624.68048  -8344598.36346  20080396.8364                   20080395.1844
   -646552.32447   -462105.13344  22855735.8054                   22855734.5984
  -9277448.70748  -7184947.57446  22090382.7584                   22090381.6884
  -6534023.50848  -5093204.07846  21877989.0784                   21877986.8754
 -11111904.68447  -8622405.59845  22023358.7114                   22023357.6764
 11  8 13 19 36  0.0000000  0  7G11G07G08G26G17G28G24
  -5655409.72348  -4360461.78545  21697029.6024                   21697026.6334
   -672097.00448   -503160.14546  20711905.2424                   20711902.8134
 -10963134.66848  -8456424.33246  20053088.0944                   20053086.2304
   -797589.66447   -579796.55944  22826994.2034                   22826993.3984
  -9474643.18048  -7338605.56245  22052857.8284                   22052857.1994
  -6684678.68448  -5210597.71546  21849320.6174                   21849317.8364
 -11259198.02047  -8737179.59445  21995329.1884                   21995328.6174
 11  8 13 19 36 30.0000000  0  7G11G07G08G26G17G28G24
  -5753819.27047  -4437144.55145  21678302.6484                   21678299.6884
   -754484.11748   -567357.92646  20696227.3914                   20696224.5314
 -11106154.96148  -8567868.72746  20025872.0864                   20025870.1914
   -948035.55147   -697027.12544  22798365.2194                   22798364.4264
  -9671507.95748  -7492006.64146  22015395.6484                   22015395.1294
  -6835312.52348  -5327974.72346  21820655.8984                   21820653.5314
 -11405981.01647  -8851555.93045  21967397.9144                   21967397.3094
 11  8 13 19 37  0.0000000  0  7G11G07G08G26G17G28G24
  -5851649.48047  -4513375.89845  21659686.1724                   21659683.3794
   -836378.76648   -631171.96946  20680643.4774                   20680640.9344
 -11248660.78948  -8678912.23846  19998754.5784                   19998752.2544
  -1097866.62547   -813778.62944  22769853.5084                   22769852.6954
  -9868019.20348  -7645132.25446  21978000.9384                   21977999.8984
  -6985902.04348  -5445317.21146  21791999.7194                   21791997.2814
 -11552229.07047  -8965515.42645  21939567.6254                   21939566.9964
 11  8 13 19 37 30.0000000  0  7G11G07G08G26G17G28G24
  -5948879.46948  -4589139.52745  21641183.7814                   21641181.3164
   -917759.32048   -694585.41846  20665157.2114                   20665154.6024
 -11390628.20348  -8789536.20746  19971738.7974                   19971736.6294
  -1247060.37947   -930033.49644  22741463.2424                   22741462.1604
 -10064153.77348  -7797964.33645  21940677.9844                   21940676.2624
  -7136425.43448  -5562608.15246  21763356.0234                   21763353.6094
 -11697918.79747  -9079039.85945  21911843.8754                   21911843.2894
 11  8 13 19 38  0.0000000  0  7G11G07G08G26G17G28G24
  -6045483.94948  -4664415.74645  21622800.5784                   21622797.7774
   -998600.54748   -757578.60546  20649773.4304                   20649771.0394
 -11532029.78948  -8899719.26646  19944831.0944                   19944828.8984
  -1395591.07847  -1045771.69544  22713198.2194                   22713198.0784
 -10259885.22348  -7950482.30545  21903431.2974                   21903430.2774
  -7286857.04348  -5679827.58246  21734730.2814                   21734727.3404
 -11843023.18047  -9192108.19145  21884231.2584                   21884230.9844
 11  8 13 19 38 30.0000000  0  7G11G07G08G26G17G28G24
  -6141442.49247  -4739188.64845  21604540.0784                   21604537.5234
  -1078881.14148   -820134.95346  20634496.1884                   20634493.9184
 -11672842.11748  -9009443.15246  19918035.5784                   19918033.2734
  -1543436.96147  -1160976.29744  22685064.2114                   22685063.3954
 -10455190.90248  -8102668.49646  21866265.6644                   21866264.5554
  -7437175.49248  -5796958.84046  21706125.0704                   21706123.0004
 -11987518.90647  -9304702.22345  21856734.6724                   21856734.2664
 11  8 13 19 39  0.0000000  0  7G11G07G08G26G17G28G24
  -6236735.36747  -4813442.84045  21586406.5944                   21586404.2074
  -1158581.16048   -882238.89546  20619330.3284                   20619327.4884
 -11813043.19148  -9118690.75846  19891355.9614                   19891353.9494
  -1690577.30147  -1275631.10944  22657063.9924                   22657063.6414
 -10650050.00048  -8254506.71546  21829185.3834                   21829184.1254
  -7587360.88748  -5913986.41846  21677546.2274                   21677543.2894
 -12131384.44147  -9416805.20745  21829358.1644                   21829356.9574
 11  8 13 19 39 30.0000000  0  7G11G07G08G26G17G28G24
  -4755923.05548  -3659563.11345  21868195.8054                   21868192.7774
    337738.98448    283724.82446  20904070.8204                   20904068.5004
 -10377189.50848  -7999843.73446  20164589.6254                   20164588.2274
   -261569.56647   -162118.57844  22928995.2034                   22928994.2234
  -9269017.64148  -7178377.55945  22091986.8594                   22091985.4964
  -6161970.63348  -4803292.71146  21948788.7974                   21948786.3634
 -10699175.95747  -8300798.57845  22101898.4694                   22101897.3524
 11  8 13 19 40  0.0000000  0  7G11G07G08G26G17G28G24
  -4849844.22747  -3732748.44145  21850322.9304                   21850320.5004
    259241.69948    222558.05946  20889132.8754                   20889130.7304
 -10516120.32048  -8108101.52746  20138152.2894                   20138149.8634
   -407255.07847   -275639.75044  22901272.6174                   22901271.8364
  -9462937.66448  -7329484.03146  22055085.3444                   22055084.1054
  -6311846.50848  -4920079.09046  21920268.4224                   21920265.7154
 -10841733.50448  -8411882.35245  22074770.0394                   22074769.8364
 11  8 13 19 40 30.0000000  0  7G11G07G08G26G17G28G24
  -4943070.56247  -3805392.35245  21832582.5084                   21832579.9574
    181355.44548    161867.43846  20874311.6564                   20874309.4964
 -10654402.56648  -8215853.94146  20111838.0394                   20111835.8554
   -552202.73847   -388585.97344  22873689.8284                   22873689.0394
  -9656376.62548  -7480215.64546  22018274.8754                   22018273.8594
  -6461557.83648  -5036737.26646  21891779.3364                   21891776.3754
 -10983624.91448  -8522447.06245  22047769.3674                   22047768.6644
 11  8 13 19 41  0.0000000  0  7G11G07G08G26G17G28G24
  -5035598.46547  -3877492.01645  21814975.4064                   21814972.6454
    104084.28148    101656.10946  20859607.3204                   20859605.2344
 -10792030.09448  -8323096.19146  20085648.2894                   20085646.4654
   -696407.77747   -500953.54744  22846248.9224                   22846247.9414
  -9849329.25848  -7630568.30146  21981557.1644                   21981555.9614
  -6611099.78148  -5153263.44546  21863322.1884                   21863319.3874
 -11124844.12547  -8632487.98045  22020895.9924                   22020896.0314
 11  8 13 19 41 30.0000000  0  7G11G07G08G26G17G28G24
  -5127428.83647  -3949048.14545  21797500.3134                   21797497.5474
     27427.66848     41923.64146  20845020.1334                   20845017.8164
 -10929001.03948  -8429826.80546  20059583.4304                   20059581.5514
   -839869.91047   -612742.22744  22818948.3054                   22818947.4534
 -10041794.85547  -7780541.44946  21944932.4304                   21944931.2344
  -6760472.64547  -5269657.86746  21834897.4304                   21834894.6564
 -11265389.65647  -8742003.94545  21994150.7894                   21994149.8444
 11  8 13 19 42  0.0000000  0  7G11G07G08G26G17G28G24
  -5218565.03547  -4020063.35245  21780157.6724                   21780154.7664
    -48617.07448    -17332.02346  20830549.3914                   20830547.3714
 -11065316.73048  -8536046.82846  20033643.4304                   20033641.5984
   -982591.82447   -723954.10544  22791789.5474                   22791788.7114
 -10233774.89148  -7930136.23046  21908399.5084                   21908398.6484
  -6909678.93748  -5385922.50846  21806504.3054                   21806501.2894
 -11405262.79747  -8850995.97345  21967534.3204                   21967533.3134
 11  8 13 19 42 30.0000000  0  7G11G07G08G26G17G28G24
  -5309016.17647  -4090544.77045  21762945.5004                   21762942.6844
   -124058.96148    -76117.95746  20816193.1484                   20816191.1414
 -11200983.59848  -8641761.27346  20007826.9454                   20007824.9384
  -1124581.55547   -834595.45344  22764769.7974                   22764768.9304
 -10425276.94947  -8079358.57446  21871957.8524                   21871956.8444
  -7058726.89148  -5502063.76245  21778141.6884                   21778138.9224
 -11544470.73047  -8959469.66845  21941044.0634                   21941043.2854
 11  8 13 19 43  0.0000000  0  7G11G07G08G26G17G28G24
  -5398785.79347  -4160495.11745  21745862.6884                   21745860.4304
   -198900.78948   -134436.30146  20801951.5394                   20801949.0704
 -11336002.37548  -8746970.71946  19982133.9304                   19982131.9574
  -1265841.63747   -944668.26244  22737888.7114                   22737887.7344
 -10616302.43748  -8228209.56246  21835606.6804                   21835606.1294
  -7207618.88748  -5618083.48446  21749808.5474                   21749805.5554
 -11683014.74247  -9067426.02045  21914679.4694                   21914679.0784
 11  8 13 19 43 30.0000000  0  7G11G07G08G26G17G28G24
  -5487871.80148  -4229912.80945  21728910.5084                   21728907.4384
   -273139.90248   -192284.99246  20787824.1334                   20787821.8634
 -11470368.41848  -8851671.54346  19956565.1094                   19956563.3524
  -1406368.84447  -1054169.98444  22711147.0084                   22711146.6844
 -10806847.62547  -8376686.28146  21799347.2114                   21799346.2034
  -7356352.05548  -5733979.46546  21721505.5944                   21721503.1884
 -11820889.81647  -9174861.10945  21888442.7814                   21888442.0744
 11  8 13 19 44  0.0000000  0  7G11G07G08G26G17G28G24
  -5576282.96948  -4298804.63345  21712086.6564                   21712084.2934
   -346785.06248   -249670.87146  20773810.1724                   20773807.8134
 -11604087.78948  -8955868.45346  19931118.8444                   19931117.1174
  -1546170.96547  -1163106.68744  22684544.0164                   22684543.6054
 -10996919.97747  -8524794.57446  21763177.7194                   21763176.2034
  -7504934.05548  -5849757.63746  21693231.2894                   21693228.6414
 -11958103.04347  -9281780.48845  21862332.4694                   21862331.1214
 11  8 13 19 44 30.0000000  0  7G11G07G08G26G17G28G24
  -5664014.41447  -4367166.79745  21695391.9224                   21695389.3054
   -419830.57848   -306589.49246  20759909.9304                   20759907.8094
 -11737152.60948  -9059555.32446  19905797.3364                   19905795.7734
  -1685241.93047  -1271473.69544  22658079.8444                   22658078.8874
 -11186512.68747  -8672529.10946  21727099.5554                   21727098.3594
  -7653358.78948  -5965413.26246  21664986.8594                   21664984.0204
 -12094646.95347  -9388178.31245  21836348.6884                   21836347.9494
 11  8 13 19 45  0.0000000  0  7G11G07G08G26G17G28G24
  -5751061.76248  -4434995.92245  21678827.2114                   21678824.5514
   -492271.92248   -363037.33646  20746124.9774                   20746122.5704
 -11869556.28948  -9162727.03546  19880601.7734                   19880600.3634
  -1823576.69147  -1379267.03144  22631755.3444                   22631754.5474
 -11375619.18747  -8819884.77746  21691113.7274                   21691112.5904
  -7801621.19148  -6080942.39546  21636773.8834                   21636770.5164
 -12230515.13747  -9494049.60945  21810493.7114                   21810493.2234
 11  8 13 19 45 30.0000000  0  7G11G07G08G26G17G28G24
  -4262003.54747  -3274690.82445  21962185.6174                   21962183.3984
   1011312.61348    808586.94546  21032248.0554                   21032245.6604
 -10425873.24648  -8037779.21546  20155325.5634                   20155323.7624
   -385750.93447   -258883.34044  22905364.3984                   22905363.7424
  -9988813.31647  -7739256.79346  21955014.0554                   21955012.6604
  -6374296.57048  -4968741.38346  21908384.3594                   21908381.7234
 -10790282.09447  -8371790.07445  22084561.2194                   22084560.6254
 11  8 13 19 46  0.0000000  0  7G11G07G08G26G17G28G24
  -4347680.27747  -3341451.93745  21945881.9224                   21945879.2154
    940083.84048    753083.98046  21018693.5084                   21018691.1764
 -10556944.32048  -8139912.53546  20130383.1644                   20130381.7504
   -522607.52047   -365524.85244  22879321.2814                   22879321.1374
 -10176940.45348  -7885849.32046  21919214.4144                   21919213.3714
  -6522228.26648  -5084012.82046  21880233.8364                   21880230.9774
 -10924789.60247  -8476601.08645  22058965.0554                   22058964.2624
 11  8 13 19 46 30.0000000  0  7G11G07G08G26G17G28G24
  -4432671.72347  -3407679.05145  21929708.6414                   21929706.3364
    869462.59448    698054.40246  21005254.3914                   21005252.2854
 -10687344.91048  -8241523.39546  20105569.6334                   20105567.6374
   -658723.46147   -471589.23044  22853419.5554                   22853418.8714
 -10364574.50047  -8032057.62946  21883508.8054                   21883507.6994
  -6669992.64548  -5199153.89146  21852115.5084                   21852112.6334
 -11058613.25047  -8580879.24645  22033498.9064                   22033498.2274
 11  8 13 19 47  0.0000000  0  7G11G07G08G26G17G28G24
  -4516983.47747  -3473376.53945  21913664.6174                   21913661.9264
    799443.02348    643493.68846  20991929.8524                   20991927.9494
 -10817077.70748  -8342613.90246  20080881.9844                   20080879.7504
   -794103.27047   -577080.01644  22827657.6484                   22827656.6564
 -10551719.87147  -8177885.14546  21847896.1094                   21847894.9264
  -6817593.74648  -5314167.72346  21824027.6724                   21824024.8594
 -11191756.27747  -8684627.03945  22008163.2504                   22008162.2544
 11  8 13 19 47 30.0000000  0  7G11G07G08G26G17G28G24
  -4600625.07448  -3538551.81245  21897748.1024                   21897745.4734
    730016.21148    589394.83646  20978718.5634                   20978716.4534
 -10946150.18748  -8443189.87146  20056320.4144                   20056318.9064
   -928756.04747   -682004.27744  22802033.8204                   22802033.3954
 -10738384.29347  -8323337.89546  21812374.8444                   21812374.0634
  -6965040.82848  -5429061.53946  21795969.7344                   21795966.7344
 -11324226.44947  -8787850.53945  21982954.8984                   21982953.9614
 11  8 13 19 48  0.0000000  0  7G11G07G08G26G17G28G24
  -4683599.69548  -3603207.38345  21881958.5004                   21881955.8444
    661179.53948    535755.83246  20965619.9224                   20965617.3014
 -11074562.81248  -8543251.67646  20031884.5314                   20031882.3954
  -1062683.68447   -786363.47344  22776547.9844                   22776547.9534
 -10924568.86747  -8468416.73846  21776945.4224                   21776943.7854
  -7112335.80148  -5543836.84046  21767940.2974                   21767937.1174
 -11456024.55547  -8890550.34445  21957874.5474                   21957873.7774
 11  8 13 19 48 30.0000000  0  7G11G07G08G26G17G28G24
  -4765919.55948  -3667352.73445  21866293.6954                   21866291.0514
    592921.08648    482567.39146  20952630.5314                   20952628.4304
 -11202325.08648  -8642806.70746  20007571.8674                   20007569.9414
  -1195897.67647   -890166.60544  22751199.2894                   22751197.9144
 -11110284.35547  -8613130.05546  21741604.7034                   21741603.6804
  -7259489.28548  -5658501.87546  21739937.8204                   21739935.2734
 -11587160.77347  -8992734.39545  21932919.7034                   21932919.0704
 11  8 13 19 49  0.0000000  0  7G11G07G08G26G17G28G24
  -4847592.66048  -3730994.11745  21850751.5864                   21850749.4774
    525233.71148    429823.94946  20939750.1884                   20939747.7894
 -11329442.08248  -8741858.92646  19983382.2734                   19983380.5394
  -1328404.93047   -993419.02744  22725983.4224                   22725982.7544
 -11295536.75047  -8757482.53146  21706352.1024                   21706350.8014
  -7406507.90248  -5773061.83646  21711961.2814                   21711958.3594
 -11717640.60947  -9094406.98845  21908090.3984                   21908089.4414
 11  8 13 19 49 30.0000000  0  7G11G07G08G26G17G28G24
  -4928634.34848  -3794143.49645  21835330.0864                   21835327.2934
    458102.21548    377513.65246  20926975.5234                   20926973.4264
 -11455926.55548  -8840418.27046  19959313.2664                   19959310.9494
  -1460219.79347  -1096131.92244  22700899.6174                   22700899.2664
 -11480339.57047  -8901484.68746  21671185.7274                   21671184.3164
  -7553405.71948  -5887527.65646  21684007.5944                   21684004.7504
 -11847477.39147  -9195578.51245  21883383.3674                   21883382.5004
 11  8 13 19 50  0.0000000  0  7G11G07G08G26G17G28G24
  -5009054.23448  -3856808.35945  21820026.8914                   21820024.0434
    391517.57447    325629.48046  20914304.6484                   20914302.3954
 -11581785.50448  -8938490.18446  19935363.0784                   19935361.3204
  -1591350.85547  -1198311.99244  22675946.6414                   22675946.1684
 -11664700.37547  -9045142.41846  21636103.1724                   21636101.6604
  -7700190.66448  -6001905.53146  21656075.2584                   21656072.2894
 -11976678.49247  -9296254.68045  21858797.5234                   21858796.8554
 11  8 13 19 50 30.0000000  0  7G11G07G08G26G17G28G24
  -5088863.20348  -3918997.16845  21804839.7734                   21804836.9924
    325469.50448    274163.41446  20901736.1024                   20901733.9844
 -11707027.07448  -9036081.03546  19911530.5004                   19911528.7424
  -1721808.40247  -1299967.23844  22651121.4614                   22651120.7584
 -11848628.21947  -9188462.78146  21601102.7734                   21601101.2504
  -7846872.43448  -6116203.00446  21628162.5394                   21628159.8554
 -12105252.27747  -9396442.05145  21834330.8364                   21834329.8364
 11  8 13 19 51  0.0000000  0  7G11G07G08G26G17G28G24
  -5168075.38748  -3980720.94945  21789766.2974                   21789763.5824
    259944.32448    223104.79346  20889267.4844                   20889264.9924
 -11831662.83648  -9133199.82046  19887813.0394                   19887811.2734
  -1851605.33647  -1401107.72344  22626422.1804                   22626421.5084
 -12032135.27347  -9331455.24246  21566182.5944                   21566181.0984
  -7993463.87548  -6230430.09446  21600267.2274                   21600264.1414
 -12233210.85247  -9496150.01645  21809980.9304                   21809979.9184
 11  8 13 19 51 30.0000000  0  7G11G07G08G26G17G28G24
  -5246699.60948  -4041986.59445  21774804.5864                   21774801.8524
    194933.67248    172447.10946  20876896.0784                   20876893.9104
 -11955699.07048  -9229851.44946  19864209.6094                   19864207.5824
  -1980749.51247  -1501739.55144  22601846.6254                   22601845.3404
 -12215228.62147  -9474125.34446  21531340.6724                   21531339.4494
  -8139972.09448  -6344592.34046  21572387.6024                   21572384.8834
 -12360560.77747  -9595383.72345  21785747.0234                   21785746.2734
 11  8 13 19 52  0.0000000  0  7G11G07G08G26G17G28G24
  -3749317.05548  -2875195.00045  22059746.6254                   22059744.1884
   1705856.47748   1349789.50046  21164415.3054                   21164413.2584
 -10503712.37548  -8098433.27046  20140513.6024                   20140511.7424
   -533819.90247   -374261.94544  22877187.8524                   22877187.5824
 -10822484.08247  -8388869.82046  21796371.3444                   21796370.0124
  -6710974.47348  -5231087.68746  21844316.6884                   21844313.5784
 -10911879.29747  -8466541.01245  22061421.5084                   22061421.0084
 11  8 13 19 52 30.0000000  0  7G11G07G08G26G17G28G24
  -3826779.82048  -2935555.60545  22045005.9694                   22045003.2894
   1641861.94948   1299923.60246  21152237.4924                   21152235.3524
 -10626555.37548  -8194155.10246  20117137.4844                   20117135.8164
   -661670.82047   -473886.03944  22852858.7424                   22852858.0594
 -11004758.93747  -8530902.14146  21761685.4224                   21761683.6254
  -6857326.27748  -5345128.03946  21816466.7194                   21816464.2464
 -11038019.92647  -8564832.39845  22037417.9774                   22037417.1884
 11  8 13 19 53  0.0000000  0  7G11G07G08G26G17G28G24
  -3903668.93748  -2995469.19545  22030374.8524                   22030371.9574
   1578369.57447   1250448.96946  21140155.4144                   21140153.3484
 -10748804.80148  -8289414.41046  20093874.0004                   20093871.9804
   -788880.64847   -573010.60244  22828652.0234                   22828651.2894
 -11186628.46947  -8672618.63346  21727076.8134                   21727075.4924
  -7003604.62548  -5459111.16446  21788630.5784                   21788628.0784
 -11163559.43747  -8662655.39545  22013528.5004                   22013527.8054
 11  8 13 19 53 30.0000000  0  7G11G07G08G26G17G28G24
  -3979984.87148  -3054936.16845  22015851.5554                   22015849.7424
   1515378.60547   1201365.04746  21128168.9844                   21128166.6884
 -10870458.64548  -8384209.62946  20070724.1024                   20070722.2584
   -915449.01247   -671635.32044  22804566.5164                   22804565.4804
 -11368091.69147  -8814018.50846  21692545.6644                   21692543.8284
  -7149808.52348  -5573036.27046  21760809.0314                   21760806.3244
 -11288496.61347  -8760009.02345  21989753.5944                   21989752.8054
 11  8 13 19 54  0.0000000  0  7G11G07G08G26G17G28G24
  -4055737.37147  -3113964.10545  22001436.7894                   22001434.6254
   1452880.43047   1152665.12146  21116275.7114                   21116273.6024
 -10991524.26248  -8478546.49646  20047686.2664                   20047684.5744
  -1041385.05547   -769767.32844  22780601.6804                   22780600.7774
 -11549156.16848  -8955107.68046  21658089.8364                   21658088.9064
  -7295945.92248  -5686909.55146  21733000.3364                   21732997.6374
 -11412838.77047  -8856899.00445  21966092.4144                   21966092.0594
 11  8 13 19 54 30.0000000  0  7G11G07G08G26G17G28G24
  -4130928.91448  -3172554.92245  21987127.9694                   21987126.4414
   1390872.78948   1104347.43846  21104475.9694                   21104473.8524
 -11112001.47348  -8572424.85946  20024759.8674                   20024758.5594
  -1166690.18747   -867407.70344  22756757.0164                   22756756.1454
 -11729822.35547  -9095886.48846  21623710.8984                   21623709.2304
  -7442017.91848  -5800731.87546  21705203.4064                   21705200.6294
 -11536586.20347  -8953325.55545  21942543.9774                   21942543.2544
 11  8 13 19 55  0.0000000  0  7G11G07G08G26G17G28G24
  -4205558.57447  -3230707.90645  21972926.8594                   21972924.4774
   1329357.28547   1056413.23046  21092770.1334                   21092768.0594
 -11231886.24648  -8665841.58646  20001946.8754                   20001944.9384
  -1291362.53947   -964555.01644  22733032.7664                   22733032.1914
 -11910087.25447  -9236352.60246  21589407.4144                   21589405.6954
  -7588021.74648  -5914501.08246  21677420.0084                   21677417.3874
 -11659735.94547  -9049286.40245  21919109.5084                   21919108.7384
 11  8 13 19 55 30.0000000  0  7G11G07G08G26G17G28G24
  -4279623.00047  -3288420.47345  21958832.7814                   21958830.0704
   1268337.42647   1008865.24246  21081158.4844                   21081156.2894
 -11351172.89548  -8758792.23846  19979247.2664                   19979245.3444
  -1415398.17247  -1061206.18044  22709429.5084                   22709428.5944
 -12089946.33647  -9376502.50046  21555180.8834                   21555179.5434
  -7733952.40248  -6028213.27346  21649650.3914                   21649647.5164
 -11782282.77747  -9144777.43045  21895789.5164                   21895788.6334
 11  8 13 19 56  0.0000000  0  7G11G07G08G26G17G28G24
  -4353116.71147  -3345688.30945  21944847.1334                   21944844.9454
   1207819.36748    961708.26246  21069642.0004                   21069640.3054
 -11469853.52048  -8851270.66046  19956663.2034                   19956661.4494
  -1538790.93047  -1157356.41044  22685948.6804                   22685947.5554
 -12269391.89147  -9516330.15646  21521033.7034                   21521032.3874
  -7879803.07048  -6141863.14146  21621895.9144                   21621893.5634
 -11904218.89847  -9239792.57045  21872585.8524                   21872585.0004
 11  8 13 19 56 30.0000000  0  7G11G07G08G26G17G28G24
  -4426032.71947  -3402505.99645  21930971.5634                   21930969.5004
   1147810.77347    914948.27746  21058223.0864                   21058221.0744
 -11587918.17248  -8943269.10946  19934196.4224                   19934194.1294
  -1661532.40247  -1252999.14544  22662591.6094                   22662591.1524
 -12448414.39847  -9655828.18046  21486967.0314                   21486965.2584
  -8025564.26648  -6255443.28546  21594158.5784                   21594155.6294
 -12025534.88347  -9334324.50445  21849500.3754                   21849499.6024
 11  8 13 19 57  0.0000000  0  7G11G07G08G26G17G28G24
  -4498370.02347  -3458872.74245  21917206.7504                   21917204.2234
   1088313.28547    868586.54746  21046901.1414                   21046899.1914
 -11705363.40248  -9034784.89546  19911847.1954                   19911845.6254
  -1783621.02047  -1348133.16444  22639359.2114                   22639358.2074
 -12627011.28547  -9794994.53546  21452981.1484                   21452979.3834
  -8171233.23047  -6368951.56246  21566438.5474                   21566435.8094
 -12146227.50447  -9428370.68445  21826533.2894                   21826532.5904
 11  8 13 19 57 30.0000000  0  7G11G07G08G26G17G28G24
  -4570121.25447  -3514782.80945  21903552.8594                   21903550.1994
   1029334.56347    822629.05546  21035677.6094                   21035675.8834
 -11822178.76648  -9125809.86746  19889618.0234                   19889615.9144
  -1905048.73447  -1442752.18444  22616251.7814                   22616251.0784
 -12805173.49647  -9933822.19146  21419077.7274                   21419076.0354
  -8316801.00847  -6482380.98846  21538738.0314                   21538735.1604
 -12266287.53947  -9521923.94945  21803686.6954                   21803685.8014
 11  8 13 19 58  0.0000000  0  7G11G07G08G26G17G28G24
  -3065861.07448  -2342632.02345  22189804.2584                   22189801.3984
   2546300.23047   2004680.16446  21324346.5314                   21324344.7464
 -10362935.06248  -7988736.86746  20167302.8204                   20167300.6954
   -450387.46947   -309249.94144  22893064.7194                   22893064.1524
 -11407469.72747  -8844702.33246  21685052.4844                   21685050.4574
  -6886837.87548  -5368123.99246  21810850.8674                   21810848.0824
 -10810285.91047  -8387377.21545  22080754.3984                   22080753.1724
 11  8 13 19 58 30.0000000  0  7G11G07G08G26G17G28G24
  -3136422.83647  -2397615.23445  22176376.6094                   22176374.1604
   2488378.22347   1959546.07446  21313324.5944                   21313323.0554
 -10478466.01648  -8078761.00846  20145318.0234                   20145316.1804
   -570473.41847   -402823.43744  22870213.3444                   22870212.6994
 -11584738.58247  -8982833.86746  21651318.8834                   21651317.4804
  -7032180.38747  -5481377.88746  21783193.0164                   21783190.5824
 -10929056.89847  -8479926.00845  22058153.0234                   22058152.3524
 11  8 13 19 59  0.0000000  0  7G11G07G08G26G17G28G24
  -3206377.21548  -2452125.15245  22163064.8524                   22163062.6094
   2430997.72347   1914833.93446  21302405.4454                   21302403.7624
 -10593338.60248  -8168272.14146  20123458.3914                   20123456.6454
   -689874.51647   -495863.27744  22847492.0554                   22847491.1524
 -11761545.34447  -9120605.31646  21617673.4844                   21617671.6914
  -7177394.84047  -5594532.00446  21755559.9534                   21755557.0474
 -11047167.75847  -8571960.44145  22035677.3914                   22035676.0864
 11  8 13 19 59 30.0000000  0  7G11G07G08G26G17G28G24
  -3275715.19948  -2506154.77345  22149870.5704                   22149867.7344
   2374168.65648   1870551.49246  21291591.2344                   21291589.2584
 -10707539.91848  -8257260.20346  20101726.8134                   20101724.9104
   -808580.92247   -588361.79344  22824903.5634                   22824902.3444
 -11937878.81247  -9258007.97746  21584118.3754                   21584116.8954
  -7322469.96547  -5707577.53946  21727953.1564                   21727950.7934
 -11164606.76647  -8663471.34045  22013328.9614                   22013328.0744
 11  8 13 20  0  0.0000000  0  7G11G07G08G26G17G28G24
  -3344431.37948  -2559699.85945  22136794.3364                   22136791.5394
   2317896.78947   1826703.23846  21280882.7894                   21280881.4654
 -10821062.77048  -8345719.58646  20080123.8284                   20080122.4144
   -926586.81647   -680314.46544  22802447.1414                   22802446.5044
 -12113731.63748  -9395036.11346  21550654.4224                   21550653.1454
  -7467398.68448  -5820509.00446  21700373.9844                   21700370.9494
 -11281366.87947  -8754453.23845  21991110.8054                   21991109.7854
 11  8 13 20  0 30.0000000  0  7G11G07G08G26G17G28G24
  -3412526.30948  -2612760.85945  22123836.3674                   22123833.6134
   2262181.91848   1783288.98046  21270281.2974                   21270279.4384
 -10933905.28548  -8433648.83646  20058650.8054                   20058648.9574
  -1043891.78547   -771720.94544  22780125.0004                   22780124.2544
 -12289102.63748  -9531688.80546  21517282.5944                   21517281.2114
  -7612179.67248  -5933325.35246  21672823.0164                   21672820.1764
 -11397446.60247  -8844904.95745  21969021.1644                   21969020.5204
 11  8 13 20  1  0.0000000  0  7G11G07G08G26G17G28G24
  -3480001.43747  -2665338.89845  22110996.0554                   22110993.4454
   2207023.39548   1740308.27046  21259784.5944                   21259782.9654
 -11046066.31648  -8521047.06646  20037307.1884                   20037305.3524
  -1160496.54347   -862581.82844  22757935.7504                   22757935.4384
 -12463991.30948  -9667965.64846  21484002.5394                   21484000.4614
  -7756812.30548  -6046026.09446  21645300.3204                   21645297.4384
 -11512845.19947  -8934825.93745  21947061.7584                   21947060.7234
 11  8 13 20  1 30.0000000  0  7G11G07G08G26G17G28G24
  -3546865.79747  -2717441.00045  22098272.1414                   22098269.3364
   2152412.71948   1697754.44146  21249392.7344                   21249390.4384
 -11157552.54748  -8607919.46546  20016092.1484                   20016090.4064
  -1276409.43447   -952903.59844  22735877.9844                   22735877.7704
 -12638404.39848  -9803871.92246  21450812.3594                   21450811.1564
  -7901303.31648  -6158616.48446  21617804.5314                   21617801.6094
 -11627569.72747  -9024221.67645  21925230.4614                   21925229.4654
 11  8 13 20  2  0.0000000  0  7G11G07G08G26G17G28G24
  -3613124.18047  -2769070.93445  22085663.4304                   22085661.4414
   2098345.30148   1655623.93446  21239103.9384                   21239102.2734
 -11268365.75048  -8694267.43446  19995005.1174                   19995003.5434
  -1391634.52747  -1042689.39844  22713951.9304                   22713951.1414
 -12812344.80148  -9939409.86346  21417713.1174                   21417711.3714
  -8045655.70748  -6271098.85946  21590335.3204                   21590332.2894
 -11741623.02347  -9113094.35945  21903526.5944                   21903526.2194
 11  8 13 20  2 30.0000000  0  7G11G07G08G26G17G28G24
  -3678783.15647  -2820233.80145  22073169.1564                   22073166.6414
   2044815.12948   1613912.06346  21228918.2344                   21228916.1094
 -11378510.03148  -8780094.16446  19974045.4694                   19974043.7074
  -1506177.84047  -1131943.96544  22692154.8284                   22692154.1604
 -12985817.37148 -10074583.25846  21384701.6094                   21384700.8244
  -8189873.98048  -6383476.72746  21562891.2274                   21562888.0704
 -11855009.77347  -9201447.67645  21881950.0314                   21881948.9884
 11  8 13 20  3  0.0000000  0  7G11G07G08G26G17G28G24
  -3743854.16047  -2870938.48445  22060786.0084                   22060784.3134
   1991811.62148   1572610.57846  21218831.6094                   21218829.7854
 -11487994.15248  -8865406.48846  19953211.3204                   19953209.6764
  -1620049.82047  -1220675.41044  22670485.7814                   22670485.0824
 -13158831.26647 -10209399.24246  21351778.7424                   21351776.9924
  -8333967.43047  -6495757.32846  21535471.1024                   21535468.4304
 -11967738.68447  -9289288.38345  21860498.4144                   21860497.1994
 11  8 13 20  3 30.0000000  0  7G11G07G08G26G17G28G24
  -3808350.05547  -2921195.06245  22048513.4614                   22048511.0164
   1939322.44948   1531709.87146  21208843.1724                   21208841.7304
 -11596828.19948  -8950212.25846  19932500.8984                   19932498.9024
  -1733262.52047  -1308893.12544  22648942.3984                   22648941.6374
 -13331396.96148 -10343865.99246  21318940.6414                   21318938.9844
  -8477946.25048  -6607948.61346  21508072.8444                   21508069.9224
 -12079820.63347  -9376624.96145  21839169.8134                   21839169.4224
 11  8 13 20  4  0.0000000  0  7G11G07G08G26G17G28G24
  -3872280.12547  -2971010.71145  22036347.9064                   22036345.2274
   1887338.50448   1491202.84446  21198951.2424                   21198949.3524
 -11705019.06648  -9034516.85246  19911912.6414                   19911911.0904
  -1845824.89847  -1396604.10244  22627522.0234                   22627521.8484
 -13503522.45748 -10477989.72346  21286186.1484                   21286184.5044
  -8621818.09048  -6720056.53146  21480695.3524                   21480692.2664
 -12191263.48047  -9463463.55145  21817962.7584                   21817961.9264
 11  8 13 20  4 30.0000000  0  7G11G07G08G26G17G28G24
  -2360233.74247  -1792792.77345  22324080.7194                   22324078.3754
   3411270.68848   2678682.42246  21488945.6884                   21488943.9344
 -10237152.50848  -7890724.74246  20191238.8134                   20191236.7504
   -382323.91847   -256213.76244  22906017.6484                   22906016.6884
 -12099791.26248  -9384173.18046  21553307.1724                   21553305.8014
  -7190167.52747  -5604484.64546  21753129.2274                   21753126.1764
 -10726652.92247  -8322208.55145  22096669.0704                   22096668.1684
 11  8 13 20  5  0.0000000  0  7G11G07G08G26G17G28G24
  -2423072.14147  -1841757.77745  22312123.1644                   22312120.5554
   3360259.31348   2638933.23446  21479238.6334                   21479236.7544
 -10344089.84448  -7974052.56246  20170889.3284                   20170887.2974
   -493623.16047   -342940.46544  22884837.9614                   22884837.4964
 -12271069.69948  -9517636.85946  21520714.3524                   21520712.6214
  -7333858.68447  -5716451.76646  21725785.5864                   21725782.9104
 -10836851.11747  -8408077.28145  22075699.2114                   22075698.4884
 11  8 13 20  5 30.0000000  0  7G11G07G08G26G17G28G24
  -2485385.80547  -1890313.89845  22300265.0944                   22300263.0084
   3309713.75848   2599547.02746  21469620.3754                   21469618.3874
 -10450417.40648  -8056905.23046  20150655.7344                   20150653.8284
   -604310.79347   -429190.60944  22863774.4844                   22863774.1254
 -12441942.46948  -9650784.44946  21488198.0864                   21488196.3204
  -7477476.71548  -5828361.91446  21698456.2664                   21698453.2074
 -10946445.05147  -8493475.14845  22054843.9304                   22054843.4494
 11  8 13 20  6  0.0000000  0  7G11G07G08G26G17G28G24
  -2547185.17647  -1938469.28545  22288504.7034                   22288502.7464
   3259624.26248   2560516.19546  21460088.3054                   21460086.8594
 -10556143.18048  -8139288.97746  20130536.6644                   20130534.6094
   -714396.89847   -514972.03144  22842825.9614                   22842825.2034
 -12612418.02048  -9783622.49646  21455757.7344                   21455755.9454
  -7621029.94548  -5940221.56246  21671138.6094                   21671135.6844
 -11055443.27347  -8578408.81645  22034102.4224                   22034101.3364
 11  8 13 20  6 30.0000000  0  7G11G07G08G26G17G28G24
  -2608483.03547  -1986233.86745  22276840.8834                   22276838.6134
   3209978.64848   2521831.25046  21450641.3284                   21450639.7034
 -10661277.60248  -8221211.92646  20110530.1884                   20110528.6914
   -823893.52347   -600294.10944  22821989.5554                   22821989.0904
 -12782507.44548  -9916159.68446  21423390.6174                   21423388.7584
  -7764529.42648  -6052039.32446  21643831.5944                   21643828.9574
 -11163856.40247  -8662886.58645  22013472.4694                   22013471.2074
 11  8 13 20  7  0.0000000  0  7G11G07G08G26G17G28G24
  -2669297.87947  -2033622.09444  22265267.4694                   22265264.9654
   3160758.55948   2483477.86746  21441275.3364                   21441273.8984
 -10765836.75848  -8302686.62146  20090633.3054                   20090631.6094
   -932818.58247   -685170.80944  22801261.1414                   22801261.2584
 -12952227.11348 -10048408.73446  21391093.9304                   21391092.2544
  -7907991.10948  -6163827.64146  21616531.7274                   21616528.5594
 -11271701.35547  -8746921.60545  21992950.0634                   21992948.9344
 11  8 13 20  7 30.0000000  0  7G11G07G08G26G17G28G24
  -2729644.80947  -2080645.68745  22253784.1254                   22253782.2384
   3111949.92648   2445445.11746  21431987.2114                   21431985.0944
 -10869832.50448  -8383722.30146  20070843.2974                   20070841.8674
  -1041186.37547   -769613.27344  22780639.7194                   22780639.6994
 -13121589.85248 -10180379.66846  21358865.2504                   21358863.7194
  -8051427.28148  -6275596.08246  21589236.8914                   21589233.9534
 -11378990.68747  -8830523.67245  21972533.2894                   21972532.5234
 11  8 13 20  8  0.0000000  0  7G11G07G08G26G17G28G24
  -2789537.45747  -2127315.32045  22242387.4844                   22242384.7034
   3063539.35548   2407722.54346  21422774.9454                   21422773.5704
 -10973277.03948  -8464328.45746  20051158.5784                   20051157.3134
  -1149009.89147   -853631.62944  22760121.9144                   22760121.4774
 -13290607.38348 -10312081.60246  21326702.2344                   21326700.1604
  -8194849.58248  -6387353.71146  21561944.5474                   21561941.7974
 -11485736.34847  -8913702.10545  21952219.7584                   21952219.4064
 11  8 13 20  8 30.0000000  0  7G11G07G08G26G17G28G24
  -2848986.19147  -2173639.02744  22231074.7034                   22231071.9654
   3015516.87548   2370302.36346  21413637.0164                   21413634.6914
 -11076177.73848  -8544510.84446  20031577.6484                   20031575.6844
  -1256299.34447   -937233.83644  22739705.0474                   22739704.6524
 -13459288.41448 -10443521.32846  21294603.2664                   21294601.9064
  -8338266.15248  -6499106.88346  21534653.2894                   21534650.3444
 -11591947.21147  -8996463.81245  21932009.1254                   21932008.2304
 11  8 13 20  9  0.0000000  0  7G11G07G08G26G17G28G24
  -2908007.09847  -2219629.37944  22219843.1884                   22219840.9064
   2967866.96948   2333172.51646  21404568.9924                   21404567.3634
 -11178548.19148  -8624280.05546  20012097.3364                   20012095.5434
  -1363069.84447  -1020431.66044  22719387.3594                   22719387.0984
 -13627646.60548 -10574709.50046  21262565.8204                   21262564.3484
  -8481690.40248  -6610866.03946  21507360.6024                   21507357.5984
 -11697637.10547  -9078819.57445  21911896.7894                   21911895.8634
 11  8 13 20  9 30.0000000  0  7G11G07G08G26G17G28G24
  -2966614.45347  -2265297.47344  22208690.6334                   22208688.2934
   2920575.93048   2296322.29746  21395570.3364                   21395568.6994
 -11280400.27348  -8703645.33646  19992715.3754                   19992713.6564
  -1469335.10947  -1103235.79744  22699166.7034                   22699165.4264
 -13795694.18748 -10705655.63746  21230587.3284                   21230585.5554
  -8625134.05548  -6722640.31646  21480064.2114                   21480061.2774
 -11802818.55947  -9160779.14545  21891881.5004                   21891880.5704
 11  8 13 20 10  0.0000000  0  7G11G07G08G26G17G28G24
  -3024820.92647  -2310653.20744  22197614.4384                   22197611.9924
   2873631.81348   2259742.40246  21386636.9144                   21386635.1844
 -11381744.36748  -8782614.78546  19973430.2894                   19973428.7154
  -1575107.34447  -1185655.75444  22679037.9384                   22679037.7034
 -13963441.88348 -10836368.09046  21198665.9454                   21198664.5274
  -8768607.45348  -6834437.77346  21452762.1564                   21452759.2774
 -11907501.97347  -9242350.64145  21871960.9144                   21871959.6844
 11  8 13 20 10 30.0000000  0  7G11G07G08G26G17G28G24
  -3082636.88747  -2355704.62544  22186612.0864                   22186609.6804
   2827024.51648   2223424.96946  21377767.9614                   21377766.3204
 -11482588.03548  -8861194.27746  19954240.4304                   19954238.6254
  -1680396.37147  -1267699.17644  22659002.5004                   22659002.1884
 -14130897.93748 -10966853.28946  21166799.8984                   21166798.4494
  -8912118.43448  -6946264.51246  21425452.6804                   21425449.8984
 -12011696.02347  -9323540.81645  21852133.3834                   21852132.5434
 11  8 13 20 11  0.0000000  0  7G11G07G08G26G17G28G24
  -1564650.35947  -1172858.00444  22475475.4384                   22475472.7384
   4356166.19148   3414963.87946  21668753.8834                   21668752.4884
 -10007515.78548  -7711787.35946  20234936.8134                   20234935.1844
   -209787.77347   -121770.43744  22938850.4064                   22938849.6684
 -12722644.98848  -9869513.29746  21434781.6094                   21434779.7154
  -7480249.34848  -5830522.37546  21697928.3364                   21697925.5864
 -10539985.18747  -8176753.16045  22132190.7274                   22132189.5664
 11  8 13 20 11 30.0000000  0  7G11G07G08G26G17G28G24
  -1621712.39847  -1217321.95744  22464617.0314                   22464614.4024
   4310207.21948   3379151.62146  21660007.9694                   21660006.8054
 -10107379.21548  -7789603.03546  20215933.9694                   20215932.2584
   -314135.73847   -203080.56644  22918993.4844                   22918992.9304
 -12889539.31648  -9999560.78146  21403022.9454                   21403020.7504
  -7623854.82048  -5942422.74246  21670600.8054                   21670598.4384
 -10643222.03947  -8257197.46145  22112545.1564                   22112544.3284
 11  8 13 20 12  0.0000000  0  7G11G07G08G26G17G28G24
  -1678399.97347  -1261494.12144  22453830.1484                   22453827.2274
   4264570.82048   3343590.71546  21651323.8914                   21651322.1374
 -10206751.03148  -7867035.64846  20197023.8444                   20197022.4964
   -418014.69547   -284025.25044  22899225.9534                   22899225.2464
 -13056151.60548 -10129388.50046  21371317.6334                   21371315.7464
  -7767506.19148  -6054358.87546  21643265.0784                   21643262.4064
 -10745979.87147  -8337268.50445  22092990.8674                   22092990.2734
 11  8 13 20 12 30.0000000  0  7G11G07G08G26G17G28G24
  -1734711.14147  -1305372.97344  22443114.3134                   22443111.5554
   4219259.46547   3308283.09446  21642701.7034                   21642699.9104
 -10305627.21548  -7944082.05146  20178208.6414                   20178206.8714
   -521422.27347   -364602.61744  22879547.9224                   22879547.8754
 -13222478.40648 -10258993.77346  21339666.4694                   21339664.8484
  -7911198.99248  -6166327.28946  21615921.3674                   21615918.5864
 -10848254.81247  -8416963.27045  22073528.8134                   22073528.0084
 11  8 13 20 13  0.0000000  0  7G11G07G08G26G17G28G24
  -1790635.13347  -1348950.14845  22432472.2584                   22432469.6954
   4174283.75447   3273237.01246  21634142.9534                   21634141.5594
 -10403994.83648  -8020732.17246  20159489.7974                   20159487.9414
   -624347.50047   -444804.12144  22859962.1484                   22859961.7424
 -13388507.01248 -10388366.67646  21308072.1644                   21308070.8834
  -8054920.18748  -6278317.82446  21588572.0004                   21588569.3874
 -10950034.63347  -8496272.22745  22054161.0944                   22054160.2464
 11  8 13 20 13 30.0000000  0  7G11G07G08G26G17G28G24
  -1846167.26247  -1392221.95344  22421905.0314                   22421902.1764
   4129649.43448   3238456.94546  21625649.3834                   21625648.0904
 -10501846.73048  -8096980.42646  20140869.4064                   20140867.2074
   -726785.06247   -524625.64144  22840469.1024                   22840468.5354
 -13554230.79748 -10517502.06246  21276536.1024                   21276534.2854
  -8198662.27748  -6390324.63746  21561218.8914                   21561215.8284
 -11051312.70747  -8575190.21545  22034888.5394                   22034887.5944
 11  8 13 20 14  0.0000000  0  7G11G07G08G26G17G28G24
  -1901296.87547  -1435180.13344  22411413.8834                   22411411.8444
   4085367.89548   3203951.77746  21617223.0864                   21617221.5824
 -10599169.36348  -8172816.27746  20122349.3054                   20122347.5274
   -828723.53947   -604058.25844  22821070.6644                   22821070.0084
 -13719636.49648 -10646389.59446  21245060.3364                   21245058.5664
  -8342411.30148  -6502336.86346  21533864.3754                   21533861.4104
 -11152076.19947  -8653707.22745  22015713.8914                   22015713.0434
 11  8 13 20 14 30.0000000  0  7G11G07G08G26G17G28G24
  -1956013.48847  -1477816.49244  22401001.5864                   22400999.6884
   4041449.61748   3169729.66846  21608865.6174                   21608864.0944
 -10695950.81248  -8248230.42246  20103932.7274                   20103930.8094
   -930152.34447   -683093.70744  22801769.9614                   22801768.8984
 -13884712.06248 -10775019.86746  21213647.4844                   21213645.7464
  -8486154.64148  -6614344.64546  21506510.8134                   21506507.8674
 -11252313.27047  -8731814.04345  21996639.4454                   21996638.6134
 11  8 13 20 15  0.0000000  0  7G11G07G08G26G17G28G24
  -2010314.26647  -1520128.81644  22390668.5084                   22390666.2544
   3997898.11348   3135793.35546  21600578.3364                   21600576.9414
 -10792185.49648  -8323218.51246  20085619.4694                   20085617.9884
  -1031068.05547   -761729.36345  22782566.0164                   22782565.4104
 -14049452.55148 -10903389.04746  21182298.4774                   21182296.8834
  -8629886.76648  -6726343.69546  21479160.0394                   21479157.0204
 -11352019.30147  -8809507.05545  21977666.1174                   21977664.9734
 11  8 13 20 15 30.0000000  0  7G11G07G08G26G17G28G24
  -2064195.42247  -1562114.15644  22380415.4064                   22380413.0664
   3954717.84448   3102146.32446  21592361.3594                   21592359.6994
 -10887867.07448  -8397775.60946  20067412.2114                   20067410.2894
  -1131466.31647   -839961.81244  22763460.5784                   22763460.1684
 -14213851.95748 -11031492.45346  21151014.2584                   21151012.4884
  -8773601.19148  -6838328.95346  21451811.4384                   21451808.7424
 -11451188.75447  -8886781.96945  21958794.3524                   21958793.3404
 11  8 13 20 16  0.0000000  0  7G11G07G08G26G17G28G24
  -2117651.14547  -1603767.99244  22370242.6644                   22370241.0314
   3911914.97347   3068793.35946  21584216.5164                   21584214.8484
 -10982987.49648  -8471895.44546  20049311.2814                   20049309.4924
  -1231341.04347   -917786.32444  22744455.3594                   22744455.3484
 -14377902.52348 -11159324.03946  21119796.5554                   21119794.6134
  -8917289.16048  -6950293.60246  21424468.6094                   21424465.8244
 -11549813.88347  -8963632.73445  21940026.4924                   21940025.9344
 11  8 13 20 16 30.0000000  0  7G11G07G08G26G17G28G24
  -2170688.24247  -1645095.62944  22360150.6174                   22360148.8164
   3869483.64848   3035729.91445  21576142.1094                   21576140.6764
 -11077551.49248  -8545581.69146  20031316.2274                   20031314.7274
  -1330698.44947   -995207.71144  22725548.3054                   22725547.6254
 -14541608.83648 -11286887.37146  21088644.2584                   21088642.1804
  -9060954.78148  -7062240.82446  21397130.1094                   21397127.3094
 -11647899.83247  -9040063.33645  21921361.6804                   21921361.0434
 11  8 13 20 17  0.0000000  0  7G11G07G08G26G17G28G24
  -2223312.82847  -1686101.83244  22350136.2584                   22350134.3204
   3827417.61748   3002951.11746  21568137.3444                   21568135.7074
 -11171563.06648  -8618837.48446  20013426.5394                   20013424.9614
  -1429544.31647  -1072230.50444  22706738.0864                   22706737.8324
 -14704975.26248 -11414185.86346  21057556.6804                   21057554.8754
  -9204601.29348  -7174173.16446  21369794.9384                   21369792.0634
 -11745450.98447  -9116077.23445  21902798.3364                   21902797.7544
 11  8 13 20 17 30.0000000  0  7G11G07G08G26G17G28G24
   -700100.81647   -499183.42244  22639993.9534                   22639991.8834
   5361140.92648   4198060.10946  21859995.1804                   21859993.5474
  -9689594.71548  -7464056.96946  20295436.0864                   20295434.2234
     47547.21147     78749.87544  22987819.9924                   22987819.3674
 -13292572.24648 -10313612.06246  21326327.7344                   21326325.9454
  -7772798.94548  -6058483.02046  21642258.1254                   21642255.0554
 -10267040.33647  -7964068.94945  22184130.7734                   22184129.5234
 11  8 13 20 18  0.0000000  0  8G11G07G08G26G04G17G28G24
   -751907.65247   -539552.41444  22630135.4454                   22630133.2624
   5319799.80548   4165846.17646  21852128.0554                   21852126.6214
  -9782501.71148  -7536452.05146  20277756.0234                   20277754.1524
    -50281.89847      2519.36744  22969203.8134                   22969203.2774
  32615422.33656  25609943.20352  24681858.5704                   24681866.0704
 -13455260.04348 -10440381.75046  21295369.9454                   21295367.6254
  -7916406.59448  -6170385.07846  21614930.1564                   21614927.2584
 -10363524.41847  -8039251.35245  22165770.4304                   22165769.2034
 11  8 13 20 18 30.0000000  0  8G11G07G08G26G04G17G28G24
   -803318.15647   -579612.57844  22620352.7584                   22620350.5204
   5278809.74648   4133905.78546  21844328.2034                   21844326.8364
  -9874865.05148  -7608423.50846  20260180.2974                   20260178.4804
   -147614.27347    -73324.07844  22950681.4924                   22950681.2894
  32378752.36346  25425525.31342  24636821.8914                   24636829.2624
 -13617617.78948 -10566894.25446  21264473.6644                   21264471.6914
  -8060002.46948  -6282277.95746  21587605.0704                   21587602.2624
 -10459484.66447  -8114025.57845  22147509.2584                   22147508.3634
 11  8 13 20 19  0.0000000  0  8G11G07G08G26G04G17G28G24
   -854346.39147   -619374.85944  22610642.2194                   22610639.7504
   5238156.91448   4102228.17246  21836591.9774                   21836590.7074
  -9966696.89848  -7679980.80946  20242705.2114                   20242703.4694
   -244463.89147   -148791.34044  22932252.0314                   22932251.5474
  32141970.67246  25241020.39842  24591764.0314                   24591771.1724
 -13779657.92648 -10693159.27746  21233638.4844                   21233636.4804
  -8203598.00848  -6394170.58246  21560279.6334                   21560276.7974
 -10554933.58647  -8188401.37145  22129345.9534                   22129345.4144
 11  8 13 20 19 30.0000000  0  8G11G07G08G26G04G17G28G24
   -904996.49247   -658842.49244  22601004.0554                   22601001.7274
   5197837.61347   4070810.45345  21828919.3914                   21828918.5944
 -10057999.41848  -7751125.65246  20225330.6954                   20225329.1604
   -340834.19547   -223885.11744  22913913.0474                   22913912.8794
  31905078.26246  25056429.20742  24546684.0234                   24546691.4184
 -13941382.18448 -10819178.16446  21202863.4844                   21202862.0554
  -8347194.80148  -6506064.17646  21532954.4224                   21532951.1724
 -10649873.79347  -8262380.75445  22111279.6174                   22111278.6134
 11  8 13 20 20  0.0000000  0  8G11G07G08G26G04G17G28G24
   -955269.60247   -698016.37144  22591437.3444                   22591434.6684
   5157851.05148   4039652.00046  21821310.4844                   21821309.1644
 -10148772.02748  -7821857.58246  20208057.1724                   20208055.4264
   -436726.64147   -298606.56644  22895665.6884                   22895665.2194
  31668078.39146  24871754.25842  24501584.4144                   24501592.0634
 -14102789.53948 -10944950.10946  21172148.4144                   21172146.6764
  -8490791.10948  -6617957.40646  21505628.5084                   21505625.5824
 -10744304.77747  -8335963.34845  22093310.3914                   22093308.9884
 11  8 13 20 20 30.0000000  0  8G11G07G08G26G04G17G28G24
  -1005169.63347   -736899.52744  22581941.7194                   22581939.0514
   5118194.09447   4008750.38346  21813764.2664                   21813763.0904
 -10239016.26248  -7892177.79346  20190884.3284                   20190882.6454
   -532144.15247   -372957.91844  22877508.0944                   22877507.8164
  31430972.41446  24686996.67242  24456464.7034                   24456472.0044
 -14263882.40648 -11070476.99646  21141493.5474                   21141491.9534
  -8634387.67248  -6729850.82846  21478302.9304                   21478300.2974
 -10838228.59447  -8409150.73845  22075436.9454                   22075436.3484
 11  8 13 20 21  0.0000000  0  8G11G07G08G26G04G17G28G24
  -1054695.86747   -775491.42644  22572517.2894                   22572514.9264
   5078868.02347   3978106.59046  21806280.4694                   21806279.3094
 -10328728.79748  -7962083.69946  20173813.2274                   20173811.2974
   -627085.83647   -446938.49644  22859441.7584                   22859441.5044
  31193766.23846  24502160.95342  24411325.8364                   24411333.0004
 -14424657.86748 -11195756.55546  21110899.1954                   21110897.1094
  -8777980.70748  -6841741.50846  21450978.4144                   21450975.1484
 -10931642.78147  -8481941.01245  22057661.2814                   22057659.6524
 11  8 13 20 21 30.0000000  0  8G11G07G08G26G04G17G28G24
  -1103854.58647   -813796.94544  22563162.2114                   22563160.1524
   5039866.80948   3947715.94545  21798859.4924                   21798857.8444
 -10417914.05548  -8031578.73446  20156841.1724                   20156839.5434
   -721557.96547   -520553.18044  22841463.8984                   22841463.7424
  30956457.98446  24317245.73843  24366166.7894                   24366173.8054
 -14585120.01248 -11320791.96546  21080364.0864                   21080362.0204
  -8921573.57448  -6953632.05946  21423653.4924                   21423650.7304
 -11024552.34447  -8554338.08245  22039980.8984                   22039979.8554
 11  8 13 20 22  0.0000000  0  8G11G07G08G26G04G17G28G24
  -1152651.64847   -851820.64844  22553877.1174                   22553874.8984
   5001184.98447   3917574.16846  21791498.5084                   21791497.3524
 -10506575.77748  -8100665.82846  20139969.5944                   20139967.6334
   -815565.86747   -593806.14144  22823575.2894                   22823575.4774
  30719046.98846  24132250.45743  24320989.3524                   24320995.3524
 -14745272.79348 -11445586.31646  21049888.0394                   21049886.4024
  -9065169.38348  -7065524.89846  21396328.0944                   21396325.1884
 -11116961.72347  -8626345.39145  22022395.7974                   22022395.3594
 11  8 13 20 22 30.0000000  0  8G11G07G08G26G04G17G28G24
  -1201090.17647   -889565.00044  22544659.5084                   22544656.4144
   4962819.96947   3887679.25046  21784197.9844                   21784196.3874
 -10594715.00048  -8169345.77046  20123197.4144                   20123195.6724
   -909112.50847   -666699.68044  22805773.6094                   22805773.7154
  30481534.74246  23947176.25443  24275792.4224                   24275798.0314
 -14905117.43048 -11570140.55146  21019470.4924                   21019468.7584
  -9208768.05948  -7177419.97746  21369002.2894                   21368999.1994
 -11208872.37147  -8697964.07445  22004905.9384                   22004905.4224
 11  8 13 20 23  0.0000000  0  8G11G07G08G26G04G17G28G24
  -1249179.82847   -927037.47344  22535508.0474                   22535505.6844
   4924762.66048   3858024.13746  21776956.1334                   21776954.7384
 -10682339.17648  -8237624.37946  20106523.3594                   20106521.1724
  -1002207.02347   -739240.89844  22788058.2424                   22788058.2934
  30243917.07046  23762019.91043  24230574.5394                   24230580.5634
 -15064661.39548 -11694460.50046  20989110.2664                   20989108.5164
  -9352376.03948  -7289322.30146  21341674.5314                   21341671.3914
 -11300292.35547  -8769200.42645  21987508.9304                   21987508.4144
 11  8 13 20 23 30.0000000  0  8G11G07G08G26G04G17G28G24
    278491.27047    263355.55544  22826213.7424                   22826212.3094
   6462425.10947   5056202.55545  22069563.4064                   22069562.5744
  -9194032.85548  -7077905.20746  20389738.7424                   20389736.8984
    480564.24247    416165.24244  23070220.5784                   23070220.3484
  31581617.09046  24804383.83243  24485130.0704                   24485136.4694
 -13648487.18448 -10590948.10246  21258599.1954                   21258597.7934
  -7920575.32848  -6173633.43446  21614137.3444                   21614134.2114
  -9815806.59847  -7612458.27745  22269997.9304                   22269996.8754
 11  8 13 20 24  0.0000000  0  8G11G07G08G26G04G17G28G24
    231068.43047    226402.66844  22817189.5944                   22817187.2934
   6424953.34047   5027003.68445  22062432.6954                   22062431.6454
  -9280651.72748  -7145400.46946  20373255.4454                   20373253.3754
    388343.58247    344304.92644  23052671.4304                   23052671.3324
  31343772.39546                  24619050.57443  24439870.0554   24439875.4614
 -13807454.82048 -10714818.95746  21228348.7584                   21228347.0474
  -8064224.24648  -6285567.66046  21586801.6564                   21586798.5204
  -9906271.43747  -7682950.37145  22252782.8914                   22252782.0354
 11  8 13 20 24 30.0000000  0  8G11G07G08G26G04G17G28G24
    183960.91047    189695.47344  22808225.1174                   22808223.1844
   6387757.09048   4998019.49245  22055354.4614                   22055353.5044
  -9366783.01248  -7212515.78946  20356865.2034                   20356863.5704
    296542.16447    272771.30944  23035202.3364                   23035202.4614
  31105803.62946                  24433620.66043  24394585.3524   24394591.5594
 -13966149.61348 -10838477.21146  21198150.1644                   21198148.1914
  -8207906.89848  -6397528.16046  21559459.9144                   21559456.7384
  -9996274.50447  -7753082.62945  22235655.6884                   22235654.8404
 11  8 13 20 25  0.0000000  0  8G11G07G08G26G04G17G28G24
    137159.09847    153226.48044  22799319.1954                   22799317.5634
   6350827.12147   4969242.80145  22048326.8054                   22048325.7424
  -9452434.12948  -7279256.93746  20340566.2504                   20340564.4264
    205150.38747    201556.87144  23017811.5234                   23017811.4694
  30867706.02346                  24248090.37143  24349276.9924   24349282.7424
 -14124579.09848 -10961928.72346  21168001.8834                   21168000.0434
  -8351630.06248  -6509520.23446  21532109.8984                   21532107.0554
 -10085823.88347  -7822861.36345  22218614.9614                   22218614.1134
 11  8 13 20 25 30.0000000  0  8G11G07G08G26G04G17G28G24
     90655.75047    116990.06644  22790470.1564                   22790468.3134
   6314156.85247   4940668.46945  22041348.7894                   22041347.6684
  -9537610.59448  -7345628.24646  20324357.6484                   20324355.9844
    114161.52347    130656.40244  23000496.6954                   23000496.4144
  30629477.84846                  24062458.28543  24303943.8594   24303948.9024
 -14282748.29748 -11085177.42246  21137903.1724                   21137901.4224
  -8495397.72348  -6621546.97346  21504752.2194                   21504749.0984
 -10174925.31247  -7892291.05945  22201659.2734                   22201658.6804
 11  8 13 20 26  0.0000000  0  8G11G07G08G26G04G17G28G24
     44438.73047     80976.76244  22781675.3674                   22781673.4964
   6277734.62947   4912287.41845  22034418.2584                   22034417.0664
  -9622322.72348  -7411637.72346  20308237.3134                   20308235.8554
     23563.71147     60060.64844  22983255.9064                   22983256.1724
  30391111.81646                  23876718.82843  24258583.5634   24258588.8284
 -14440667.54748 -11208231.36346  21107852.2274                   21107850.5084
  -8639218.64548  -6733615.21946  21477383.6414                   21477380.7774
 -10263589.50447  -7961380.05145  22184787.5944                   22184786.4264
 11  8 13 20 26 30.0000000  0  8G11G07G08G26G04G17G28G24
     -1502.41047     45178.44144  22772933.6954                   22772930.3444
   6241549.90247   4884091.42245  22027532.8134                   22027531.3594
  -9706578.79748  -7477291.84446  20292204.4224                   20292202.6954
    -66653.40647    -10238.46144  22966088.7114                   22966088.6684
  30152602.62546                  23690867.72743  24213196.5164   24213201.8954
 -14598345.12948 -11331096.98046  21077847.1024                   21077845.3094
  -8783100.13348  -6845730.65646  21450004.0084                   21450000.7464
 -10351825.46547  -8030135.35245  22167996.7424                   22167995.8094
 11  8 13 20 27  0.0000000  0  8G11G07G08G26G04G17G28G24
    -47178.78547      9586.43444  22764241.6484                   22764239.5084
   6205592.50047   4856072.54345  22020690.1094                   22020688.7894
  -9790387.96148  -7542597.70746  20276256.0474                   20276254.2624
   -156500.84047    -80249.50444  22948991.1954                   22948991.4144
  29913944.30546                  23504900.47343  24167781.4064   24167786.4344
 -14755790.12548 -11453781.37946  21047886.5704                   21047884.6524
  -8927050.11348  -6957899.47346  21422611.1414                   21422608.3754
 -10439642.87147  -8098564.51245  22151285.5004                   22151284.9614
 11  8 13 20 27 30.0000000  0  8G11G07G08G26G04G17G28G24
    -92590.71947    -25799.53544  22755600.1334                   22755597.6644
   6169862.46147   4828230.86345  22013890.8134                   22013889.7384
  -9873748.59848  -7607554.09046  20260392.9304                   20260391.2154
   -245978.64147   -149972.51644  22931964.0784                   22931964.2154
  29675141.77746                  23318820.86343  24122338.4064   24122343.1484
 -14913001.05948 -11576283.39146  21017970.4614                   21017967.9804
  -9071065.84848  -7070119.52346  21395205.8284                   21395202.6374
 -10527040.67247  -8166666.70745  22134654.3524                   22134653.4184
 11  8 13 20 28  0.0000000  0  8G11G07G08G26G04G17G28G24
   -137747.77047    -60986.87944  22747006.9454                   22747004.6804
   6134350.32447   4800558.96145  22007133.8054                   22007132.3484
  -9956668.66848  -7672167.16846  20244613.6884                   20244612.1914
   -335096.32047   -219414.92644  22915005.6174                   22915005.7274
  29436190.11346                  23132625.07042  24076866.2584   24076872.2814
 -15069985.52348 -11698608.92246  20988096.6644                   20988095.1174
  -9215154.16448  -7182396.12546  21367787.0164                   21367783.7584
 -10614027.06247  -8234448.33245  22118101.1884                   22118100.8554
 11  8 13 20 28 30.0000000  0  8G11G07G08G26G04G17G28G24
   -182654.87547    -95979.45744  22738461.3364                   22738458.8594
   6099051.66047   4773053.41045  22000416.3524                   22000415.3954
 -10039151.19948  -7736439.30946  20228918.2584                   20228916.8554
   -423858.93447   -288580.64544  22898114.7194                   22898114.6334
  29197089.60946                  22946313.28142  24031366.5784   24031372.8164
 -15226746.46948 -11820760.30146  20958266.5784                   20958264.3594
  -9359316.66048  -7294730.53146  21340353.6724                   21340350.3794
 -10700605.78147  -8301912.28545  22101625.8674                   22101625.3634
 11  8 13 20 29  0.0000000  0  8G11G07G08G26G04G17G28G24
   -227314.37147   -130779.09444  22729962.9304                   22729960.8524
   6063964.60247   4745712.73845  21993739.5704                   21993738.8794
 -10121196.11748  -7800370.46146  20213305.3674                   20213303.7704
   -512268.20747   -357471.05544  22881291.0084                   22881291.1564
  28957843.53146                  22759888.03142  23985839.7894   23985844.8634
 -15383284.24248 -11942737.77346  20928478.2194                   20928476.4614
  -9503551.82448  -7407121.56246  21312906.7504                   21312903.4494
 -10786777.25847  -8369058.90645  22085227.8834                   22085227.2464
 11  8 13 20 29 30.0000000  0  8G11G07G08G26G04G17G28G24
   -271735.56647   -165393.05944  22721510.2664                   22721507.6174
   6029080.46947   4718530.19545  21987101.1334                   21987100.6054
 -10202811.31248  -7863966.75046  20197774.5554                   20197773.4064
   -600333.28547   -426093.25044  22864533.1414                   22864533.2734
  28718447.92246                  22573346.22743  23940284.6174   23940289.5784
 -15539606.30548 -12064547.15246  20898730.8524                   20898728.7934
  -9647865.68048  -7519573.90246  21285444.6024                   21285441.6844
 -10872549.57447  -8435894.48445  22068905.9064                   22068905.0234
 11  8 13 20 30  0.0000000  0  8G11G07G08G26G04G17G28G24
   1259493.27347   1027772.23044  23012893.0164                   23012890.5084
   7569810.94547   5919099.28145  22280292.5554                   22280292.2234
  -8708581.65248  -6699632.00046  20482117.1644                   20482115.4964
    887358.90647    733147.33244  23147631.1644                   23147631.8204
  30054325.89846                  23614290.36743  24194493.6724   24194498.0314
 -14120295.21148 -10958590.44146  21168817.3284                   21168815.1604
  -8216840.12948  -6404489.07046  21557760.0634                   21557756.3204
  -9382508.11747  -7274823.23845  22352451.7734                   22352450.6804
 11  8 13 20 30 30.0000000  0  8G11G07G08G26G04G17G28G24
   1215529.41447    993514.63744  23004527.0784                   23004524.6844
   7535314.48047   5892218.81345  22273728.4694                   22273727.4534
  -8789350.56248  -6762568.85946  20466747.0394                   20466745.3054
    799962.98047    665046.56344  23131000.9224                   23131000.8094
  29814626.97346                  23427512.21543  24148880.4144   24148885.2424
 -14276199.00048 -11080073.90246  21139149.6724                   21139147.8834
  -8361321.30548  -6517071.80146  21530265.8674                   21530262.7154
  -9467497.17248  -7341048.48845  22336278.7734                   22336278.1024
 11  8 13 20 31  0.0000000  0  8G11G07G08G26G04G17G28G24
   1171786.41047    959429.13744  22996203.6174                   22996200.8054
   7501004.55547   5865483.69145  22267199.4144                   22267198.9844
  -8869701.90648  -6825180.33246  20451456.7734                   20451455.4264
    712893.70747    597200.30144  23114431.9304                   23114432.1174
  29574776.34446                  23240615.87543  24103237.7894   24103242.9304
 -14431898.85548 -11201398.44946  21109520.7424                   21109519.1024
  -8505889.39848  -6629722.26246  21502755.2584                   21502752.5554
  -9552100.97347  -7406973.54745  22320179.4144                   22320178.4884
 11  8 13 20 31 30.0000000  0  8G11G07G08G26G04G17G28G24
   1128256.69947    925509.85944  22987919.5554                   22987917.2664
   7466874.14547   5838888.45745  22260704.7894                   22260703.9694
  -8949641.14548  -6887470.69546  20436245.1724                   20436243.6254
    626143.88747    529602.97744  23097923.8594                   23097924.2074
  29334771.71546                  23053599.54343  24057566.4384   24057570.9494
 -14587399.87948 -11322568.05946  21079929.8444                   21079928.0554
  -8650548.39848  -6742443.55146  21475227.6484                   21475225.2034
  -9636325.48047  -7472603.04345  22304151.5314                   22304150.6564
 11  8 13 20 32  0.0000000  0  8G11G07G08G26G04G17G28G24
   1084935.93847    891753.37944  22979675.7114                   22979673.2544
   7432919.31647   5812430.04345  22254243.3674                   22254242.8834
  -9029170.43448  -6949441.60546  20421111.4224                   20421109.4414
    539709.33647    462251.29744  23081475.9224                   23081476.3134
  29094613.91846                  22866463.86343  24011865.1174   24011870.8444
 -14742704.56648 -11443584.68046  21050376.4454                   21050374.4804
  -8795298.70348  -6855235.99646  21447682.5554                   21447679.7704
  -9720173.47347  -7537939.16445  22288196.1414                   22288195.5044
 11  8 13 20 32 30.0000000  0  8G11G07G08G26G04G17G28G24
   1041819.34447    858155.98044  22971471.2894                   22971468.8754
   7399135.64547   5786104.99645  22247814.5944                   22247813.5864
  -9108293.22748  -7011095.77746  20406054.4844                   20406053.1414
    453585.24247    395141.54344  23065087.0864                   23065087.3834
  28854303.78946                  22679209.51643  23966136.4534   23966140.8094
 -14897815.96548 -11564450.68746  21020859.7274                   21020857.9064
  -8940142.37948  -6968101.19946  21420119.8594                   21420116.9024
  -9803648.64547  -7602984.76245  22272311.2734                   22272310.6134
 11  8 13 20 33  0.0000000  0  8G11G07G08G26G04G17G28G24
    998903.15647    824714.74244  22963304.4144                   22963302.6374
   7365519.51647   5759910.49645  22241417.5084                   22241417.3094
  -9187011.59448  -7072434.80146  20391074.7274                   20391073.5394
    367767.87947    328270.79344  23048757.2344                   23048757.1884
  28613842.53946                  22491837.36343  23920377.0394   23920381.8404
 -15052735.78948 -11685167.41446  20991379.1884                   20991377.5164
  -9085079.66848  -7081039.34846  21392539.2504                   21392536.7034
  -9886753.55947  -7667741.84845  22256496.7114                   22256496.0084
 11  8 13 20 33 30.0000000  0  8G11G07G08G26G04G17G28G24
    956190.85547    791432.38744  22955176.6644                   22955174.6334
   7332075.10547   5733849.81645  22235053.8444                   22235053.2274
  -9265320.43448  -7133454.71946  20376173.5314                   20376171.9694
    282261.05947    261642.02344  23032485.3914                   23032485.8204
  28373239.23046                  22304354.53943  23874592.0704   23874596.5434
 -15207458.52748 -11805730.55946  20961936.5314                   20961934.3754
  -9230103.52748  -7194044.95746  21364942.1804                   21364939.0944
  -9969483.31247  -7732206.61745  22240753.7114                   22240753.0164
 11  8 13 20 34  0.0000000  0  8G11G07G08G26G04G17G28G24
    913681.93047    758308.48443  22947087.9694                   22947085.6564
   7298802.20347   5707922.75045  22228721.9064                   22228721.4494
  -9343218.59448  -7194154.62546  20361349.9924                   20361348.4104
    197063.74647    195254.43844  23016273.0864                   23016273.3874
  28132498.31646                  22116764.46943  23828780.3054   23828784.5784
 -15361983.10548 -11926139.30946  20932531.5554                   20932529.2274
  -9375211.73848  -7307116.30546  21337328.7664                   21337326.0514
 -10051837.49647  -7796378.71545  22225082.2894                   22225081.7344
 11  8 13 20 34 30.0000000  0  8G11G07G08G26G04G17G28G24
    871379.58647    725345.59844  22939038.0784                   22939035.4844
   7265704.42247   5682132.14845  22222424.1254                   22222423.4884
  -9420701.46148  -7254530.92246  20346605.2194                   20346603.6994
    112179.34847    129110.68444  23000120.0314                   23000120.5354
  27891628.36746                  21929073.91043  23782944.1024   23782948.5824
 -15516304.31248 -12046389.56646  20903164.9534                   20903163.4064
  -9520397.20748  -7420247.83246  21309700.5554                   21309698.0664
 -10133811.64147  -7860254.68745  22209483.2194                   22209482.2344
 11  8 13 20 35  0.0000000  0  8G11G07G08G26G04G17G28G24
    829290.12547    692548.55944  22931028.3524                   22931027.1484
   7232788.31647   5656483.13345  22216160.2584                   22216159.7774
  -9497760.87948  -7314577.27046  20331941.3524                   20331939.9884
     27614.34447     63215.79344  22984028.3134                   22984027.9064
  27650641.13346                  21741291.97343  23737085.7894   23737090.0944
 -15670413.59848 -12166474.70746  20873839.0554                   20873837.1954
  -9665649.64848  -7533431.55946  21282060.7034                   21282057.5824
 -10215397.96947  -7923828.45745  22193957.6954                   22193957.5164
 11  8 13 20 35 30.0000000  0  8G11G07G08G26G04G17G28G24
    787414.14147    659917.88744  22923059.8284                   22923057.3324
   7200054.81647   5630976.37945  22209931.3594                   22209930.6604
  -9574394.55548  -7374291.87146  20317358.5864                   20317356.9884
    -56630.74647     -2429.78544  22967996.4774                   22967997.1804
  27409542.32446                  21553423.03143  23691205.3364   23691210.2774
 -15824308.89148 -12286393.09446  20844553.5554                   20844551.5634
  -9810965.76248  -7646664.89146  21254407.5394                   21254404.7544
 -10296595.03547  -7987098.91844  22178506.3364                   22178505.8364
 11  8 13 20 36  0.0000000  0  8G11G07G08G26G04G17G28G24
   2321177.30147   1855057.96144  23214924.8984                   23214923.1094
   8742929.70747   6833216.44545  22503530.9924                   22503530.7074
  -8075173.92648  -6206068.04346  20602650.9614                   20602649.3754
   1434871.03947   1159779.33644  23251819.8444                   23251820.5554
  28743769.68846                  22593081.00043  23945101.0004   23945104.7194
 -14402558.63348 -11178535.73446  21115103.9454                   21115101.4184
  -8380912.82448  -6532337.92646  21526537.3444                   21526534.3594
  -8801974.44147  -6822459.50845  22462923.6254                   22462922.7464
 11  8 13 20 36 30.0000000  0  8G11G07G08G26G04G17G28G24
   2279733.02747   1822763.66844  23207039.1954                   23207036.3874
   8710567.64147   6807999.12145  22497372.6724                   22497372.5594
  -8150946.10548  -6265111.34446  20588231.4614                   20588230.1524
   1351270.67647   1094636.12944  23235911.1644                   23235912.1804
  28502469.02746                  22405054.77743  23899182.1254   23899185.8244
 -14556015.03548 -11298112.12146  21085902.1644                   21085899.9844
  -8526340.70748  -6645658.35546  21498863.8284                   21498860.6294
  -8882384.14547  -6885116.43045  22447621.9224                   22447621.1604
 11  8 13 20 37  0.0000000  0  8G11G07G08G26G04G17G28G24
   2238506.16047   1790638.79744  23199193.4064                   23199191.3364
   8678393.29347   6782928.08245  22491250.3674                   22491250.2974
  -8226283.93048  -6323816.18746  20573895.1804                   20573894.5474
   1267993.81647   1029745.02744  23220064.5084                   23220065.2584
  28261076.87547                  22216957.26643  23853246.7734   23853250.4734
 -14709247.80148 -11417514.25446  21056742.8054                   21056740.5394
  -8671817.98448  -6759017.28146  21471180.1884                   21471177.1414
  -8962397.32047  -6947464.35945  22432395.7974                   22432395.3164
 11  8 13 20 37 30.0000000  0  8G11G07G08G26G04G17G28G24
   2197495.68847   1758682.52344  23191389.5164                   23191387.7194
   8646405.60547   6758002.48045  22485163.4844                   22485162.9384
  -8301187.30148  -6382182.49646  20559641.9304                   20559640.7974
   1185039.34047    965105.09444  23204278.4614                   23204279.2034
  28019597.06347                  22028791.45744  23807294.9614   23807298.2854
 -14862256.21948 -11536741.56646  21027625.9774                   21027624.0084
  -8817342.40248  -6872412.93446  21443487.7274                   21443484.9494
  -9042013.96547  -7009503.30945  22417245.5554                   22417244.8014
 11  8 13 20 38  0.0000000  0  8G11G07G08G26G04G17G28G24
   2156703.50047   1726896.36344  23183627.3594                   23183624.9734
   8614607.73047   6733224.78145  22479112.7504                   22479112.4924
  -8375651.84848  -6440206.85946  20545472.1564                   20545470.6914
   1102409.52747    900718.15244  23188555.2584                   23188555.9534
  27778037.73047                  21840563.66044  23761327.0234   23761330.4064
 -15015036.22348 -11655790.90646  20998553.2894                   20998550.7274
  -8962907.80548  -6985840.52346  21415787.5784                   21415784.7544
  -9121230.40647  -7071230.41445  22402171.3204                   22402170.2734
 11  8 13 20 38 30.0000000  0  8G11G07G08G26G04G17G28G24
   2116120.52746   1695273.22343  23175904.3834                   23175902.0274
   8582990.18847   6708587.61345  22473095.7814                   22473095.4304
  -8449685.56648  -6497895.51646  20531383.8984                   20531382.4884
   1020095.14547    836577.00444  23172890.7584                   23172891.7114
  27536394.97747                  21652270.85943  23715343.9774   23715346.8834
 -15167594.82848 -11774667.71946  20969522.1724                   20969520.1024
  -9108519.87948  -7099304.47346  21388078.9924                   21388075.3984
  -9200055.15247  -7132652.28945  22387171.1484                   22387170.5004
 11  8 13 20 39  0.0000000  0  8G11G07G08G26G04G17G28G24
   2075749.26246   1663815.03544  23168221.7734                   23168219.6054
   8551556.06347   6684093.34845  22467114.6564                   22467113.4924
  -8523284.52348  -6555245.39846  20517378.3834                   20517376.8834
    938098.60547    772683.52744  23157288.0234                   23157288.1564
  27294676.70347                  21463919.25043  23669346.4614   23669349.2344
 -15319927.64848 -11893368.60246  20940534.2344                   20940532.2704
  -9254172.64848  -7212800.14146  21360362.0704                   21360358.8914
  -9278484.35947  -7193765.96945  22372246.6094                   22372245.6484
 11  8 13 20 39 30.0000000  0  8G11G07G08G26G04G17G28G24
   2035594.04346   1632525.20343  23160580.1954                   23160578.1954
   8520310.41847   6659745.97345  22461168.1804                   22461168.1134
  -8596442.86348  -6612251.95346  20503456.9304                   20503455.5124
    856424.13347    709041.00844  23141745.4924                   23141746.1134
  27052892.75047                  21275516.44943  23623336.5704   23623339.3244
 -15472028.37548 -12011888.62546  20911590.3834                   20911588.3284
  -9399858.12548  -7326321.29346  21332639.0314                   21332636.0044
  -9356512.45347  -7254567.10245  22357398.9774                   22357397.7234
 11  8 13 20 40  0.0000000  0  8G11G07G08G26G04G17G28G24
   1995650.70346   1601400.45343  23152979.7194                   23152978.1214
   8489248.70347   6635541.89845  22455257.4844                   22455257.0164
  -8669163.39848  -6668917.35246  20489618.4844                   20489617.2854
    775067.44947    645646.11744  23126263.6954                   23126264.3554
  26811044.04747                  21087063.14844  23577313.7974   23577316.7194
 -15623900.03548 -12130230.16046  20882689.9224                   20882688.3244
  -9545577.21148  -7439868.62946  21304909.6644                   21304906.1994
  -9434142.80147  -7315058.28145  22342626.1644                   22342625.0594
 11  8 13 20 40 30.0000000  0  8G11G07G08G26G04G17G28G24
   1955922.27346   1570443.19543  23145419.7274                   23145417.2384
   8458374.33647   6611483.83645  22449382.7344                   22449382.3054
  -8741441.68748  -6725238.13746  20475864.5944                   20475863.4144
    694031.12947    582500.85944  23110843.4224                   23110843.8834
  26569138.73847                  20898565.75444  23531280.3204   23531283.6294
 -15775537.65648 -12248389.32846  20853834.2974                   20853832.4414
  -9691323.53548  -7553437.19546  21277174.9924                   21277171.9964
  -9511371.65647  -7375236.60245  22327929.6954                   22327928.8554
 11  8 13 20 41  0.0000000  0  8G11G07G08G26G04G17G28G24
   1916407.81647   1539652.64843  23137900.7424                   23137898.4884
   8427687.07847   6587571.56645  22443543.3594                   22443542.8794
  -8813277.06248  -6781213.79746  20462194.8754                   20462193.8364
    613314.53547    519604.75044  23095483.2504                   23095484.1024
  26327182.03547                  20710028.31344  23485237.1484   23485240.1764
 -15926939.96148 -12366365.13346  20825023.3284                   20825021.3754
  -9837093.93748  -7667024.51646  21249435.6024                   21249432.8834
  -9588198.75047  -7435101.87544  22313310.1644                   22313309.0824
 11  8 13 20 41 30.0000000  0  8G11G07G08G26G04G17G28G24
   1877106.45346   1509028.18443  23130421.7034                   23130419.4184
   8397186.13347   6563804.45745  22437739.7194                   22437738.9924
  -8884669.23848  -6836844.09846  20448609.2664                   20448608.0204
    532916.43047    456956.80944  23080184.4144                   23080184.3324
  26085178.17246                  20521454.13743  23439184.9774   23439188.5004
 -16078106.35548 -12484157.10946  20796257.6804                   20796255.7894
  -9982886.00448  -7780628.72346  21221692.1414                   21221689.2584
  -9664624.08647  -7494654.09845  22298766.8284                   22298765.9064
 11  8 13 20 42  0.0000000  0  8G11G07G08G26G04G17G28G24
   1838019.12946   1478570.46543  23122983.5394                   23122981.5664
   8366873.07047   6540183.76645  22431970.8444                   22431970.4344
  -8955615.81648  -6892127.19546  20435108.5164                   20435107.3204
    452837.73447    394557.73444  23064946.2114                   23064946.5944
  25843133.58646                  20332848.25044  23393125.1724   23393128.5984
 -16229033.87148 -12601762.95346  20767536.7584                   20767534.8594
 -10128695.12548  -7894246.21946  21193945.7424                   21193942.8404
  -9740645.44947  -7553891.54345  22284300.5864                   22284299.5434
 11  8 13 20 42 30.0000000  0  8G11G07G08G26G04G17G28G24
   3374570.09846   2675882.84444  23415379.7344                   23415377.5984
   9912171.80547   7744312.51245  22726031.4844                   22726031.6174
  -7450690.21148  -5719457.93446  20721486.3914                   20721485.3594
   1948503.81647   1560011.75044  23349561.5554                   23349562.2854
  27176484.62947                  21371823.34444  23646853.7274   23646856.9654
 -14804292.47748 -11491574.83246  21038656.2504                   21038653.9494
  -8699089.96548  -6780268.17246  21465990.5554                   21465987.6134
  -8240836.69547  -6385209.41044  22569704.7344                   22569703.5664
 11  8 13 20 43  0.0000000  0  8G11G07G08G26G04G17G28G24
   3335913.32047   2645760.62943  23408023.3054                   23408021.3754
   9882237.26247   7720986.75445  22720335.1954                   22720335.2704
  -7520739.12548  -5774041.54346  20708156.8284                   20708155.5594
   1869065.76647   1498111.90644  23334445.4384   23334446.1174   26934377.44546
                                  21183168.62143  23600782.1024   23600784.9614
 -14954733.78948 -11608801.81246  21010028.1724                   21010025.9264
  -8844920.00048  -6893901.96946  21438240.0944                   21438237.4264
  -8316045.07847  -6443813.36345  22555393.0084                   22555392.5944
 11  8 13 20 43 30.0000000  0  8G11G07G08G26G04G17G28G24
   3297465.05947   2615800.89543  23400707.1724                   23400705.0124
   9852485.64147   7697803.55945  22714673.7114                   22714673.4144
  -7590344.12148  -5828279.25446  20694911.3594                   20694909.9384
   1789941.02347   1436456.19144  23319388.5314   23319389.2504   26692240.35246
                                  20994490.60944  23554704.5944   23554707.4384
 -15104936.57448 -11725842.93046  20981445.6174                   20981443.2664
  -8990761.89148  -7007544.99646  21410487.4454                   21410484.4654
  -8390852.42647  -6502104.80945  22541157.4614                   22541157.2234
 11  8 13 20 44  0.0000000  0  8G11G07G08G26G04G17G28G24
   3259224.15647   2586002.74644  23393430.0944                   23393428.3324
   9822916.44547   7674762.49245  22709047.2504                   22709047.1524
  -7659504.89148  -5882170.80946  20681750.5784                   20681749.2584
   1711128.50847   1375043.75444  23304391.1804   23304391.2814   26450077.88746
                                  20805792.83644  23508622.1254   23508625.6484
 -15254899.82048 -11842697.38746  20952908.6414                   20952906.3954
  -9136612.64148  -7121194.92246  21382732.8834                   21382729.9614
  -8465258.81247  -6560083.82044  22526998.6644                   22526997.0394
 11  8 13 20 44 30.0000000  0  8G11G07G08G26G04G17G28G24
   3221190.55547   2556366.10944  23386192.2664                   23386190.7074
   9793529.43447   7651863.38345  22703455.0084                   22703454.8244
  -7728220.71548  -5935715.64846  20668674.3364                   20668673.1334
   1632627.55947   1313874.10244  23289452.9614   23289453.4224   26207895.05146
                                  20617079.18844  23462535.9144   23462539.3634
 -15404622.02348 -11959364.02046  20924417.5554                   20924415.3134
  -9282469.11748  -7234849.32046  21354977.5394                   21354974.5124
  -8539263.71147  -6617750.00045  22512915.8834                   22512914.8794
 11  8 13 20 45  0.0000000  0  8G11G07G08G26G04G17G28G24
   3183363.27347   2526890.27343  23378994.1024                   23378992.1994
   9764324.28147   7629105.95745  22697897.5704                   22697897.8954
  -7796491.27348  -5988913.52346  20655683.0314                   20655681.7114
   1554437.40647   1252946.64144  23274573.9064   23274573.9734   25965696.76647
                                  20428353.48844  23416447.3444   23416450.3484
 -15554102.20348 -12075842.05946  20895972.1024                   20895969.9224
  -9428328.39848  -7348505.89846  21327221.0634                   21327218.0744
  -8612866.98447  -6675103.22744  22498909.8984                   22498909.1764
 11  8 13 20 45 30.0000000  0  8G11G07G08G26G04G17G28G24
   3145740.40647   2497573.69544  23371834.4844                   23371833.4534
   9735299.11747   7606488.79345  22692374.5944                   22692374.6214
  -7864316.86748  -6041764.68446  20642776.2974                   20642774.9654
   1476555.62147   1192259.44544  23259753.5944   23259753.9734   25723486.35247
                                  20239618.33244  23370356.1414   23370359.1604
 -15703340.24648 -12192131.42646  20867572.9534                   20867570.9024
  -9574188.82448  -7462163.37546  21299464.6174                   21299461.5984
  -8686069.54747  -6732144.19144  22484979.4614                   22484978.8794
 11  8 13 20 46  0.0000000  0  8G11G07G08G26G04G17G28G24
   3108320.35246   2468415.14843  23364714.3364                   23364712.7504
   9706452.71947   7584010.92645  22686884.9844                   22686885.0664
  -7931697.94948  -6094269.46946  20629953.9384                   20629952.7114
   1398980.28147   1131811.07044  23244991.2974   23244992.1564   25481267.81647
                                  20050876.83644  23324263.6094   23324265.9964
 -15852336.46948 -12308232.36746  20839219.7814                   20839217.6564
  -9720048.52348  -7575820.28146  21271708.8674                   21271705.9414
  -8758872.28947  -6788873.64145  22471125.7194                   22471125.4024
 11  8 13 20 46 30.0000000  0  8G11G07G08G26G04G17G28G24
   3071105.34046   2439416.34043  23357632.0004                   23357630.9804
   9677787.59847   7561674.31645  22681430.5004                   22681430.8914
  -7998631.07048  -6146425.19146  20617217.2344                   20617215.8054
   1321713.60547   1071603.20744  23230288.0164   23230288.3984   25239048.96146
                                  19862135.10243  23278170.2274   23278172.7034
 -16001086.69948 -12424141.61746  20810913.7424                   20810911.5274
  -9865901.21148  -7689471.72346  21243954.0944                   21243951.0204
  -8831272.14547  -6845289.13745  22457348.5084                   22457347.7114
 11  8 13 20 47  0.0000000  0  8G11G07G08G26G04G17G28G24
   3034097.00846   2410578.59843  23350590.1484                   23350588.6254
   9649305.50047   7539480.32445  22676011.1024                   22676010.6804
  -8065113.68048  -6198229.85946  20604565.8754                   20604564.6564
   1244756.87147   1011636.84844  23215643.8674   23215644.2894   24996836.74647
                                  19673398.52744  23232078.4614   23232081.6294
 -16149587.42248 -12539856.44546  20782654.7274                   20782652.8014
 -10011741.49247  -7803113.50846  21216201.1644                   21216197.9144
  -8903266.78547  -6901388.87145  22443648.4064                   22443647.9184
 11  8 13 20 47 30.0000000  0  8G11G07G08G26G04G17G28G24
   2997291.10246   2381898.62344  23343585.8134                   23343584.6134
   9621002.26647   7517425.69145  22670624.9224                   22670624.7584
  -8131148.62948  -6249685.71146  20591999.8364                   20591998.3954
   1168105.45747    951908.38744  23201057.5084   23201057.7544   24754632.50447
                                  19484668.15644  23185988.5634   23185991.0594
 -16297841.46147 -12655379.06246  20754443.2114                   20754441.1414
 -10157570.50047  -7916746.49246  21188451.3204                   21188448.2194
  -8974859.62947  -6957175.53145  22430024.8364                   22430023.7664
 11  8 13 20 48  0.0000000  0  8G11G07G08G26G04G17G28G24
   2960689.49246   2353377.81643  23336621.3054                   23336619.3094
   9592880.19147   7495512.26245  22665273.7424                   22665273.4844
  -8196733.09848  -6300790.54346  20579519.4844                   20579518.7544
   1091761.03147    892419.13744  23186529.1644   23186530.5554   24512443.41446
                                  19295949.59044  23139901.2814   23139903.6564
 -16445845.10948 -12770706.56246  20726278.8524                   20726277.0944
 -10303382.48048  -8030366.21546  21160703.6414                   21160700.8834
  -9046048.00447  -7012647.02044  22416478.3754                   22416477.5204
 11  8 13 20 48 30.0000000  0  8G11G07G08G26G04G17G28G24
   4499706.69546   3552611.91843  23629486.1564                   23629485.0354
  11140354.14147   8701335.97745  22959748.0864                   22959748.4024
  -6686450.56648  -5123947.05546  20866916.5704                   20866915.7154
   2591139.37947   2060765.80144  23471851.8674   23471852.6374   25845696.69947
                                  20334848.46144  23393610.5554   23393613.5514
 -15018178.00448 -11658238.67646  20997955.1564                   20997953.0394
  -8873755.23848  -6916370.96146  21432752.7034                   21432749.9964
  -7541415.15647  -5840205.86744  22702799.0944                   22702799.5234
 11  8 13 20 49  0.0000000  0  8G11G07G08G26G04G17G28G24
   4463496.47346   3524396.09044  23622595.7584                   23622594.6024
  11112578.32047   8679692.34844  22954462.7664                   22954462.9344
  -6751148.30548  -5174360.93446  20854605.5164                   20854604.0204
   2515391.19547   2001741.16844  23457437.8134   23457438.6214   25603538.07847
                                  20146153.63344  23347529.4454   23347531.9414
 -15165692.19948 -11773184.78546  20969883.9774                   20969882.0314
  -9019538.49648  -7029968.29346  21405011.2504                   21405008.2384
  -7611809.06247  -5895058.31645  22689404.4144                   22689404.4964
 11  8 13 20 49 30.0000000  0  8G11G07G08G26G04G17G28G24
   4427476.69146   3496328.65643  23615741.7664                   23615740.0784
  11084970.35247   8658179.50044  22949209.6484                   22949209.2344
  -6815406.37548  -5224432.19946  20842377.5474                   20842376.3094
   2439935.06647   1942944.10944  23443079.1024   23443079.6024   25361397.25047
                                  19957472.66444  23301451.2664   23301454.0824
 -15312964.83248 -11887942.66446  20941858.8754                   20941856.8444
  -9165307.26648  -7143554.34846  21377272.4924                   21377269.5554
  -7681810.19947  -5949604.68445  22676084.2194                   22676083.4804
 11  8 13 20 50  0.0000000  0  8G11G07G08G26G04G17G28G24
   4391644.51246   3468407.43043  23608923.1414                   23608921.3834
  11057527.84047   8636795.54745  22943986.7734                   22943987.3364
  -6879226.48448  -5274162.21946  20830232.9454                   20830231.8054
   2364768.19547   1884372.44544  23428775.1254   23428776.1334   25119277.35247
                                  19768808.00844  23255377.5234   23255379.8094
 -15459996.68048 -12002512.91446  20913879.7734                   20913877.4654
  -9311060.56248  -7257128.34846  21349536.5944                   21349533.8524
  -7751420.53147  -6003846.52744  22662837.3754                   22662836.5864
 11  8 13 20 50 30.0000000  0  8G11G07G08G26G04G17G28G24
   4356005.31646   3440636.57044  23602141.4534                   23602139.5824
  11030256.75447   8615545.16045  22938797.9614                   22938798.0274
  -6942601.96148  -5323545.75846  20818173.1174                   20818171.7854
   2289895.76647   1826030.19144  23414527.6414   23414528.4844   24877189.19947
                                  19580168.04744  23209309.3524   23209311.7504
 -15606780.76248 -12116890.10546  20885947.7734                   20885945.7464
  -9456789.29748  -7370683.20746  21321805.1644                   21321802.2074
  -7820633.78947  -6057778.96145  22649666.8754                   22649666.1914
 11  8 13 20 51  0.0000000  0  8G11G07G08G26G04G17G28G24
   4320557.73447   3413015.03943  23595396.6094                   23595393.7384
  11003155.35247   8594426.99245  22933640.7344                   22933641.6024
  -7005533.28948  -5372583.21946  20806197.7034                   20806196.6484
   2215315.87547   1767915.89844  23400335.5704   23400336.4774   24635137.04747
                                  19391556.14144  23163248.2034   23163251.0274
 -15753316.87948 -12231074.07046  20858062.5944                   20858060.1374
  -9602490.92648  -7484216.95746  21294078.8134                   21294075.7194
  -7889450.99247  -6111402.80945  22636571.2664                   22636570.4384
 11  8 13 20 51 30.0000000  0  8G11G07G08G26G04G17G28G24
   4285297.57446   3385539.52043  23588686.8444                   23588684.6374
  10976219.72747   8573438.01645  22928515.2194                   22928515.5704
  -7068024.33248  -5421277.60246  20794305.9384                   20794305.2544
   2141023.81647   1710025.89144  23386198.2734   23386199.0274   24393121.74647
                                  19202972.92644  23117194.1414   23117196.6484
 -15899607.42648 -12345066.69146  20830224.8134                   20830222.4964
  -9748166.07448  -7597730.06646  21266357.6174                   21266354.9224
  -7957875.74247  -6164720.82044  22623550.9224                   22623549.8984
 11  8 13 20 52  0.0000000  0  8G11G07G08G26G04G17G28G24
   4250220.49646   3358206.65643  23582011.4614                   23582009.3754
  10949446.04347   8552575.25445  22923420.6804                   22923420.9104
  -7130077.96148  -5469631.13746  20782497.7344                   20782496.5594
   2067015.13747   1652356.69144  23372115.2814   23372115.6884   24151145.11347
                                  19014419.88344  23071147.8364   23071150.2344
 -16045654.94148 -12458869.92646  20802432.4614                   20802430.4184
  -9893815.28548  -7711222.96546  21238641.7114                   21238638.8094
  -8025911.43447  -6217735.68444  22610603.7664                   22610602.9964
 11  8 13 20 52 30.0000000  0  8G11G07G08G26G04G17G28G24
   4215323.75046   3331014.38343  23575371.2664                   23575369.3404
  10922831.72347   8531836.65245  22918355.6644                   22918356.4694
  -7191696.11348  -5517645.34446  20770772.6254                   20770771.2234
   1993286.75847   1594905.91444  23358084.8914   23358086.2894   23909209.79747
                                  18825898.99644  23025108.4534   23025110.6914
 -16191460.60948 -12572484.71946  20774686.2504                   20774684.7384
 -10039437.31248  -7824694.68446  21210930.9774                   21210928.0594
  -8093560.22347  -6270449.05544  22597730.6094                   22597730.1414
 11  8 13 20 53  0.0000000  0  8G11G07G08G26G04G17G28G24
   4180601.09846   3303957.70343  23568762.9454                   23568761.3444
  10896370.52047   8511217.35545  22913320.9064                   22913321.7894
  -7252884.34048  -5565324.54746  20759128.6094                   20759127.5554
   1919831.53547   1537668.00444  23344106.8984   23344108.0594   23667314.84047
                                  18637409.55944  22979077.0634   22979079.5314
 -16337029.07448 -12685914.67646  20746985.9384                   20746983.5664
 -10185034.79748  -7938147.26246  21183224.5234                   21183221.9344
  -8160827.98047  -6322865.51644  22584929.7034                   22584929.1054
 11  8 13 20 53 30.0000000  0  8G11G07G08G26G04G17G28G24
   4146052.42646   3277036.58243  23562188.3834                   23562186.8444
  10870062.38747   8490717.34045  22908314.5704                   22908315.3834
  -7313641.78948  -5612668.07846  20747566.8204                   20747565.8134
   1846649.51247   1480642.94544  23330181.1254   23330182.1564   23425465.81647
                                  18448955.92644  22933055.0784   22933056.7544
 -16482358.99648 -12799158.75447  20719330.6094                   20719328.2034
 -10330603.90648  -8051577.74646  21155523.4304                   21155520.8054
  -8227714.13347  -6374984.62544  22572202.5554                   22572201.6134
 11  8 13 20 54  0.0000000  0  8G11G07G08G26G04G17G28G24
   4111672.68046   3250247.08243  23555646.3984                   23555645.4024
  10843902.44147   8470332.75444  22903337.0864                   22903337.1994
  -7373972.44548  -5659679.04746  20736086.3364                   20736085.1174
   1773735.03547   1423826.38344  23316305.5704   23316307.1174   23183663.36747
                                  18260538.57844  22887041.1484   22887043.5314
 -16627453.35248 -12912219.27346  20691720.1564                   20691718.0704
 -10476146.25448  -8164987.37146  21127827.8914                   21127824.9144
  -8294222.81647  -6426809.60545  22559546.0474                   22559544.7974
 11  8 13 20 54 30.0000000  0  8G11G07G08G26G04G17G28G24
   5652877.68846   4451185.98043  23848927.9064                   23848927.0084
  12393306.77347   9677660.62944  23198178.5864                   23198179.0744
  -5858458.81248  -4478759.39546  21024478.7344                   21024477.9104
   3276504.89847   2594815.78544  23602273.3364   23602274.5514   24517335.69947
                                  19299763.93444  23140830.3134   23140832.6214
 -15196891.09048 -11797495.41846  20963946.7034                   20963944.9264
  -9046238.06248  -7050773.19546  21399930.3754                   21399927.5354
  -6784936.62147  -5250742.48444  22846753.3674                   22846753.0634
 11  8 13 20 55  0.0000000  0  8G11G07G08G26G04G17G28G24
   5618816.40646   4424644.67643  23842446.6254                   23842445.5704
  12367424.93847   9657492.77344  23193253.3594                   23193254.6174
  -5917952.94548  -4525118.52046  21013158.3364                   21013156.8714
   3204105.14847   2538400.31644  23588496.6564   23588498.0044   24275623.55547
                                  19111416.97744  23094833.3674   23094836.0394
 -15341529.17248 -11910200.39846  20936422.7664                   20936420.9024
  -9191733.94548  -7164146.60546  21372243.5084                   21372240.3364
  -6850708.12147  -5301993.02044  22834237.9064                   22834237.0824
 11  8 13 20 55 30.0000000  0  8G11G07G08G26G04G17G28G24
   5584909.50846   4398223.63743  23835994.7114                   23835992.7274
  12341677.46147   9637429.60544  23188354.3364                   23188355.4734
  -5977032.48048  -4571154.58246  21001915.5314                   21001913.8834
   3131957.17247   2482181.01244  23574766.7424   23574768.9494   24033960.00847
                                  18923107.89144  23048846.9064   23048849.2304
 -15485941.66048 -12022729.59446  20908942.0864                   20908940.0124
  -9337206.02048  -7277501.46946  21344561.1884                   21344558.0594
  -6916114.88347  -5352959.35944  22821790.7974                   22821790.6644
 11  8 13 20 56  0.0000000  0  8G11G07G08G26G04G17G28G24
   5551159.59447   4371924.94543  23829572.2664                   23829571.0354
  12316066.86347   9617473.10544  23183480.5864                   23183481.5354
  -6035694.31648  -4616865.15646  20990752.5944                   20990751.8014
   3060063.20347   2426159.62944  23561086.0784   23561087.3404   23792353.27047
                                  18734843.08244  23002870.6644   23002872.6334
 -15630123.93448 -12135079.40646  20881505.1024                   20881503.1764
  -9482647.79348  -7390832.72746  21316884.6884                   21316881.4184
  -6981154.35247  -5403639.50444  22809414.5784                   22809413.9734
 11  8 13 20 56 30.0000000  0  8G11G07G08G26G04G17G28G24
   5517558.87546   4345742.50443  23823178.5554                   23823177.0234
  12290585.39847   9597617.22744  23178632.0634                   23178632.4654
  -6093945.27348  -4662255.57846  20979667.7194                   20979666.6214
   2988414.73847   2370329.55544  23547451.6414   23547453.5394   23550800.79747
                                  18546620.53944  22956904.5234   22956906.1994
 -15774082.82048 -12247255.15646  20854111.1334                   20854108.5394
  -9628063.26648  -7504143.49646  21289212.8674                   21289209.6374
  -7045833.78147  -5454039.09044  22797106.8204                   22797106.0204
 11  8 13 20 57  0.0000000  0  8G11G07G08G26G04G17G28G24
   5484109.80947   4319678.23843  23816812.8134                   23816811.8134
  12265236.41047   9577864.56344  23173808.4694                   23173809.5084
  -6151782.09447  -4707323.30146  20968661.6884                   20968661.1604
   2917014.42647   2314692.85544  23533865.2814   23533866.5784   23309311.26247
                                  18358447.04744  22910950.6024   22910952.0354
 -15917813.65248 -12359253.18046  20826759.7814                   20826757.5594
  -9773445.71947  -7617428.52746  21261547.2114                   21261544.7114
  -7110149.71547  -5504155.44944  22784867.6644                   22784867.0984
 11  8 13 20 57 30.0000000  0  8G11G07G08G26G04G17G28G24
   5450809.97347   4293730.23843  23810476.9774                   23810474.5704
  12240017.31347   9558213.12544  23169009.9774                   23169010.1294
  -6209206.60248  -4752069.73846  20957734.1644                   20957733.2154
   2845858.86747   2259246.86344  23520324.5704   23520326.0394   23067887.49247
                                  18170324.79744  22865009.0704   22865010.7274
 -16061317.24648 -12471074.15646  20799451.9924                   20799449.9454
  -9918793.84048  -7730686.81646  21233888.5004                   21233885.7234
  -7174104.11347  -5553990.07844  22772698.1024                   22772696.8204
 11  8 13 20 58  0.0000000  0  8G11G07G08G26G04G17G28G24
   5417661.96947   4267900.56643  23804168.5004                   23804166.7894
  12214930.82847   9538665.02744  23164236.3204                   23164237.0354
  -6266215.48448  -4796492.30946  20946885.8134                   20946885.1024
   2774950.66047   2203993.64544  23506831.2274   23506832.3324   22826537.49247
                                  17982260.03144  22819082.0084   22819083.0314
 -16204589.59448 -12582714.93446  20772188.2114                   20772185.8714
 -10064101.47347  -7843913.55146  21206237.4534                   21206234.5824
  -7237694.06247  -5603540.71144  22760596.4224                   22760596.3244
 11  8 13 20 58 30.0000000  0  8G11G07G08G26G04G17G28G24
   5384661.78547   4242186.07043  23797889.4384                   23797887.7274
  12189973.13747   9519217.29744  23159486.9774                   23159487.6294
  -6322812.12148  -4840593.64546  20936115.8444                   20936115.1414
   2704285.25047   2148929.59444  23493384.6414   23493385.6724   22585263.09047
                                  17794254.16844  22773168.0474   22773170.3754
 -16347633.23448 -12694177.49646  20744968.0474                   20744965.3594
 -10209368.45748  -7957108.61346  21178594.0554                   21178591.3834
  -7300923.03547  -5652810.08244  22748564.3524                   22748564.1764
 11  8 13 20 59  0.0000000  0  8G11G07G08G26G04G17G28G24
   5351805.38746   4216583.62143  23791636.6884                   23791635.1994
  12165139.89147   9499866.48845  23154761.3984                   23154762.8284
  -6378999.99248  -4884376.47746  20925423.7974                   20925422.8134
   2633857.66047   2094050.87544  23479982.0394   23479983.5784   22344065.45347
                                  17606308.13744  22727270.0634   22727271.6134
 -16490450.67247 -12805463.80546  20717790.5704                   20717788.0984
 -10354595.11747  -8070272.25446  21150958.5554                   21150955.6334
  -7363794.83247  -5701801.12944  22736600.6644                   22736599.5904
 11  8 13 20 59 30.0000000  0  8G11G07G08G26G04G17G28G24
   5319096.50846   4191096.12143  23785412.7114                   23785411.2074
  12140435.14547   9480615.81645  23150060.5004                   23150061.5084
  -6434774.64548  -4927837.30146  20914810.1954                   20914809.2384
   2563670.94147   2039359.84044  23466626.3204   23466627.6094   22102953.82047
                                  17418429.10944  22681388.0234   22681389.3674
 -16633036.96548 -12916569.99246  20690657.1254                   20690655.1294
 -10499774.22348  -8183398.83646  21123331.9384                   21123328.8554
  -7426305.55547  -5750510.81244  22724705.8134                   22724704.3714
 11  8 13 21  0  0.0000000  0  8G11G07G08G26G04G17G28G24
   5286530.90246   4165720.29743  23779215.7344                   23779213.6724
  12115854.60947   9461461.94944  23145383.2664                   23145384.2734
  -6490139.73448  -4970979.00446  20904274.7114                   20904273.6454
   2493720.96147   1984853.25844  23453316.0084   23453316.5474   21861929.75447
                                  17230618.29744  22635522.3054   22635524.1054
 -16775394.38348 -13027497.82446  20663567.5634                   20663565.3244
 -10644905.81648  -8296488.38746  21095714.1254                   21095711.2704
  -7488458.75447  -5798941.91444  22712878.1334                   22712877.4224
 11  8 13 21  0 30.0000000  0  8G11G07G08G26G04G17G28G24
   6829528.40646   5368055.91443  24072837.9224                   24072836.6644
  13666818.40247  10670004.94144  23440522.0314                   23440522.3164
  -4969673.97748  -3786200.55546  21193609.7664                   21193608.8914
   3999428.13347   3158131.50444  23739842.6644   23739843.0634   23196425.50047
                                  18270485.25444  22889468.6024   22889469.8094
 -15342097.78948 -11910643.32046  20936314.6884                   20936312.7034
  -9214562.39848  -7181935.09046  21367899.5004                   21367896.5984
  -5974832.99647  -4619493.30144  23000911.4614                   23000910.7974
 11  8 13 21  1  0.0000000  0  8G11G07G08G26G04G17G28G24
   6797243.30546   5342898.58643  24066694.4224                   24066692.7854
  13642481.32047  10651040.76644  23435890.9844                   23435892.4734
  -5024224.10248  -3828707.22346  21183229.0784                   21183228.7624
   3929943.57447   3103987.60544  23726619.8054   23726620.9774   22955587.06647
                                  18082819.07044  22843638.2274   22843639.7074
 -15483998.77048 -12021215.50046  20909312.1724                   20909309.9304
  -9359593.33648  -7294946.21546  21340301.0554                   21340297.7504
  -6036275.60947  -4667370.71544  22989219.0554                   22989218.7974
 11  8 13 21  1 30.0000000  0  8G11G07G08G26G04G17G28G24
   6765098.52746   5317850.66043  24060577.3134                   24060575.7664
  13618265.87147  10632171.38744  23431282.3054                   23431283.9534
  -5078366.14848  -3870895.89846  21172926.4694                   21172925.3554
   3860691.02347   3050024.47744  23713441.6724   23713442.7664   22714849.90647
                                  17895231.82044  22797827.4064   22797828.5744
 -15625669.43048 -12131608.19946  20882353.2974                   20882350.8634
  -9504568.34048  -7407913.76646  21312713.4694                   21312710.2274
  -6097362.46947  -4714970.89144  22977595.1954                   22977594.6024
 11  8 13 21  2  0.0000000  0  8G11G07G08G26G04G17G28G24
   6733088.50846   5292907.72743  24054485.1564                   24054485.2814
  13594166.64847  10613392.59044  23426696.9384                   23426698.2234
  -5132104.93447  -3912770.34446  21162700.0944                   21162699.0944
   3791664.48447   2996237.49644  23700306.5164   23700307.4494   22474213.82847
                                  17707723.34444  22752035.7274   22752037.0554
 -15767113.46148 -12241824.30946  20855436.9694                   20855434.9184
  -9649488.62948  -7520838.68046  21285135.9614                   21285132.9654
  -6158098.75047  -4762297.89544  22966037.1804                   22966037.1764
 11  8 13 21  2 30.0000000  0  8G11G07G08G26G04G17G28G24
   6701215.91846   5268071.87143  24048420.7274                   24048419.6214
  13570186.35946  10594706.40644  23422133.9064                   23422135.1764
  -5185437.57848  -3954328.31246  21152551.3754                   21152550.9104
   3722865.87147   2942628.07444  23687214.6094   23687216.1294   22233687.20747
                                  17520300.16444  22706264.7344   22706266.4654
 -15908326.91448 -12351860.75046  20828564.8674                   20828562.4924
  -9794347.92648  -7633716.05546  21257569.7664                   21257566.8484
  -6218481.39547  -4809349.34844  22954546.8754                   22954546.1884
 11  8 13 21  3  0.0000000  0  8G11G07G08G26G04G17G28G24
   6669478.46946   5243341.32843  24042381.6954                   24042380.2774
  13546323.17647  10576111.52744  23417593.1334                   23417595.0474
  -5238365.98847  -3995571.30146  21142479.7034                   21142479.1644
   3654292.42247   2889194.11744  23674165.8284   23674166.3794   21993273.37147
                                  17332964.85944  22660515.4304   22660516.8874
 -16049310.49248 -12461718.06646  20801736.6094                   20801734.3324
  -9939144.69548  -7746544.71546  21230016.1334                   21230013.0784
  -6278512.34847  -4856126.73844  22943123.3134                   22943122.3324
 11  8 13 21  3 30.0000000  0  8G11G07G08G26G04G17G28G24
   6637874.20347   5218714.58243  24036368.4844                   24036366.4774
  13522574.62547  10557605.98044  23413073.7114                   23413075.2774
  -5290891.21547  -4036500.12146  21132484.7194                   21132484.1644
   3585941.84447   2835933.84844  23661158.7734   23661160.3164   21752975.78547
                                  17145720.13744  22614788.2664   22614789.9144
 -16190064.63748 -12571396.59846  20774952.0554                   20774949.7704
 -10083876.76247  -7859322.95746  21202474.5554                   21202471.3444
  -6338193.14847  -4902631.30544  22931766.3754                   22931765.9884
 11  8 13 21  4  0.0000000  0  8G11G07G08G26G04G17G28G24
   6606404.28147   5194192.48443  24030379.3594                   24030378.4844
  13498942.24247  10539190.91844  23408576.6564                   23408578.7704
  -5343011.57447  -4077113.46146  21122566.0944                   21122565.8324
   3517814.60947   2782847.60544  23648194.6884   23648196.0704   21512801.09447
                                  16958571.19144  22569084.2814   22569085.9774
 -16330586.94948 -12680894.48846  20748211.3594                   20748209.5354
 -10228539.28148  -7972047.00046  21174946.1094                   21174942.9924
  -6397522.59447  -4948862.07044  22920476.7734                   22920476.0634
 11  8 13 21  4 30.0000000  0  8G11G07G08G26G04G17G28G24
   6575069.26246   5169775.56343  24024416.5704                   24024414.8484
  13475426.88347  10520867.08244  23404102.7584                   23404104.1764
  -5394726.21147  -4117410.64846  21112725.5634                   21112724.8404
   3449910.80547   2729935.46544  23635273.3524   23635273.8054   21272755.47347
                                  16771522.80545  22523404.9614   22523407.1334
 -16470875.02348 -12790209.84046  20721515.4844                   20721513.3244
 -10373127.83248  -8084713.41046  21147431.3364                   21147428.8714
  -6456499.86347  -4994818.42244  22909253.8914                   22909252.5044
 11  8 13 21  5  0.0000000  0  8G11G07G08G26G04G17G28G24
   6543863.93047   5145459.64843  24018479.1644                   24018477.0824
  13452023.05147  10502630.12544  23399648.6484                   23399650.3164
  -5446040.39848  -4157395.80546  21102960.7504                   21102959.8204
   3382224.05547   2677192.44944  23622392.4144   23622394.3874   21032839.12947
                                  16584575.16845  22477750.3524   22477751.8834
 -16610933.01248 -12899345.93446  20694863.3444                   20694860.9734
 -10517643.79748  -8197323.26246  21119931.4224                   21119928.6454
  -6515129.82447  -5040504.12944  22898096.6024                   22898095.8714
 11  8 13 21  5 30.0000000  0  8G11G07G08G26G04G17G28G24
   6512787.56347   5121244.23843  24012566.1334                   24012563.5744
  13428730.13346  10484479.57044  23395216.6644                   23395218.3874
  -5496954.00448  -4197068.82846  21093272.5314                   21093271.8404
   3314753.57047   2624617.93844  23609553.2584   23609555.3094   20793057.00047
                                  16397732.12945  22432121.6334   22432122.8364
 -16750760.03548 -13008302.03946  20668254.9694                   20668252.8834
 -10662083.57448  -8309873.73846  21092445.2504                   21092442.4774
  -6573412.80147  -5085919.49244  22887006.0004                   22887005.3914
 11  8 13 21  6  0.0000000  0  8G11G07G08G26G04G17G28G24
   6481844.97747   5097133.04743  24006676.8834                   24006675.2464
  13405553.05947  10466419.30544  23390806.4064                   23390808.2664
  -5547461.61348  -4236425.48446  21083661.3524                   21083660.9264
   3247503.52747   2572215.21544  23596756.6484   23596757.4344   20553419.74647
                                  16211001.94544  22386519.7274   22386520.3984
 -16890349.41848 -13117072.97346  20641692.0474                   20641689.8834
 -10806438.34048  -8422357.98046  21064975.6254                   21064972.4064
  -6631343.33647  -5131060.19944  22875981.7584                   22875981.1054
 11  8 13 21  6 30.0000000  0  8G11G07G08G26G04G17G28G24
   8026453.21546   6300723.81343  24300605.3204                   24300604.5664
  14957908.66847  11676046.81344  23686210.2734                   23686212.1024
  -4022145.62948  -3047867.65646  21373919.4064                   21373918.5314
   4755891.57847   3747582.42244  23883793.2344   23883794.8164   21889356.30147
                                  17251991.61345  22640740.0394   22640741.5474
 -15454279.36348 -11998057.34446  20914967.3674                   20914965.0124
  -9375284.12948  -7307172.88746  21337315.3524                   21337312.5744
  -5113503.83247  -3948328.16044  23164817.1724                   23164817.0944
 11  8 13 21  7  0.0000000  0  8G11G07G08G26G04G17G28G24
   7995769.98446   6276814.71143  24294767.0634                   24294766.0164
  14934955.14546  11658160.70344  23681842.5314                   23681844.5084
  -4071849.21548  -3086597.81245  21364460.5944                   21364460.3634
   4689072.40247   3695515.44544  23871078.6334   23871079.5474   21650016.34047
                                  17065493.09845  22595195.2424   22595196.0594
 -15593398.13348 -12106461.56646  20888493.7344                   20888491.3914
  -9519466.34448  -7419522.66446  21309878.4774                   21309875.3484
  -5170737.93047  -3992926.19144  23153925.7894                   23153925.4454
 11  8 13 21  7 30.0000000  0  8G11G07G08G26G04G17G28G24
   7965219.25846   6253008.89143  24288952.8594                   24288952.1254
  14912116.38346  11640364.02044  23677496.0234                   23677498.3404
  -4121147.77348  -3125012.34445  21355079.8364                   21355078.6804
   4622470.33647   3643617.64544  23858404.0004   23858405.7774   21410836.16047
                                  16879119.06345  22549680.6024   22549681.5634
 -15732276.55148 -12214678.50446  20862066.1564                   20862063.9454
  -9663553.52348  -7531798.39146  21282459.3524                   21282456.3134
  -5227620.66047  -4037250.44144  23143101.3754                   23143101.2624
 11  8 13 21  8  0.0000000  0  8G11G07G08G26G04G17G28G24
   7934799.45746   6229305.03543  24283164.8444                   24283164.0354
  14889390.57047  11622655.37144  23673171.9614                   23673173.8244
  -4170042.78548  -3163112.43745  21345775.1254                   21345774.5084
   4556083.16847   3591887.26243  23845771.3054   23845772.5944   21171819.45747
                                  16692872.42645  22504196.7974   22504197.8674
 -15870915.12148 -12322708.55146  20835683.8364                   20835681.6844
  -9807543.30948  -7643998.22346  21255059.0864                   21255055.8634
  -5284153.67247  -4081302.18744  23132343.4144                   23132343.1294
 11  8 13 21  8 30.0000000  0  8G11G07G08G26G04G17G28G24
   7904509.10546   6205702.07443  24277401.6174                   24277399.8364
  14866776.32847  11605033.60944  23668868.2424                   23668871.0664
  -4218535.13348  -3200898.76645  21336547.8834                   21336547.1954
   4489908.81347   3540322.73843  23833178.9454   23833179.7424   20932970.37947
                                  16506756.37545  22458745.3834   22458747.0594
 -16009313.75048 -12430551.63346  20809348.0394                   20809345.2274
  -9951433.34048  -7756120.32446  21227677.6254                   21227674.3594
  -5340337.96547  -4125082.19144  23121652.2504                   23121651.9104
 11  8 13 21  9  0.0000000  0  8G11G07G08G26G04G17G28G24
   7874351.39146   6182202.49643  24271661.8834                   24271661.3874
  14844276.80947  11587501.30544  23664587.7814                   23664589.6564
  -4266621.34048  -3238368.61345  21327396.9224                   21327396.9064
   4423949.89547   3488926.07043  23820627.2664   23820628.6684   20694297.97347
                                  16320778.02344  22413326.8284   22413328.6134
 -16147467.76648 -12538204.09846  20783057.7974                   20783055.3714
 -10095216.48448  -7868159.14546  21200316.5474                   21200314.0354
  -5396169.95347  -4168587.68044  23111028.2894                   23111027.7424
 11  8 13 21  9 30.0000000  0  8G11G07G08G26G04G17G28G24
   7844322.58646   6158803.41042  24265946.6884                   24265947.2234
  14821888.35547  11570055.52344  23660326.9144                   23660329.4264
  -4314305.15248  -3275524.92245  21318323.4304                   21318322.5434
   4358202.21147   3437693.99644  23808116.2664   23808117.0864   20455803.55147
                                  16134938.34445  22367943.5554   22367944.1564
 -16285379.35548 -12645667.66046  20756814.0084                   20756812.1024
 -10238892.73848  -7980114.66446  21172975.7114                   21172973.0004
  -5451653.60247  -4211821.73044  23100469.5234                   23100469.4654
 11  8 13 21 10  0.0000000  0  8G11G07G08G26G04G17G28G24
   7814420.61346   6135503.05942  24260257.8524                   24260257.3634
  14799608.87147  11552694.64844  23656087.9924                   23656089.9184
  -4361588.16048  -3312368.89845  21309325.4384                   21309324.6684
   4292662.78547   3386624.19544  23795644.0164   23795645.8524   20217490.79747
                                  15949240.21945  22322593.3754   22322595.3164
 -16423049.18448 -12752942.85246  20730616.6564                   20730614.1454
 -10382459.80148  -8091985.10546  21145655.7734                   21145653.2544
  -5506790.78947  -4254785.83644  23089977.3674                   23089977.2974
 11  8 13 21 10 30.0000000  0  8G11G07G08G26G04G17G28G24
   7784645.71546   6112301.85542  24254591.6644                   24254591.2624
  14777438.20347  11535418.59044  23651868.9844                   23651871.2234
  -4408470.38748  -3348900.58245  21300404.2344                   21300404.2624
   4227331.00047   3335716.18443  23783211.9924   23783213.6804   19979365.02347
                                  15763687.79744  22277280.0394   22277280.3284
 -16560476.20348 -12860028.82446  20704464.7894                   20704462.3134
 -10525914.00848  -8203767.61746  21118357.3204                   21118354.3984
  -5561581.41847  -4297479.85944  23079551.0004                   23079550.5984
 11  8 13 21 11  0.0000000  0  8G11G07G08G26G04G17G28G24
   7754994.42246   6089196.83243  24248949.5084                   24248949.1954
  14755373.27047  11518224.92244  23647670.3054                   23647672.3754
  -4454954.63347  -3385122.16845  21291558.8364                   21291558.2154
   4162203.09047   3284967.08643  23770819.0394   23770820.2854   19741428.82447
                                  15578283.08245  22232001.9924   22232003.4574
 -16697661.96548 -12966926.81246  20678359.4694                   20678357.0394
 -10669254.69148  -8315461.66446  21091080.8914                   21091077.9614
  -5616028.35547  -4339906.08244  23069190.0784                   23069190.4304
 11  8 13 21 11 30.0000000  0  8G11G07G08G26G04G17G28G24
   7725462.22747   6066184.66843  24243330.0784                   24243329.1604
  14733409.93847  11501110.41444  23643490.7664                   23643493.0234
  -4501045.18748  -3421036.96945  21282788.3364                   21282787.8324
   4097274.10947   3234372.93843  23758463.4844   23758464.9264   19503683.24647
                                  15393026.90245  22186760.4694   22186761.2504
 -16834609.59848 -13073639.24246  20652299.0554                   20652296.6374
 -10812482.19548  -8427067.52346  21063825.6414                   21063822.6844
  -5670135.85547  -4382067.80944  23058894.3054                   23058893.8874
 11  8 13 21 12  0.0000000  0  8G11G07G08G26G04G17G28G24
   9271465.96546   7270862.88743  24537524.2504                   24537522.9694
  16286964.24247  12711671.98444  23939123.1334                   23939125.1954
  -2971325.00848  -2229047.30945  21573884.0004                   21573884.0904
   5607960.72747   4411531.23844  24045937.3284   24045939.0664   20841556.89547
                                  16435525.97345  22441348.9534   22441350.3484
 -15395897.33248 -11952564.74246  20926076.6954                   20926074.5004
  -9380172.43748  -7310982.00846  21336384.7344                   21336382.0314
  -4148486.74247  -3196367.24244  23348454.7034                   23348454.0634
 11  8 13 21 12 30.0000000  0  8G11G07G08G26G04G17G28G24
   9242154.87546   7248023.00843  24531947.0164                   24531946.1254
  16265186.03146  12694701.73444  23934978.3054                   23934981.3404
  -3016645.60247  -2264362.13745  21565260.1954                   21565260.1054
   5543409.46147   4361231.43843  24033654.1954   24033655.7344   20604190.82047
                                  16250565.51245  22396180.2114   22396180.1644
 -15532382.12148 -12058916.52046  20900104.5004                   20900102.0704
  -9523179.48848  -7422416.08646  21309171.6644                   21309168.6134
  -4201933.17647  -3238013.85944  23338283.3364                   23338283.8164
 11  8 13 21 13  0.0000000  0  8G11G07G08G26G04G17G28G24
   9212940.74646   7225258.74243  24526387.4844                   24526387.1334
  16243486.46546  12677792.70344  23930849.3204                   23930852.2504
  -3061594.71547  -2299387.51645  21556706.7194                   21556706.7034
   5479032.45347   4311067.40244  24021403.6884   24021405.0234   20367009.25447
                                  16065748.83245  22351045.7584   22351046.2704
 -15668647.01648 -12165096.94546  20874174.3984                   20874172.0434
  -9666084.14548  -7533770.37546  21281977.7194                   21281974.9344
  -4255062.50047  -3279413.37544  23328173.0314                   23328173.8674
 11  8 13 21 13 30.0000000  0  8G11G07G08G26G04G17G28G24
   9183822.78546   7202569.31643  24520846.7424                   24520846.4454
  16221864.96546  12660944.53544  23926735.0784                   23926738.6174
  -3106173.12147  -2334124.01245  21548223.2894                   21548223.2544
   5414828.01247   4261037.83243  24009185.6564   24009187.7504   20130016.64547
                                  15881079.39545  22305947.0864   22305947.8794
 -15804692.03148 -12271106.03546  20848286.0164                   20848283.5514
  -9808883.46948  -7645042.58646  21254803.9844                   21254801.0434
  -4307875.75447  -3320566.60244  23318123.3834                   23318123.9844
 11  8 13 21 14  0.0000000  0  9G11G07G08G26G04G20G17G28G24
   9154792.74246   7179948.46143  24515322.1804                   24515321.8014
  16200312.94946  12644150.48844  23922634.3284                   23922637.5474
  -3150388.94947  -2368578.00845  21539809.6414                   21539809.7624
   5350787.27047   4211135.82444  23996999.4064   23997001.0554   19893210.14547
                                  15696554.96945  22260884.8524   22260884.8594
  46908718.22756  36589397.24252  24657255.5944                   24657255.9534
 -15940523.51248 -12376948.74246  20822437.8914                   20822435.5944
  -9951581.50448  -7756235.87146  21227649.5234                   21227646.3404
  -4360380.89547  -3361479.73044  23308132.0234                   23308131.7384
 11  8 13 21 14 30.0000000  0  9G11G07G08G26G04G20G17G28G24
   9125834.70346   7157383.72343  24509812.4454                   24509811.2154
  16178814.93046  12627398.50844  23918543.6484                   23918546.0784
  -3194258.17647  -2402761.91045  21531461.9224                   21531461.5274
   5286893.89547   4161348.62143  23984840.2194   23984842.6094   19656579.75447
                                  15512167.76645  22215855.2274   22215855.6884
  46730306.98046  36450375.64843  24623305.1174                   24623305.0274
 -16076155.95747 -12482636.35246  20796628.1644                   20796625.6524
 -10094190.37548  -7867359.68746  21200511.8524                   21200509.0274
  -4412593.52047  -3402164.94544  23298196.1334                   23298195.6844
 11  8 13 21 15  0.0000000  0  9G11G07G08G26G04G20G17G28G24
   9096937.44946   7134866.29343  24504313.1644                   24504312.6134
  16157359.70747  12610679.91044  23914460.9064                   23914463.6334
  -3237791.77347  -2436684.27745  21523177.3204                   21523177.3134
   5223136.18047   4111667.16444  23972708.4774   23972710.0434   19420119.53147
                                  15327913.17645  22170858.0784   22170858.8754
  46552055.03146  36311478.07843  24589384.4304                   24589385.0204
 -16211599.37948 -12588176.68446  20770854.1334                   20770851.3954
 -10236717.14848  -7978419.51646  21173389.7814                   21173386.9304
  -4464524.82047  -3442630.91044  23288314.0234                   23288313.5274
 11  8 13 21 15 30.0000000  0  9G11G07G08G26G04G20G17G28G24
   9068091.91446   7112389.17643  24498823.3524                   24498822.8444
  16135937.64147  12593987.13344  23910384.5634                   23910388.0904
  -3280999.10947  -2470352.41845  21514956.0394                   21514955.4844
   5159503.45747   4062083.07044  23960600.1174   23960602.3714   19183825.54347
                                  15143788.10245  22125892.5864   22125893.7274
  46373958.10546  36172701.36343  24555492.7664                   24555493.8134
 -16346861.95348 -12693576.08246  20745114.2664                   20745112.1844
 -10379167.10248  -8089419.48846  21146283.0314                   21146280.0434
  -4516184.37947  -3482885.14543  23278483.8914                   23278483.5314
 11  8 13 21 16  0.0000000  0  8G07G08G26G04G20G17G28G24
  16114546.43447  12577318.40244  23906313.9924                   23906317.5514
  -3323882.31647  -2503768.00445  21506795.5784                   21506795.0044
   5095993.41447   4012594.60244  23948513.9924   23948515.9844   18947701.22347
                                  14959795.23845  22080959.3134   22080960.3054
  46196019.22346  36034047.80543  24521633.1414                   24521633.6294
 -16481944.33648 -12798835.07846  20719408.9534                   20719406.3714
 -10521538.54348  -8200358.28946  21119190.0784                   21119187.5594
  -4567573.89547  -3522928.95744  23268704.2894                   23268704.7704
 11  8 13 21 16 30.0000000  0  8G07G08G26G04G20G17G28G24
  16093185.93447  12560673.60544  23902250.0474                   23902253.3984
  -3366442.08247  -2536931.54345  21498696.9384                   21498696.7464
   5032604.44947   3963200.46944  23936451.8834   23936453.7504   18711751.07447
                                  14775938.09845  22036059.7424   22036060.2464
  46018243.11746  35895521.10543  24487803.1804                   24487803.9654
 -16616845.77047 -12903953.07846  20693738.0234                   20693735.7274
 -10663828.37548  -8311233.49646  21092113.5314                   21092110.5704
  -4618694.24246  -3562763.04743  23258976.9384                   23258977.0314
 11  8 13 21 17  0.0000000  0  8G07G08G26G04G20G17G28G24
  16071858.07447  12544054.25043  23898190.8134                   23898194.8834
  -3408676.18047  -2569841.32045  21490659.8594                   21490659.4304
   4969338.23847   3913901.99644  23924412.3984   23924414.5634   18475982.99647
                                  14592222.82845  21991194.4534   21991195.2934
  45840637.28546  35757126.99243  24454005.9614                   24454007.2034
 -16751562.60248 -13008927.22346  20668102.2344                   20668099.9384
 -10806030.22748  -8422040.13346  21065053.1804                   21065050.3404
  -4669543.21947  -3602385.66043  23249300.5004                   23249300.4964
 11  8 13 21 17 30.0000000  0  8G07G08G26G04G20G17G28G24
  16050559.53547  12527457.72743  23894138.3134                   23894141.8134
  -3450587.90647  -2602499.89545  21482683.9534                   21482684.1454
   4906190.63347   3864695.93844  23912396.1644   23912398.4964   18240399.17247
                                  14408651.12945  21946364.6024   21946365.1134
  45663203.63346  35618867.17643  24420242.0554                   24420241.9304
 -16886096.98448 -13113759.20746  20642500.9064                   20642498.9924
 -10948143.45748  -8532777.72346  21038010.3284                   21038007.3914
  -4720123.86747  -3641799.19543  23239675.4454                   23239675.4264
 11  8 13 21 18  0.0000000  0  8G07G08G26G04G20G17G28G24
  17604703.22346  13738478.48443  24189882.3984                   24189886.3364
  -1916763.67647  -1407312.28545  21774561.5314                   21774560.9384
   6418575.30547   5043177.36344  24200193.8204   24200196.1134   19580424.63747
                                  15452826.91045  22201362.3834   22201363.3954
  47061365.32046  36708343.89843  24686302.5864                   24686303.3014
 -15445031.20748 -11990850.80946  20916726.8914                   20916724.6024
  -9514747.18048  -7415845.55546  21310776.3984                   21310773.1374
  -3195022.75047  -2453408.76243  23529892.7974                   23529893.0474
 11  8 13 21 18 30.0000000  0  8G07G08G26G04G20G17G28G24
  17583440.72746  13721910.10943  24185836.2274                   24185839.1134
  -1958053.23047  -1439486.06645  21766704.2664                   21766704.1564
   6355640.41847   4994137.05544  24188217.5394   24188219.7734   19345202.87147
                                  15269537.34445  22156601.1884   22156601.5274
  46884268.61346  36570346.59843  24652602.1094                   24652602.4804
 -15579219.48448 -12095413.10246  20891191.7424                   20891188.9224
  -9656693.88348  -7526453.37946  21283764.4144                   21283761.6214
  -3245089.76647  -2492422.04343  23520365.2504                   23520365.1994
 11  8 13 21 19  0.0000000  0  8G07G08G26G04G20G17G28G24
  17562195.56346  13705355.19143  24181794.4224                   24181797.1954
  -1999032.25847  -1471417.87145  21758906.4304                   21758906.4774
   6292810.34047   4945178.39544  24176262.1414   24176263.5984   19110169.66047
                                  15086394.68045  22111876.0164   22111876.5474
  46707347.71546  36432486.24643  24618934.7894                   24618935.5004
 -15713233.00848 -12199839.21946  20865689.7194                   20865687.2074
  -9798551.91448  -7636992.11746  21256769.8594                   21256766.9924
  -3294900.42247  -2531235.57044  23510886.3834                   23510886.8164
 11  8 13 21 19 30.0000000  0  8G07G08G26G04G20G17G28G24
  17540962.93046  13688809.98843  24177754.1884                   24177756.5864
  -2039705.86747  -1503111.69945  21751166.7114                   21751166.4574
   6230079.39847   4896296.98844  24164324.3364   24164326.5634   18875325.59047
                                  14903399.40645  22067186.4454   22067186.7384
  46530602.87946  36294763.10243  24585301.9304                   24585301.5704
 -15847075.39147 -12304131.98846  20840220.4144                   20840218.0234
  -9940322.06248  -7747462.36746  21229792.2424                   21229789.2934
  -3344459.60947  -2569853.13344  23501455.6954                   23501455.7704
 11  8 13 21 20  0.0000000  0  8G07G08G26G04G20G17G28G24
  17519741.98446  13672273.91043  24173714.8134                   24173718.6764
  -2080074.84047  -1534568.13745  21743484.8284                   21743484.5084
   6167446.19147   4847491.73844  24152405.3444   24152407.5944   18640675.47347
                                  14720555.26645  22022534.0084   22022534.5434
  46354038.52346  36157180.55943  24551702.9924                   24551703.2584
 -15980746.39848 -12408291.21146  20814783.8284                   20814782.0084
 -10082001.23848  -7857861.72746  21202831.5944                   21202828.4774
  -3393768.07447  -2608275.36344  23492072.9064                   23492073.2464
 11  8 13 21 20 30.0000000  0  8G07G08G26G04G20G17G28G24
  17498534.62546  13655748.42243  24169680.6804                   24169683.4694
  -2120137.50447  -1565785.89845  21735861.2734                   21735861.1054
   6104912.05947   4798763.69144  24140505.9224   24140508.5234   18406226.53547
                                  14537867.88745  21977919.6644   21977919.8014
  46177661.81346  36019744.25843  24518139.2734                   24518139.4694
 -16114242.37148 -12512314.04346  20789380.2974                   20789378.0354
 -10223583.51648  -7968185.60246  21175889.3284                   21175886.5984
  -3442823.71547  -2646500.57444  23482738.3364                   23482737.2384
 11  8 13 21 21  0.0000000  0  8G07G08G26G04G20G17G28G24
  17477333.52347  13639227.80544  24165646.4454                   24165649.6804
  -2159901.40247  -1596770.85545  21728294.2194                   21728294.4024
   6042468.46947   4750106.20744  24128623.0164   24128625.2774   18171976.57847
                                  14355335.56345  21933343.4454   21933343.6094
  46001470.05946  35882452.04343  24484610.8284                   24484611.3364
 -16247570.11348 -12616205.79746  20764008.7734                   20764006.1254
 -10365072.41048  -8078436.68746  21148965.1564                   21148961.8634
  -3491634.43747  -2684534.96144  23473449.6884                   23473449.5394
 11  8 13 21 21 30.0000000  0  8G07G08G26G04G20G17G28G24
  17456138.63347  13622712.00044  24161612.9774                   24161616.8794
  -2199366.30947  -1627522.82845  21720784.2274                   21720784.1844
   5980115.45347   4701519.27044  24116758.2194   24116760.3674   17937931.43847
                                  14172962.83645  21888805.5864   21888805.7584
  45825469.05946  35745308.52343  24451118.7114                   24451118.9734
 -16380727.57848 -12719964.85546  20738669.7894                   20738667.5394
 -10506463.63348  -8188611.69146  21122058.9534                   21122055.9494
  -3540199.69946  -2722378.04744  23464207.5084                   23464207.9224
 11  8 13 21 22  0.0000000  0  8G07G08G26G04G20G17G28G24
  17434945.99247  13606197.92644  24157580.7504                   24157584.0944
  -2238536.46547  -1658045.13745  21713330.4534                   21713330.8714
   5917847.85947   4652998.90244  24104909.3444   24104911.6884   17704092.63747
                                  13990750.86345  21844308.0164   21844308.1954
  45649659.67646  35608314.23043  24417663.4454                   24417663.9144
 -16513717.31248 -12823593.21546  20713362.7114                   20713360.4104
 -10647757.33648  -8298710.69546  21095171.9454                   21095168.5124
  -3588523.84447  -2760033.28144  23455012.3594                   23455012.0394
 11  8 13 21 22 30.0000000  0  8G07G08G26G04G20G17G28G24
  17413751.19947  13589682.19944  24153547.7584                   24153551.5744
  -2277416.28148  -1688341.20745  21705931.9774                   21705932.1294
   5855660.86747   4604541.34444  24093075.2274   24093077.7234   17470460.98847
                                  13808700.34045  21799849.1804   21799849.3554
  45474042.71946  35471469.92243  24384244.1094                   24384244.2154
 -16646542.55148 -12927093.40246  20688087.1024                   20688084.7934
 -10788953.84048  -8408733.96146  21068303.1334                   21068300.1484
  -3636611.00846  -2797503.85244  23445861.0554                   23445861.5944
 11  8 13 21 23  0.0000000  0  8G07G08G26G04G20G17G28G24
  17392551.59047  13573162.74244  24149513.4304                   24149517.9304
  -2316008.71947  -1718413.34045  21698588.6414                   21698588.8204
   5793551.01647   4556143.89843  24081256.4534   24081258.9774   17237038.94547
                                  13626813.12545  21755430.4534   21755430.4104
  45298620.53146  35334777.39543  24350862.5944                   24350862.5004
 -16779204.86348 -13030466.62546  20662842.2894                   20662839.8094
 -10930051.86748  -8518680.50046  21041452.9144                   21041449.8954
  -3684464.20346  -2834792.10944  23436755.1644                   23436756.0004
 11  8 13 21 23 30.0000000  0  8G07G08G26G04G20G17G28G24
  17371335.16846  13556630.14143  24145475.8914                   24145479.8364
  -2354325.82847  -1748270.93445  21691296.8204                   21691297.0594
   5731505.80946   4507796.84443  24069449.2344   24069451.6844   17003820.24247
                                  13445084.34845  21711050.3204   21711050.3524
  45123386.32846  35198231.32443  24317516.0864                   24317516.4654
 -16911714.75048 -13133721.08646  20637626.5704                   20637624.0204
 -11071059.46948  -8628556.57446  21014620.1564                   21014616.9804
  -3732095.25846  -2871907.26643  23427691.2584                   23427691.5354
 11  8 13 21 24  0.0000000  0  8G07G08G26G04G20G17G28G24
  18925517.92246  14767681.33643  24441227.9384                   24441231.3364
   -816951.52348   -550317.03145  21983849.8754                   21983850.1604
   7244941.55947   5687097.26243  24357447.0314   24357449.6094   18346233.19547
                                  14491120.51645  21966503.1484   21966503.2774
  46523766.33646  36289436.66043  24584000.2814                   24583999.9224
 -15468651.62548 -12009256.30946  20912231.9384                   20912229.7424
  -9636552.70348  -7510759.12146  21287597.7664                   21287594.4734
  -2204087.43746  -1681251.85543  23718461.4304                   23718462.1214
 11  8 13 21 24 30.0000000  0  8G07G08G26G04G20G17G28G24
  18904248.68346  14751107.57943  24437180.8364                   24437184.5314
   -854737.68747   -579760.90245  21976659.3674                   21976659.2274
   7183004.20347   5638834.21543  24345661.0634   24345663.4964   18113418.29748
                                  14309706.39545  21922199.6804   21922199.8714
  46348904.53946  36153180.76243  24550724.0864                   24550724.8484
 -15600872.07048 -12112285.23046  20887071.2734                   20887068.9384
  -9777386.18048  -7620499.51646  21260798.0004                   21260794.7624
  -2251293.39546  -1718035.78943  23709478.0164                   23709479.3674
 11  8 13 21 25  0.0000000  0  8G07G08G26G04G20G17G28G24
  18882942.11746  14734504.72743  24433126.1804                   24433130.3914
   -892269.86747   -609006.85945  21969517.2734                   21969517.0164
   7121108.65247   5590603.73043  24333883.2894   24333885.3874   17880802.02348
                                  14128447.04745  21877934.7034   21877934.0944
  46174225.18846  36017067.00442  24517484.3364                   24517484.3984
 -15732956.78148 -12215208.37946  20861936.6024                   20861934.0314
  -9918137.78548  -7730176.11346  21234013.6644                   21234010.6914
  -2298297.97746  -1754662.79343  23700534.3984                   23700534.8404
 11  8 13 21 25 30.0000000  0  8G07G08G26G04G20G17G28G24
  18861591.57846  14717867.58643  24429063.4844                   24429068.1914
   -929554.48847   -638059.92245  21962422.4924                   21962422.6024
   7059247.71146   5542400.20743  24322111.8134   24322114.0824   17648383.54747
                                  13947341.82445  21833706.1254   21833706.2544
  45999727.21946  35881094.62943  24484278.1724                   24484278.6484
 -15864911.09448 -12318029.91846  20836826.2814                   20836823.8914
 -10058809.90648  -7839790.77046  21207244.8834                   21207241.9804
  -2345107.78146  -1791138.00843  23691626.2664                   23691627.3554
 11  8 13 21 26  0.0000000  0  8G07G08G26G04G20G17G28G24
  18840183.42246  14701185.56643  24424989.3524                   24424994.5904
   -966605.27747   -666930.77745  21955371.4064                   21955371.7974
   6997407.02346   5494212.47743  24310343.6254   24310345.8524   17416154.32847
                                  13766384.07445  21789514.7664   21789514.6174
  45825401.78146  35745256.69143  24451105.7344                   24451105.5004
 -15996747.14148 -12420759.30546  20811738.7974                   20811736.2704
 -10199412.26248  -7949351.07046  21180489.0394                   21180486.1094
  -2391736.57447  -1827472.16443  23682753.3134                   23682753.8834
 11  8 13 21 26 30.0000000  0  8G07G08G26G04G20G17G28G24
  18818708.06646  14684451.22743  24420903.8444                   24420908.0124
  -1003432.27347   -695627.25045  21948364.2894                   21948363.9964
   6935576.54747   5446032.68843  24298577.8204   24298580.2894   17184109.51658
                                  13585569.78955  21745357.9384   21745358.1954
  45651244.58246  35609549.91443  24417964.6024                   24417964.3984
 -16128473.38748 -12523403.12546  20786672.1884                   20786669.7424
 -10339950.31248  -8058861.25446  21153745.9384                   21153742.7704
  -2438193.85547  -1863672.69143  23673912.9694                   23673912.6844
 11  8 13 21 27  0.0000000  0  8G07G08G26G04G20G17G28G24
  18797158.40246  14667658.91843  24416802.9694                   24416807.7974
  -1040042.85947   -724155.09445  21941397.1954                   21941397.6724
   6873748.28946   5397854.63743  24286812.0554   24286814.8754   16952248.97747
                                  13404899.31645  21701235.8984   21701236.5434
  45477253.87546  35473972.76643  24384854.8364                   24384855.4694
 -16260095.58248 -12625965.87946  20761625.4694                   20761622.8204
 -10480427.37948  -8168323.92246  21127013.9064                   21127010.7584
  -2484486.81247  -1899745.15244  23665103.8364                   23665103.3244
 11  8 13 21 27 30.0000000  0  8G07G08G26G04G20G17G28G24
  18775530.63747  14650805.78143  24412688.1254                   24412692.4964
  -1076440.78547   -752517.21945  21934471.2734                   21934471.5704
   6811917.95747   5349674.94943  24275046.8364   24275049.4414   16720573.71948
                                  13224373.20745  21657150.0314   21657150.0084
  45303430.27746  35338525.93843  24351776.8834                   24351777.7464
 -16391616.07448 -12728449.37946  20736597.7974                   20736595.5314
 -10620842.98448  -8277738.70346  21100293.4304                   21100290.9304
  -2530619.22747  -1935692.53544  23656325.2584                   23656324.7734
 11  8 13 21 28  0.0000000  0  8G07G08G26G04G20G17G28G24
  18753814.37947  14633883.69543  24408555.9064                   24408560.3874
  -1112637.67247   -780722.72345  21927583.2664                   21927584.0164
   6750073.95746   5301484.65243  24263278.0164   24263280.4454   16489078.02348
                                  13043987.02345  21613097.7974   21613097.2114
  45129768.50846  35203205.13343  24318730.6414                   24318730.4344
 -16523044.37548 -12830861.03546  20711587.8754                   20711585.4694
 -10761203.85248  -8387110.82846  21073583.9694                   21073580.7664
  -2576602.03546  -1971523.30543  23647575.2344                   23647575.2584
 11  8 13 21 28 30.0000000  0  8G07G08G26G04G20G17G28G24
  18732002.02746  14616886.69943  24404405.3674                   24404409.5824
  -1148640.22347   -808776.78945  21920732.5084                   21920732.6254
   6688208.62946   5253277.70343  24251505.1484   24251508.7304   16257760.07048
                                  12863739.33645  21569079.4064   21569079.4494
  44956266.50046  35068008.84442  24285714.6804                   24285714.1914
 -16654386.19948 -12933205.31646  20686594.3364                   20686591.9104
 -10901512.98048  -8496442.62546  21046883.7894                   21046881.0904
  -2622442.27747  -2007243.02343  23638851.9064                   23638851.7194
 11  8 13 21 29  0.0000000  0  8G07G08G26G04G20G17G28G24
  18710086.96546  14599809.68443  24400235.4844                   24400239.2114
  -1184455.63347   -836685.01645  21913917.1724                   21913916.8324
   6626314.59046   5205048.35943  24239727.7034   24239730.3554   16026618.61748
                                  12683629.18845  21525094.5864   21525094.5474
  44782922.20346  34932935.43443  24252727.5634                   24252727.3244
 -16785647.32848 -13035486.71546  20661616.2424                   20661614.0554
 -11041773.27748  -8605736.37946  21020193.1884                   21020190.3244
  -2668146.79746  -2042856.96543  23630154.6884                   23630154.5784
 11  8 13 21 29 30.0000000  0  8G07G08G26G04G20G17G28G24
  20263490.68046  15810253.75043  24695837.8364                   24695842.5864
    355337.49647    363153.65245  22206929.5164                   22206930.5554
   8139813.98846   6384398.33243  24527737.7814   24527740.2814   17371087.28548
                                  13731267.17645  21780938.5554   21780938.1414
  46185166.88746  36025593.69143  24519566.3204                   24519565.9064
 -15341401.28548 -11910100.18746  20936447.1484                   20936444.8754
  -9606555.54748  -7487384.92246  21293306.0394                   21293303.8324
  -1138293.76247   -850763.73443  23921276.4384                   23921276.1094
